Wetterdaten: Samstag, 12.10.2019
Datum Zeit Temp. A. Feuchte A. Luftdruck Regen Wind Richtung Richtung Sonnenschein ET UV Solar Taupunkt Windchill Windböen
12.10.2019 00:00 7,2 °C 87 % 1017,9 hPa 0,0 mm 0,0 km/h (0 Bft) W-NW 302 ° 0 min 0,000 mm 0,0 UV-I 0 W/m² 5,2 °C 7,2 °C 0,0 km/h (0 Bft)
12.10.2019 00:01 7,2 °C 87 % 1018,0 hPa 0,0 mm 0,0 km/h (0 Bft) W-NW 302 ° 0 min 0,000 mm 0,0 UV-I 0 W/m² 5,2 °C 7,2 °C 0,0 km/h (0 Bft)
12.10.2019 00:02 7,1 °C 87 % 1018,0 hPa 0,0 mm 0,0 km/h (0 Bft) W-NW 302 ° 0 min 0,000 mm 0,0 UV-I 0 W/m² 5,1 °C 7,1 °C 0,0 km/h (0 Bft)
12.10.2019 00:03 7,1 °C 87 % 1018,0 hPa 0,0 mm 0,0 km/h (0 Bft) W-NW 302 ° 0 min 0,000 mm 0,0 UV-I 0 W/m² 5,1 °C 7,1 °C 0,0 km/h (0 Bft)
12.10.2019 00:04 7,1 °C 87 % 1018,0 hPa 0,0 mm 0,0 km/h (0 Bft) W-NW 302 ° 0 min 0,000 mm 0,0 UV-I 0 W/m² 5,1 °C 7,1 °C 0,0 km/h (0 Bft)
12.10.2019 00:05 7,1 °C 87 % 1018,0 hPa 0,0 mm 0,0 km/h (0 Bft) W-NW 302 ° 0 min 0,000 mm 0,0 UV-I 0 W/m² 5,1 °C 7,1 °C 0,0 km/h (0 Bft)
12.10.2019 00:06 7,0 °C 87 % 1018,0 hPa 0,0 mm 0,0 km/h (0 Bft) W-NW 302 ° 0 min 0,000 mm 0,0 UV-I 0 W/m² 5,0 °C 7,0 °C 0,0 km/h (0 Bft)
12.10.2019 00:07 7,1 °C 87 % 1018,0 hPa 0,0 mm 0,3 km/h (0 Bft) W-NW 302 ° 0 min 0,000 mm 0,0 UV-I 0 W/m² 5,1 °C 7,1 °C 1,6 km/h (1 Bft)
12.10.2019 00:08 7,1 °C 87 % 1018,0 hPa 0,0 mm 0,0 km/h (0 Bft) W-NW 302 ° 0 min 0,000 mm 0,0 UV-I 0 W/m² 5,1 °C 7,1 °C 0,0 km/h (0 Bft)
12.10.2019 00:09 7,1 °C 87 % 1018,0 hPa 0,0 mm 0,2 km/h (0 Bft) W-NW 302 ° 0 min 0,000 mm 0,0 UV-I 0 W/m² 5,1 °C 7,1 °C 1,6 km/h (1 Bft)
12.10.2019 00:10 7,1 °C 87 % 1018,0 hPa 0,0 mm 0,0 km/h (0 Bft) W-NW 302 ° 0 min 0,000 mm 0,0 UV-I 0 W/m² 5,1 °C 7,1 °C 0,0 km/h (0 Bft)
12.10.2019 00:11 7,1 °C 87 % 1018,0 hPa 0,0 mm 0,3 km/h (0 Bft) W-NW 302 ° 0 min 0,000 mm 0,0 UV-I 0 W/m² 5,1 °C 7,1 °C 1,6 km/h (1 Bft)
12.10.2019 00:12 7,1 °C 87 % 1018,0 hPa 0,0 mm 0,1 km/h (0 Bft) W-NW 302 ° 0 min 0,000 mm 0,0 UV-I 0 W/m² 5,1 °C 7,1 °C 1,6 km/h (1 Bft)
12.10.2019 00:13 7,2 °C 87 % 1017,9 hPa 0,0 mm 0,0 km/h (0 Bft) W-NW 302 ° 0 min 0,000 mm 0,0 UV-I 0 W/m² 5,2 °C 7,2 °C 0,0 km/h (0 Bft)
12.10.2019 00:14 7,2 °C 87 % 1017,9 hPa 0,0 mm 0,0 km/h (0 Bft) W-NW 302 ° 0 min 0,000 mm 0,0 UV-I 0 W/m² 5,2 °C 7,2 °C 0,0 km/h (0 Bft)
12.10.2019 00:15 7,2 °C 87 % 1017,9 hPa 0,0 mm 0,0 km/h (0 Bft) W-NW 302 ° 0 min 0,000 mm 0,0 UV-I 0 W/m² 5,2 °C 7,2 °C 0,0 km/h (0 Bft)
12.10.2019 00:16 7,3 °C 87 % 1017,8 hPa 0,0 mm 0,1 km/h (0 Bft) W-NW 302 ° 0 min 0,000 mm 0,0 UV-I 0 W/m² 5,3 °C 7,3 °C 1,6 km/h (1 Bft)
12.10.2019 00:17 7,3 °C 86 % 1017,9 hPa 0,0 mm 0,0 km/h (0 Bft) W-NW 302 ° 0 min 0,000 mm 0,0 UV-I 0 W/m² 5,1 °C 7,3 °C 0,0 km/h (0 Bft)
12.10.2019 00:18 7,3 °C 86 % 1017,9 hPa 0,0 mm 0,0 km/h (0 Bft) W-NW 302 ° 0 min 0,000 mm 0,0 UV-I 0 W/m² 5,1 °C 7,3 °C 0,0 km/h (0 Bft)
12.10.2019 00:19 7,4 °C 87 % 1017,9 hPa 0,0 mm 0,0 km/h (0 Bft) W-NW 302 ° 0 min 0,000 mm 0,0 UV-I 0 W/m² 5,4 °C 7,4 °C 0,0 km/h (0 Bft)
12.10.2019 00:20 7,5 °C 87 % 1017,8 hPa 0,0 mm 0,0 km/h (0 Bft) W-NW 302 ° 0 min 0,000 mm 0,0 UV-I 0 W/m² 5,5 °C 7,5 °C 0,0 km/h (0 Bft)
12.10.2019 00:21 7,6 °C 87 % 1017,9 hPa 0,0 mm 0,0 km/h (0 Bft) W-NW 302 ° 0 min 0,000 mm 0,0 UV-I 0 W/m² 5,6 °C 7,6 °C 0,0 km/h (0 Bft)
12.10.2019 00:22 7,6 °C 87 % 1017,9 hPa 0,0 mm 0,0 km/h (0 Bft) W-NW 302 ° 0 min 0,000 mm 0,0 UV-I 0 W/m² 5,6 °C 7,6 °C 0,0 km/h (0 Bft)
12.10.2019 00:23 7,7 °C 86 % 1017,9 hPa 0,0 mm 0,0 km/h (0 Bft) W-NW 302 ° 0 min 0,000 mm 0,0 UV-I 0 W/m² 5,5 °C 7,7 °C 0,0 km/h (0 Bft)
12.10.2019 00:24 7,7 °C 86 % 1017,8 hPa 0,0 mm 0,0 km/h (0 Bft) W-NW 302 ° 0 min 0,000 mm 0,0 UV-I 0 W/m² 5,5 °C 7,7 °C 0,0 km/h (0 Bft)
12.10.2019 00:25 7,7 °C 86 % 1017,8 hPa 0,0 mm 0,0 km/h (0 Bft) W-NW 302 ° 0 min 0,000 mm 0,0 UV-I 0 W/m² 5,5 °C 7,7 °C 0,0 km/h (0 Bft)
12.10.2019 00:26 7,7 °C 85 % 1017,8 hPa 0,0 mm 0,0 km/h (0 Bft) W-NW 302 ° 0 min 0,000 mm 0,0 UV-I 0 W/m² 5,3 °C 7,7 °C 0,0 km/h (0 Bft)
12.10.2019 00:27 7,7 °C 85 % 1017,8 hPa 0,0 mm 0,0 km/h (0 Bft) W-NW 302 ° 0 min 0,000 mm 0,0 UV-I 0 W/m² 5,3 °C 7,7 °C 0,0 km/h (0 Bft)
12.10.2019 00:28 7,7 °C 85 % 1017,8 hPa 0,0 mm 0,0 km/h (0 Bft) W-NW 302 ° 0 min 0,000 mm 0,0 UV-I 0 W/m² 5,3 °C 7,7 °C 0,0 km/h (0 Bft)
12.10.2019 00:29 7,6 °C 85 % 1017,8 hPa 0,0 mm 0,0 km/h (0 Bft) W-NW 302 ° 0 min 0,000 mm 0,0 UV-I 0 W/m² 5,2 °C 7,6 °C 0,0 km/h (0 Bft)
12.10.2019 00:30 7,4 °C 85 % 1017,8 hPa 0,0 mm 0,0 km/h (0 Bft) W-NW 302 ° 0 min 0,000 mm 0,0 UV-I 0 W/m² 5,0 °C 7,4 °C 0,0 km/h (0 Bft)
12.10.2019 00:31 7,3 °C 85 % 1017,8 hPa 0,0 mm 0,0 km/h (0 Bft) W-NW 302 ° 0 min 0,000 mm 0,0 UV-I 0 W/m² 4,9 °C 7,3 °C 0,0 km/h (0 Bft)
12.10.2019 00:32 7,2 °C 85 % 1017,8 hPa 0,0 mm 0,0 km/h (0 Bft) W-NW 302 ° 0 min 0,000 mm 0,0 UV-I 0 W/m² 4,9 °C 7,2 °C 0,0 km/h (0 Bft)
12.10.2019 00:33 7,2 °C 85 % 1017,9 hPa 0,0 mm 0,0 km/h (0 Bft) W-NW 302 ° 0 min 0,000 mm 0,0 UV-I 0 W/m² 4,9 °C 7,2 °C 0,0 km/h (0 Bft)
12.10.2019 00:34 7,2 °C 85 % 1017,9 hPa 0,0 mm 0,0 km/h (0 Bft) W-NW 302 ° 0 min 0,000 mm 0,0 UV-I 0 W/m² 4,9 °C 7,2 °C 0,0 km/h (0 Bft)
12.10.2019 00:35 7,1 °C 85 % 1017,9 hPa 0,0 mm 0,0 km/h (0 Bft) W-NW 302 ° 0 min 0,000 mm 0,0 UV-I 0 W/m² 4,8 °C 7,1 °C 0,0 km/h (0 Bft)
12.10.2019 00:36 7,1 °C 85 % 1017,9 hPa 0,0 mm 0,0 km/h (0 Bft) W-NW 302 ° 0 min 0,000 mm 0,0 UV-I 0 W/m² 4,8 °C 7,1 °C 0,0 km/h (0 Bft)
12.10.2019 00:37 6,9 °C 85 % 1017,9 hPa 0,0 mm 0,0 km/h (0 Bft) W-NW 302 ° 0 min 0,000 mm 0,0 UV-I 0 W/m² 4,6 °C 6,9 °C 0,0 km/h (0 Bft)
12.10.2019 00:38 6,9 °C 85 % 1017,8 hPa 0,0 mm 0,0 km/h (0 Bft) W-NW 302 ° 0 min 0,000 mm 0,0 UV-I 0 W/m² 4,6 °C 6,9 °C 0,0 km/h (0 Bft)
12.10.2019 00:39 6,8 °C 85 % 1017,8 hPa 0,0 mm 0,0 km/h (0 Bft) W-NW 302 ° 0 min 0,000 mm 0,0 UV-I 0 W/m² 4,5 °C 6,8 °C 0,0 km/h (0 Bft)
12.10.2019 00:40 6,8 °C 85 % 1017,8 hPa 0,0 mm 0,0 km/h (0 Bft) W-NW 302 ° 0 min 0,000 mm 0,0 UV-I 0 W/m² 4,5 °C 6,8 °C 0,0 km/h (0 Bft)
12.10.2019 00:41 6,8 °C 86 % 1017,8 hPa 0,0 mm 0,0 km/h (0 Bft) W-NW 302 ° 0 min 0,000 mm 0,0 UV-I 0 W/m² 4,6 °C 6,8 °C 0,0 km/h (0 Bft)
12.10.2019 00:42 6,8 °C 86 % 1017,9 hPa 0,0 mm 0,0 km/h (0 Bft) W-NW 302 ° 0 min 0,000 mm 0,0 UV-I 0 W/m² 4,6 °C 6,8 °C 0,0 km/h (0 Bft)
12.10.2019 00:43 6,8 °C 87 % 1017,8 hPa 0,0 mm 0,0 km/h (0 Bft) W-NW 302 ° 0 min 0,000 mm 0,0 UV-I 0 W/m² 4,8 °C 6,8 °C 0,0 km/h (0 Bft)
12.10.2019 00:44 6,8 °C 87 % 1017,8 hPa 0,0 mm 3,1 km/h (1 Bft) W-NW 302 ° 0 min 0,000 mm 0,0 UV-I 0 W/m² 4,8 °C 6,8 °C 4,8 km/h (1 Bft)
12.10.2019 00:45 6,7 °C 86 % 1017,8 hPa 0,0 mm 4,4 km/h (1 Bft) W-NW 292 ° 0 min 0,000 mm 0,0 UV-I 0 W/m² 4,5 °C 6,7 °C 6,4 km/h (2 Bft)
12.10.2019 00:46 6,7 °C 86 % 1017,9 hPa 0,0 mm 0,7 km/h (0 Bft) W-NW 294 ° 0 min 0,000 mm 0,0 UV-I 0 W/m² 4,5 °C 6,7 °C 3,2 km/h (1 Bft)
12.10.2019 00:47 6,6 °C 86 % 1017,8 hPa 0,0 mm 1,7 km/h (1 Bft) W-NW 294 ° 0 min 0,000 mm 0,0 UV-I 0 W/m² 4,4 °C 6,6 °C 3,2 km/h (1 Bft)
12.10.2019 00:48 6,6 °C 86 % 1017,8 hPa 0,0 mm 0,0 km/h (0 Bft) W-NW 294 ° 0 min 0,000 mm 0,0 UV-I 0 W/m² 4,4 °C 6,6 °C 0,0 km/h (0 Bft)
12.10.2019 00:49 6,6 °C 86 % 1017,8 hPa 0,0 mm 0,0 km/h (0 Bft) W-NW 294 ° 0 min 0,000 mm 0,0 UV-I 0 W/m² 4,4 °C 6,6 °C 0,0 km/h (0 Bft)
12.10.2019 00:50 6,4 °C 86 % 1017,9 hPa 0,0 mm 0,0 km/h (0 Bft) W-NW 294 ° 0 min 0,000 mm 0,0 UV-I 0 W/m² 4,2 °C 6,4 °C 0,0 km/h (0 Bft)
12.10.2019 00:51 6,4 °C 87 % 1017,8 hPa 0,0 mm 0,5 km/h (0 Bft) W-NW 293 ° 0 min 0,000 mm 0,0 UV-I 0 W/m² 4,4 °C 6,4 °C 4,8 km/h (1 Bft)
12.10.2019 00:52 6,3 °C 87 % 1017,7 hPa 0,0 mm 2,0 km/h (1 Bft) W-NW 293 ° 0 min 0,000 mm 0,0 UV-I 0 W/m² 4,3 °C 6,3 °C 4,8 km/h (1 Bft)
12.10.2019 00:53 6,2 °C 86 % 1017,7 hPa 0,0 mm 1,8 km/h (1 Bft) W-NW 293 ° 0 min 0,000 mm 0,0 UV-I 0 W/m² 4,0 °C 6,2 °C 4,8 km/h (1 Bft)
12.10.2019 00:54 6,2 °C 87 % 1017,9 hPa 0,0 mm 6,5 km/h (2 Bft) W-NW 286 ° 0 min 0,000 mm 0,0 UV-I 0 W/m² 4,2 °C 4,9 °C 9,7 km/h (2 Bft)
12.10.2019 00:55 6,2 °C 87 % 1018,0 hPa 0,0 mm 3,6 km/h (1 Bft) W-NW 286 ° 0 min 0,000 mm 0,0 UV-I 0 W/m² 4,2 °C 6,2 °C 6,4 km/h (2 Bft)
12.10.2019 00:56 6,1 °C 87 % 1017,9 hPa 0,0 mm 1,9 km/h (1 Bft) W-NW 288 ° 0 min 0,000 mm 0,0 UV-I 0 W/m² 4,1 °C 6,1 °C 4,8 km/h (1 Bft)
12.10.2019 00:57 6,2 °C 88 % 1017,8 hPa 0,0 mm 3,7 km/h (1 Bft) W-NW 286 ° 0 min 0,000 mm 0,0 UV-I 0 W/m² 4,4 °C 6,2 °C 4,8 km/h (1 Bft)
12.10.2019 00:58 6,2 °C 88 % 1017,8 hPa 0,0 mm 1,5 km/h (1 Bft) W-NW 286 ° 0 min 0,000 mm 0,0 UV-I 0 W/m² 4,4 °C 6,2 °C 3,2 km/h (1 Bft)
12.10.2019 00:59 6,2 °C 88 % 1017,8 hPa 0,0 mm 0,0 km/h (0 Bft) W-NW 286 ° 0 min 0,000 mm 0,0 UV-I 0 W/m² 4,4 °C 6,2 °C 0,0 km/h (0 Bft)
12.10.2019 01:00 6,3 °C 88 % 1017,8 hPa 0,0 mm 0,0 km/h (0 Bft) W-NW 286 ° 0 min 0,000 mm 0,0 UV-I 0 W/m² 4,5 °C 6,3 °C 0,0 km/h (0 Bft)
12.10.2019 01:01 6,2 °C 88 % 1017,8 hPa 0,0 mm 1,7 km/h (1 Bft) W-NW 294 ° 0 min 0,000 mm 0,0 UV-I 0 W/m² 4,4 °C 6,2 °C 4,8 km/h (1 Bft)
12.10.2019 01:02 6,2 °C 88 % 1017,9 hPa 0,0 mm 0,2 km/h (0 Bft) W-NW 294 ° 0 min 0,000 mm 0,0 UV-I 0 W/m² 4,4 °C 6,2 °C 1,6 km/h (1 Bft)
12.10.2019 01:03 6,2 °C 88 % 1017,8 hPa 0,0 mm 0,0 km/h (0 Bft) W-NW 294 ° 0 min 0,000 mm 0,0 UV-I 0 W/m² 4,4 °C 6,2 °C 0,0 km/h (0 Bft)
12.10.2019 01:04 6,2 °C 88 % 1017,8 hPa 0,0 mm 0,0 km/h (0 Bft) W-NW 294 ° 0 min 0,000 mm 0,0 UV-I 0 W/m² 4,4 °C 6,2 °C 0,0 km/h (0 Bft)
12.10.2019 01:05 6,2 °C 88 % 1017,8 hPa 0,0 mm 0,0 km/h (0 Bft) W-NW 294 ° 0 min 0,000 mm 0,0 UV-I 0 W/m² 4,4 °C 6,2 °C 0,0 km/h (0 Bft)
12.10.2019 01:06 6,3 °C 88 % 1017,8 hPa 0,0 mm 0,0 km/h (0 Bft) W-NW 294 ° 0 min 0,000 mm 0,0 UV-I 0 W/m² 4,5 °C 6,3 °C 0,0 km/h (0 Bft)
12.10.2019 01:07 6,3 °C 88 % 1017,7 hPa 0,0 mm 0,0 km/h (0 Bft) W-NW 294 ° 0 min 0,000 mm 0,0 UV-I 0 W/m² 4,5 °C 6,3 °C 0,0 km/h (0 Bft)
12.10.2019 01:08 6,4 °C 88 % 1017,8 hPa 0,0 mm 0,0 km/h (0 Bft) W-NW 294 ° 0 min 0,000 mm 0,0 UV-I 0 W/m² 4,6 °C 6,4 °C 0,0 km/h (0 Bft)
12.10.2019 01:09 6,4 °C 88 % 1017,8 hPa 0,0 mm 0,0 km/h (0 Bft) W-NW 294 ° 0 min 0,000 mm 0,0 UV-I 0 W/m² 4,6 °C 6,4 °C 0,0 km/h (0 Bft)
12.10.2019 01:10 6,4 °C 88 % 1017,8 hPa 0,0 mm 0,0 km/h (0 Bft) W-NW 294 ° 0 min 0,000 mm 0,0 UV-I 0 W/m² 4,6 °C 6,4 °C 0,0 km/h (0 Bft)
12.10.2019 01:11 6,4 °C 88 % 1017,8 hPa 0,0 mm 0,0 km/h (0 Bft) W-NW 294 ° 0 min 0,000 mm 0,0 UV-I 0 W/m² 4,6 °C 6,4 °C 0,0 km/h (0 Bft)
12.10.2019 01:12 6,4 °C 87 % 1017,8 hPa 0,0 mm 0,0 km/h (0 Bft) W-NW 294 ° 0 min 0,000 mm 0,0 UV-I 0 W/m² 4,4 °C 6,4 °C 0,0 km/h (0 Bft)
12.10.2019 01:13 6,4 °C 88 % 1017,8 hPa 0,0 mm 0,0 km/h (0 Bft) W-NW 294 ° 0 min 0,000 mm 0,0 UV-I 0 W/m² 4,6 °C 6,4 °C 0,0 km/h (0 Bft)
12.10.2019 01:14 6,4 °C 88 % 1017,8 hPa 0,0 mm 0,0 km/h (0 Bft) W-NW 294 ° 0 min 0,000 mm 0,0 UV-I 0 W/m² 4,6 °C 6,4 °C 0,0 km/h (0 Bft)
12.10.2019 01:15 6,5 °C 88 % 1017,8 hPa 0,0 mm 0,0 km/h (0 Bft) W-NW 294 ° 0 min 0,000 mm 0,0 UV-I 0 W/m² 4,7 °C 6,5 °C 0,0 km/h (0 Bft)
12.10.2019 01:16 6,6 °C 88 % 1017,8 hPa 0,0 mm 0,0 km/h (0 Bft) W-NW 294 ° 0 min 0,000 mm 0,0 UV-I 0 W/m² 4,8 °C 6,6 °C 0,0 km/h (0 Bft)
12.10.2019 01:17 6,7 °C 88 % 1017,8 hPa 0,0 mm 0,0 km/h (0 Bft) W-NW 294 ° 0 min 0,000 mm 0,0 UV-I 0 W/m² 4,9 °C 6,7 °C 0,0 km/h (0 Bft)
12.10.2019 01:18 6,7 °C 86 % 1017,9 hPa 0,0 mm 0,0 km/h (0 Bft) W-NW 294 ° 0 min 0,000 mm 0,0 UV-I 0 W/m² 4,5 °C 6,7 °C 0,0 km/h (0 Bft)
12.10.2019 01:19 6,6 °C 86 % 1017,9 hPa 0,0 mm 0,0 km/h (0 Bft) W-NW 294 ° 0 min 0,000 mm 0,0 UV-I 0 W/m² 4,4 °C 6,6 °C 0,0 km/h (0 Bft)
12.10.2019 01:20 6,6 °C 86 % 1017,9 hPa 0,0 mm 0,0 km/h (0 Bft) W-NW 294 ° 0 min 0,000 mm 0,0 UV-I 0 W/m² 4,4 °C 6,6 °C 0,0 km/h (0 Bft)
12.10.2019 01:21 6,4 °C 86 % 1017,9 hPa 0,0 mm 0,0 km/h (0 Bft) W-NW 294 ° 0 min 0,000 mm 0,0 UV-I 0 W/m² 4,2 °C 6,4 °C 0,0 km/h (0 Bft)
12.10.2019 01:22 6,4 °C 86 % 1017,9 hPa 0,0 mm 0,0 km/h (0 Bft) W-NW 294 ° 0 min 0,000 mm 0,0 UV-I 0 W/m² 4,2 °C 6,4 °C 0,0 km/h (0 Bft)
12.10.2019 01:23 6,3 °C 87 % 1018,0 hPa 0,0 mm 0,8 km/h (0 Bft) W-NW 292 ° 0 min 0,000 mm 0,0 UV-I 0 W/m² 4,3 °C 6,3 °C 4,8 km/h (1 Bft)
12.10.2019 01:24 6,2 °C 86 % 1018,0 hPa 0,0 mm 3,9 km/h (1 Bft) W-NW 292 ° 0 min 0,000 mm 0,0 UV-I 0 W/m² 4,0 °C 6,2 °C 4,8 km/h (1 Bft)
12.10.2019 01:25 6,2 °C 87 % 1017,9 hPa 0,0 mm 4,4 km/h (1 Bft) W 261 ° 0 min 0,000 mm 0,0 UV-I 0 W/m² 4,2 °C 6,2 °C 6,4 km/h (2 Bft)
12.10.2019 01:26 6,2 °C 87 % 1017,9 hPa 0,0 mm 4,6 km/h (1 Bft) W 261 ° 0 min 0,000 mm 0,0 UV-I 0 W/m² 4,2 °C 5,6 °C 6,4 km/h (2 Bft)
12.10.2019 01:27 6,2 °C 87 % 1017,9 hPa 0,0 mm 2,0 km/h (1 Bft) W 261 ° 0 min 0,000 mm 0,0 UV-I 0 W/m² 4,2 °C 6,2 °C 4,8 km/h (1 Bft)
12.10.2019 01:28 6,2 °C 87 % 1017,9 hPa 0,0 mm 5,1 km/h (1 Bft) W 259 ° 0 min 0,000 mm 0,0 UV-I 0 W/m² 4,2 °C 5,4 °C 6,4 km/h (2 Bft)
12.10.2019 01:29 6,2 °C 87 % 1017,9 hPa 0,0 mm 5,5 km/h (1 Bft) W-SW 255 ° 0 min 0,000 mm 0,0 UV-I 0 W/m² 4,2 °C 5,3 °C 8,0 km/h (2 Bft)
12.10.2019 01:30 6,2 °C 87 % 1017,9 hPa 0,0 mm 3,8 km/h (1 Bft) W-SW 254 ° 0 min 0,000 mm 0,0 UV-I 0 W/m² 4,2 °C 6,2 °C 6,4 km/h (2 Bft)
12.10.2019 01:31 6,2 °C 87 % 1017,9 hPa 0,0 mm 0,9 km/h (0 Bft) W-SW 254 ° 0 min 0,000 mm 0,0 UV-I 0 W/m² 4,2 °C 6,2 °C 1,6 km/h (1 Bft)
12.10.2019 01:32 6,2 °C 87 % 1017,9 hPa 0,0 mm 1,7 km/h (1 Bft) W-SW 255 ° 0 min 0,000 mm 0,0 UV-I 0 W/m² 4,2 °C 6,2 °C 4,8 km/h (1 Bft)
12.10.2019 01:33 6,2 °C 87 % 1018,0 hPa 0,0 mm 5,0 km/h (1 Bft) W 273 ° 0 min 0,000 mm 0,0 UV-I 0 W/m² 4,2 °C 5,4 °C 11,3 km/h (2 Bft)
12.10.2019 01:34 6,1 °C 88 % 1018,1 hPa 0,0 mm 12,0 km/h (2 Bft) W 259 ° 0 min 0,000 mm 0,0 UV-I 0 W/m² 4,3 °C 3,6 °C 12,9 km/h (3 Bft)
12.10.2019 01:35 6,2 °C 88 % 1018,1 hPa 0,0 mm 6,1 km/h (2 Bft) W 270 ° 0 min 0,000 mm 0,0 UV-I 0 W/m² 4,4 °C 5,1 °C 11,3 km/h (2 Bft)
12.10.2019 01:36 6,4 °C 88 % 1018,0 hPa 0,0 mm 4,4 km/h (1 Bft) W 267 ° 0 min 0,000 mm 0,0 UV-I 0 W/m² 4,6 °C 6,4 °C 6,4 km/h (2 Bft)
12.10.2019 01:37 6,4 °C 88 % 1018,0 hPa 0,0 mm 5,4 km/h (1 Bft) W 261 ° 0 min 0,000 mm 0,0 UV-I 0 W/m² 4,6 °C 5,5 °C 6,4 km/h (2 Bft)
12.10.2019 01:38 6,4 °C 88 % 1018,0 hPa 0,0 mm 8,9 km/h (2 Bft) W 277 ° 0 min 0,000 mm 0,0 UV-I 0 W/m² 4,6 °C 4,6 °C 9,7 km/h (2 Bft)
12.10.2019 01:39 6,5 °C 87 % 1018,0 hPa 0,0 mm 6,8 km/h (2 Bft) W 269 ° 0 min 0,000 mm 0,0 UV-I 0 W/m² 4,5 °C 5,2 °C 11,3 km/h (2 Bft)
12.10.2019 01:40 6,4 °C 87 % 1018,0 hPa 0,0 mm 2,7 km/h (1 Bft) W 269 ° 0 min 0,000 mm 0,0 UV-I 0 W/m² 4,4 °C 6,4 °C 6,4 km/h (2 Bft)
12.10.2019 01:41 6,4 °C 88 % 1017,9 hPa 0,0 mm 5,7 km/h (1 Bft) W 268 ° 0 min 0,000 mm 0,0 UV-I 0 W/m² 4,6 °C 5,4 °C 9,7 km/h (2 Bft)
12.10.2019 01:42 6,6 °C 88 % 1018,0 hPa 0,0 mm 5,8 km/h (2 Bft) W 269 ° 0 min 0,000 mm 0,0 UV-I 0 W/m² 4,8 °C 5,6 °C 9,7 km/h (2 Bft)
12.10.2019 01:43 6,6 °C 87 % 1018,1 hPa 0,0 mm 6,4 km/h (2 Bft) W-NW 286 ° 0 min 0,000 mm 0,0 UV-I 0 W/m² 4,6 °C 5,4 °C 9,7 km/h (2 Bft)
12.10.2019 01:44 6,7 °C 87 % 1018,1 hPa 0,0 mm 6,6 km/h (2 Bft) W 275 ° 0 min 0,000 mm 0,0 UV-I 0 W/m² 4,7 °C 5,5 °C 11,3 km/h (2 Bft)
12.10.2019 01:45 6,7 °C 87 % 1018,1 hPa 0,0 mm 2,5 km/h (1 Bft) W 275 ° 0 min 0,000 mm 0,0 UV-I 0 W/m² 4,7 °C 6,7 °C 4,8 km/h (1 Bft)
12.10.2019 01:46 6,7 °C 86 % 1018,1 hPa 0,0 mm 0,7 km/h (0 Bft) W 275 ° 0 min 0,000 mm 0,0 UV-I 0 W/m² 4,5 °C 6,7 °C 3,2 km/h (1 Bft)
12.10.2019 01:47 6,6 °C 87 % 1018,0 hPa 0,0 mm 0,0 km/h (0 Bft) W 275 ° 0 min 0,000 mm 0,0 UV-I 0 W/m² 4,6 °C 6,6 °C 0,0 km/h (0 Bft)
12.10.2019 01:48 6,6 °C 87 % 1018,1 hPa 0,0 mm 0,0 km/h (0 Bft) W 275 ° 0 min 0,000 mm 0,0 UV-I 0 W/m² 4,6 °C 6,6 °C 0,0 km/h (0 Bft)
12.10.2019 01:49 6,6 °C 87 % 1018,0 hPa 0,0 mm 0,4 km/h (0 Bft) W 275 ° 0 min 0,000 mm 0,0 UV-I 0 W/m² 4,6 °C 6,6 °C 3,2 km/h (1 Bft)
12.10.2019 01:50 6,6 °C 87 % 1018,0 hPa 0,0 mm 0,2 km/h (0 Bft) W 275 ° 0 min 0,000 mm 0,0 UV-I 0 W/m² 4,6 °C 6,6 °C 1,6 km/h (1 Bft)
12.10.2019 01:51 6,6 °C 87 % 1018,0 hPa 0,0 mm 0,0 km/h (0 Bft) W 275 ° 0 min 0,000 mm 0,0 UV-I 0 W/m² 4,6 °C 6,6 °C 0,0 km/h (0 Bft)
12.10.2019 01:52 6,6 °C 88 % 1018,0 hPa 0,0 mm 0,0 km/h (0 Bft) W 275 ° 0 min 0,000 mm 0,0 UV-I 0 W/m² 4,8 °C 6,6 °C 0,0 km/h (0 Bft)
12.10.2019 01:53 6,5 °C 88 % 1018,0 hPa 0,0 mm 0,0 km/h (0 Bft) W 275 ° 0 min 0,000 mm 0,0 UV-I 0 W/m² 4,7 °C 6,5 °C 0,0 km/h (0 Bft)
12.10.2019 01:54 6,5 °C 88 % 1018,0 hPa 0,0 mm 0,4 km/h (0 Bft) W 274 ° 0 min 0,000 mm 0,0 UV-I 0 W/m² 4,7 °C 6,5 °C 1,6 km/h (1 Bft)
12.10.2019 01:55 6,6 °C 87 % 1017,9 hPa 0,0 mm 1,8 km/h (1 Bft) W 274 ° 0 min 0,000 mm 0,0 UV-I 0 W/m² 4,6 °C 6,6 °C 3,2 km/h (1 Bft)
12.10.2019 01:56 6,6 °C 88 % 1017,9 hPa 0,0 mm 0,0 km/h (0 Bft) W 274 ° 0 min 0,000 mm 0,0 UV-I 0 W/m² 4,8 °C 6,6 °C 0,0 km/h (0 Bft)
12.10.2019 01:57 6,6 °C 87 % 1017,9 hPa 0,0 mm 0,0 km/h (0 Bft) W 274 ° 0 min 0,000 mm 0,0 UV-I 0 W/m² 4,6 °C 6,6 °C 0,0 km/h (0 Bft)
12.10.2019 01:58 6,6 °C 87 % 1018,0 hPa 0,0 mm 0,0 km/h (0 Bft) W 274 ° 0 min 0,000 mm 0,0 UV-I 0 W/m² 4,6 °C 6,6 °C 0,0 km/h (0 Bft)
12.10.2019 01:59 6,6 °C 86 % 1018,0 hPa 0,0 mm 0,0 km/h (0 Bft) W 274 ° 0 min 0,000 mm 0,0 UV-I 0 W/m² 4,4 °C 6,6 °C 0,0 km/h (0 Bft)
12.10.2019 02:00 6,6 °C 86 % 1018,0 hPa 0,0 mm 0,0 km/h (0 Bft) W 274 ° 0 min 0,000 mm 0,0 UV-I 0 W/m² 4,4 °C 6,6 °C 0,0 km/h (0 Bft)
12.10.2019 02:01 6,6 °C 86 % 1017,9 hPa 0,0 mm 0,0 km/h (0 Bft) W 274 ° 0 min 0,000 mm 0,0 UV-I 0 W/m² 4,4 °C 6,6 °C 0,0 km/h (0 Bft)
12.10.2019 02:02 6,6 °C 86 % 1018,0 hPa 0,0 mm 0,0 km/h (0 Bft) W 274 ° 0 min 0,000 mm 0,0 UV-I 0 W/m² 4,4 °C 6,6 °C 0,0 km/h (0 Bft)
12.10.2019 02:03 6,4 °C 86 % 1017,9 hPa 0,0 mm 0,0 km/h (0 Bft) W 274 ° 0 min 0,000 mm 0,0 UV-I 0 W/m² 4,2 °C 6,4 °C 0,0 km/h (0 Bft)
12.10.2019 02:04 6,4 °C 86 % 1017,9 hPa 0,0 mm 0,0 km/h (0 Bft) W 274 ° 0 min 0,000 mm 0,0 UV-I 0 W/m² 4,2 °C 6,4 °C 0,0 km/h (0 Bft)
12.10.2019 02:05 6,4 °C 86 % 1017,9 hPa 0,0 mm 0,0 km/h (0 Bft) W 274 ° 0 min 0,000 mm 0,0 UV-I 0 W/m² 4,2 °C 6,4 °C 0,0 km/h (0 Bft)
12.10.2019 02:06 6,4 °C 87 % 1018,0 hPa 0,0 mm 0,0 km/h (0 Bft) W 274 ° 0 min 0,000 mm 0,0 UV-I 0 W/m² 4,4 °C 6,4 °C 0,0 km/h (0 Bft)
12.10.2019 02:07 6,4 °C 87 % 1017,9 hPa 0,0 mm 0,0 km/h (0 Bft) W 274 ° 0 min 0,000 mm 0,0 UV-I 0 W/m² 4,4 °C 6,4 °C 0,0 km/h (0 Bft)
12.10.2019 02:08 6,4 °C 87 % 1017,9 hPa 0,0 mm 0,0 km/h (0 Bft) W 274 ° 0 min 0,000 mm 0,0 UV-I 0 W/m² 4,4 °C 6,4 °C 0,0 km/h (0 Bft)
12.10.2019 02:09 6,4 °C 87 % 1017,9 hPa 0,0 mm 0,0 km/h (0 Bft) W 274 ° 0 min 0,000 mm 0,0 UV-I 0 W/m² 4,4 °C 6,4 °C 0,0 km/h (0 Bft)
12.10.2019 02:10 6,4 °C 87 % 1017,9 hPa 0,0 mm 0,0 km/h (0 Bft) W 274 ° 0 min 0,000 mm 0,0 UV-I 0 W/m² 4,4 °C 6,4 °C 0,0 km/h (0 Bft)
12.10.2019 02:11 6,4 °C 87 % 1017,9 hPa 0,0 mm 0,0 km/h (0 Bft) W 274 ° 0 min 0,000 mm 0,0 UV-I 0 W/m² 4,4 °C 6,4 °C 0,0 km/h (0 Bft)
12.10.2019 02:12 6,4 °C 87 % 1018,0 hPa 0,0 mm 0,0 km/h (0 Bft) W 274 ° 0 min 0,000 mm 0,0 UV-I 0 W/m² 4,4 °C 6,4 °C 0,0 km/h (0 Bft)
12.10.2019 02:13 6,4 °C 87 % 1017,9 hPa 0,0 mm 0,0 km/h (0 Bft) W 274 ° 0 min 0,000 mm 0,0 UV-I 0 W/m² 4,4 °C 6,4 °C 0,0 km/h (0 Bft)
12.10.2019 02:14 6,4 °C 87 % 1017,9 hPa 0,0 mm 0,0 km/h (0 Bft) W 274 ° 0 min 0,000 mm 0,0 UV-I 0 W/m² 4,4 °C 6,4 °C 0,0 km/h (0 Bft)
12.10.2019 02:15 6,4 °C 87 % 1017,9 hPa 0,0 mm 0,0 km/h (0 Bft) W 274 ° 0 min 0,000 mm 0,0 UV-I 0 W/m² 4,4 °C 6,4 °C 0,0 km/h (0 Bft)
12.10.2019 02:16 6,4 °C 87 % 1017,9 hPa 0,0 mm 0,0 km/h (0 Bft) W 274 ° 0 min 0,000 mm 0,0 UV-I 0 W/m² 4,4 °C 6,4 °C 0,0 km/h (0 Bft)
12.10.2019 02:17 6,5 °C 87 % 1017,9 hPa 0,0 mm 0,0 km/h (0 Bft) W 274 ° 0 min 0,000 mm 0,0 UV-I 0 W/m² 4,5 °C 6,5 °C 0,0 km/h (0 Bft)
12.10.2019 02:18 6,6 °C 87 % 1017,9 hPa 0,0 mm 0,0 km/h (0 Bft) W 274 ° 0 min 0,000 mm 0,0 UV-I 0 W/m² 4,6 °C 6,6 °C 0,0 km/h (0 Bft)
12.10.2019 02:19 6,7 °C 87 % 1017,8 hPa 0,0 mm 0,0 km/h (0 Bft) W 274 ° 0 min 0,000 mm 0,0 UV-I 0 W/m² 4,7 °C 6,7 °C 0,0 km/h (0 Bft)
12.10.2019 02:20 6,8 °C 86 % 1017,8 hPa 0,0 mm 0,0 km/h (0 Bft) W 274 ° 0 min 0,000 mm 0,0 UV-I 0 W/m² 4,6 °C 6,8 °C 0,0 km/h (0 Bft)
12.10.2019 02:21 6,8 °C 87 % 1017,9 hPa 0,0 mm 0,0 km/h (0 Bft) W 274 ° 0 min 0,000 mm 0,0 UV-I 0 W/m² 4,8 °C 6,8 °C 0,0 km/h (0 Bft)
12.10.2019 02:22 6,9 °C 86 % 1017,9 hPa 0,0 mm 0,0 km/h (0 Bft) W 274 ° 0 min 0,000 mm 0,0 UV-I 0 W/m² 4,7 °C 6,9 °C 0,0 km/h (0 Bft)
12.10.2019 02:23 7,0 °C 86 % 1017,9 hPa 0,0 mm 0,0 km/h (0 Bft) W 274 ° 0 min 0,000 mm 0,0 UV-I 0 W/m² 4,8 °C 7,0 °C 0,0 km/h (0 Bft)
12.10.2019 02:24 7,1 °C 85 % 1017,9 hPa 0,0 mm 0,0 km/h (0 Bft) W 274 ° 0 min 0,000 mm 0,0 UV-I 0 W/m² 4,8 °C 7,1 °C 0,0 km/h (0 Bft)
12.10.2019 02:25 7,2 °C 85 % 1017,8 hPa 0,0 mm 0,0 km/h (0 Bft) W 274 ° 0 min 0,000 mm 0,0 UV-I 0 W/m² 4,9 °C 7,2 °C 0,0 km/h (0 Bft)
12.10.2019 02:26 7,2 °C 85 % 1017,9 hPa 0,0 mm 0,0 km/h (0 Bft) W 274 ° 0 min 0,000 mm 0,0 UV-I 0 W/m² 4,9 °C 7,2 °C 0,0 km/h (0 Bft)
12.10.2019 02:27 7,3 °C 84 % 1017,8 hPa 0,0 mm 0,0 km/h (0 Bft) W 274 ° 0 min 0,000 mm 0,0 UV-I 0 W/m² 4,8 °C 7,3 °C 0,0 km/h (0 Bft)
12.10.2019 02:28 7,3 °C 83 % 1017,8 hPa 0,0 mm 0,0 km/h (0 Bft) W 274 ° 0 min 0,000 mm 0,0 UV-I 0 W/m² 4,6 °C 7,3 °C 0,0 km/h (0 Bft)
12.10.2019 02:29 7,4 °C 83 % 1017,8 hPa 0,0 mm 0,0 km/h (0 Bft) W 274 ° 0 min 0,000 mm 0,0 UV-I 0 W/m² 4,7 °C 7,4 °C 0,0 km/h (0 Bft)
12.10.2019 02:30 7,4 °C 83 % 1017,9 hPa 0,0 mm 0,0 km/h (0 Bft) W 274 ° 0 min 0,000 mm 0,0 UV-I 0 W/m² 4,7 °C 7,4 °C 0,0 km/h (0 Bft)
12.10.2019 02:31 7,4 °C 83 % 1017,9 hPa 0,0 mm 0,0 km/h (0 Bft) W 274 ° 0 min 0,000 mm 0,0 UV-I 0 W/m² 4,7 °C 7,4 °C 0,0 km/h (0 Bft)
12.10.2019 02:32 7,4 °C 83 % 1017,9 hPa 0,0 mm 0,0 km/h (0 Bft) W 274 ° 0 min 0,000 mm 0,0 UV-I 0 W/m² 4,7 °C 7,4 °C 0,0 km/h (0 Bft)
12.10.2019 02:33 7,5 °C 83 % 1017,9 hPa 0,0 mm 0,0 km/h (0 Bft) W 274 ° 0 min 0,000 mm 0,0 UV-I 0 W/m² 4,8 °C 7,5 °C 0,0 km/h (0 Bft)
12.10.2019 02:34 7,6 °C 83 % 1017,9 hPa 0,0 mm 0,0 km/h (0 Bft) W 274 ° 0 min 0,000 mm 0,0 UV-I 0 W/m² 4,9 °C 7,6 °C 0,0 km/h (0 Bft)
12.10.2019 02:35 7,5 °C 83 % 1017,9 hPa 0,0 mm 0,0 km/h (0 Bft) W 274 ° 0 min 0,000 mm 0,0 UV-I 0 W/m² 4,8 °C 7,5 °C 0,0 km/h (0 Bft)
12.10.2019 02:36 7,4 °C 83 % 1017,9 hPa 0,0 mm 0,0 km/h (0 Bft) W 274 ° 0 min 0,000 mm 0,0 UV-I 0 W/m² 4,7 °C 7,4 °C 0,0 km/h (0 Bft)
12.10.2019 02:37 7,4 °C 83 % 1017,8 hPa 0,0 mm 0,0 km/h (0 Bft) W 274 ° 0 min 0,000 mm 0,0 UV-I 0 W/m² 4,7 °C 7,4 °C 0,0 km/h (0 Bft)
12.10.2019 02:38 7,4 °C 83 % 1017,8 hPa 0,0 mm 0,0 km/h (0 Bft) W 274 ° 0 min 0,000 mm 0,0 UV-I 0 W/m² 4,7 °C 7,4 °C 0,0 km/h (0 Bft)
12.10.2019 02:39 7,4 °C 83 % 1017,8 hPa 0,0 mm 0,0 km/h (0 Bft) W 274 ° 0 min 0,000 mm 0,0 UV-I 0 W/m² 4,7 °C 7,4 °C 0,0 km/h (0 Bft)
12.10.2019 02:40 7,4 °C 82 % 1017,8 hPa 0,0 mm 0,0 km/h (0 Bft) W 274 ° 0 min 0,000 mm 0,0 UV-I 0 W/m² 4,5 °C 7,4 °C 0,0 km/h (0 Bft)
12.10.2019 02:41 7,4 °C 83 % 1017,8 hPa 0,0 mm 0,0 km/h (0 Bft) W 274 ° 0 min 0,000 mm 0,0 UV-I 0 W/m² 4,7 °C 7,4 °C 0,0 km/h (0 Bft)
12.10.2019 02:42 7,4 °C 82 % 1017,8 hPa 0,0 mm 0,0 km/h (0 Bft) W 274 ° 0 min 0,000 mm 0,0 UV-I 0 W/m² 4,5 °C 7,4 °C 0,0 km/h (0 Bft)
12.10.2019 02:43 7,4 °C 83 % 1017,7 hPa 0,0 mm 0,0 km/h (0 Bft) W 274 ° 0 min 0,000 mm 0,0 UV-I 0 W/m² 4,7 °C 7,4 °C 0,0 km/h (0 Bft)
12.10.2019 02:44 7,4 °C 83 % 1017,7 hPa 0,0 mm 0,0 km/h (0 Bft) W 274 ° 0 min 0,000 mm 0,0 UV-I 0 W/m² 4,7 °C 7,4 °C 0,0 km/h (0 Bft)
12.10.2019 02:45 7,4 °C 82 % 1017,7 hPa 0,0 mm 0,0 km/h (0 Bft) W 274 ° 0 min 0,000 mm 0,0 UV-I 0 W/m² 4,5 °C 7,4 °C 0,0 km/h (0 Bft)
12.10.2019 02:46 7,3 °C 83 % 1017,7 hPa 0,0 mm 0,0 km/h (0 Bft) W-NW 288 ° 0 min 0,000 mm 0,0 UV-I 0 W/m² 4,6 °C 7,3 °C 0,0 km/h (0 Bft)
12.10.2019 02:47 7,3 °C 83 % 1017,6 hPa 0,0 mm 0,3 km/h (0 Bft) W-NW 296 ° 0 min 0,000 mm 0,0 UV-I 0 W/m² 4,6 °C 7,3 °C 3,2 km/h (1 Bft)
12.10.2019 02:48 7,2 °C 83 % 1017,6 hPa 0,0 mm 4,8 km/h (1 Bft) W-NW 297 ° 0 min 0,000 mm 0,0 UV-I 0 W/m² 4,5 °C 6,7 °C 6,4 km/h (2 Bft)
12.10.2019 02:49 7,3 °C 83 % 1017,6 hPa 0,0 mm 2,3 km/h (1 Bft) W-NW 296 ° 0 min 0,000 mm 0,0 UV-I 0 W/m² 4,6 °C 7,3 °C 4,8 km/h (1 Bft)
12.10.2019 02:50 7,2 °C 83 % 1017,7 hPa 0,0 mm 0,3 km/h (0 Bft) W-NW 296 ° 0 min 0,000 mm 0,0 UV-I 0 W/m² 4,5 °C 7,2 °C 1,6 km/h (1 Bft)
12.10.2019 02:51 7,2 °C 83 % 1017,7 hPa 0,0 mm 0,1 km/h (0 Bft) W-NW 296 ° 0 min 0,000 mm 0,0 UV-I 0 W/m² 4,5 °C 7,2 °C 1,6 km/h (1 Bft)
12.10.2019 02:52 7,1 °C 84 % 1017,7 hPa 0,0 mm 0,0 km/h (0 Bft) W-NW 296 ° 0 min 0,000 mm 0,0 UV-I 0 W/m² 4,6 °C 7,1 °C 0,0 km/h (0 Bft)
12.10.2019 02:53 6,9 °C 84 % 1017,7 hPa 0,0 mm 2,8 km/h (1 Bft) W-NW 299 ° 0 min 0,000 mm 0,0 UV-I 0 W/m² 4,4 °C 6,9 °C 4,8 km/h (1 Bft)
12.10.2019 02:54 6,9 °C 84 % 1017,7 hPa 0,0 mm 2,4 km/h (1 Bft) W-NW 299 ° 0 min 0,000 mm 0,0 UV-I 0 W/m² 4,4 °C 6,9 °C 4,8 km/h (1 Bft)
12.10.2019 02:55 6,7 °C 84 % 1017,7 hPa 0,0 mm 1,6 km/h (1 Bft) W-NW 300 ° 0 min 0,000 mm 0,0 UV-I 0 W/m² 4,2 °C 6,7 °C 4,8 km/h (1 Bft)
12.10.2019 02:56 6,6 °C 84 % 1017,7 hPa 0,0 mm 0,0 km/h (0 Bft) W-NW 299 ° 0 min 0,000 mm 0,0 UV-I 0 W/m² 4,1 °C 6,6 °C 0,0 km/h (0 Bft)
12.10.2019 02:57 6,6 °C 84 % 1017,8 hPa 0,0 mm 0,0 km/h (0 Bft) W-NW 299 ° 0 min 0,000 mm 0,0 UV-I 0 W/m² 4,1 °C 6,6 °C 0,0 km/h (0 Bft)
12.10.2019 02:58 6,5 °C 84 % 1017,8 hPa 0,0 mm 0,0 km/h (0 Bft) W-NW 299 ° 0 min 0,000 mm 0,0 UV-I 0 W/m² 4,0 °C 6,5 °C 0,0 km/h (0 Bft)
12.10.2019 02:59 6,4 °C 84 % 1017,7 hPa 0,0 mm 0,0 km/h (0 Bft) W-NW 299 ° 0 min 0,000 mm 0,0 UV-I 0 W/m² 3,9 °C 6,4 °C 0,0 km/h (0 Bft)
12.10.2019 03:00 6,5 °C 84 % 1017,8 hPa 0,0 mm 0,0 km/h (0 Bft) W-NW 299 ° 0 min 0,000 mm 0,0 UV-I 0 W/m² 4,0 °C 6,5 °C 0,0 km/h (0 Bft)
12.10.2019 03:01 6,4 °C 84 % 1017,7 hPa 0,0 mm 0,0 km/h (0 Bft) W-NW 299 ° 0 min 0,000 mm 0,0 UV-I 0 W/m² 3,9 °C 6,4 °C 0,0 km/h (0 Bft)
12.10.2019 03:02 6,4 °C 84 % 1017,7 hPa 0,0 mm 0,0 km/h (0 Bft) W-NW 299 ° 0 min 0,000 mm 0,0 UV-I 0 W/m² 3,9 °C 6,4 °C 0,0 km/h (0 Bft)
12.10.2019 03:03 6,3 °C 84 % 1017,7 hPa 0,0 mm 0,0 km/h (0 Bft) W-NW 299 ° 0 min 0,000 mm 0,0 UV-I 0 W/m² 3,8 °C 6,3 °C 0,0 km/h (0 Bft)
12.10.2019 03:04 6,3 °C 84 % 1017,7 hPa 0,0 mm 0,0 km/h (0 Bft) W-NW 299 ° 0 min 0,000 mm 0,0 UV-I 0 W/m² 3,8 °C 6,3 °C 0,0 km/h (0 Bft)
12.10.2019 03:05 6,2 °C 84 % 1017,7 hPa 0,0 mm 0,0 km/h (0 Bft) W-NW 299 ° 0 min 0,000 mm 0,0 UV-I 0 W/m² 3,7 °C 6,2 °C 0,0 km/h (0 Bft)
12.10.2019 03:06 6,2 °C 84 % 1017,7 hPa 0,0 mm 0,0 km/h (0 Bft) W-NW 299 ° 0 min 0,000 mm 0,0 UV-I 0 W/m² 3,7 °C 6,2 °C 0,0 km/h (0 Bft)
12.10.2019 03:07 6,1 °C 85 % 1017,7 hPa 0,0 mm 0,0 km/h (0 Bft) W-NW 299 ° 0 min 0,000 mm 0,0 UV-I 0 W/m² 3,8 °C 6,1 °C 0,0 km/h (0 Bft)
12.10.2019 03:08 6,1 °C 85 % 1017,7 hPa 0,0 mm 0,0 km/h (0 Bft) W-NW 299 ° 0 min 0,000 mm 0,0 UV-I 0 W/m² 3,8 °C 6,1 °C 0,0 km/h (0 Bft)
12.10.2019 03:09 5,9 °C 85 % 1017,8 hPa 0,0 mm 0,0 km/h (0 Bft) W-NW 299 ° 0 min 0,000 mm 0,0 UV-I 0 W/m² 3,6 °C 5,9 °C 0,0 km/h (0 Bft)
12.10.2019 03:10 5,9 °C 86 % 1017,8 hPa 0,0 mm 0,0 km/h (0 Bft) W-NW 299 ° 0 min 0,000 mm 0,0 UV-I 0 W/m² 3,7 °C 5,9 °C 0,0 km/h (0 Bft)
12.10.2019 03:11 5,8 °C 86 % 1017,7 hPa 0,0 mm 0,0 km/h (0 Bft) W-NW 299 ° 0 min 0,000 mm 0,0 UV-I 0 W/m² 3,6 °C 5,8 °C 0,0 km/h (0 Bft)
12.10.2019 03:12 5,7 °C 86 % 1017,7 hPa 0,0 mm 0,1 km/h (0 Bft) W-NW 300 ° 0 min 0,000 mm 0,0 UV-I 0 W/m² 3,5 °C 5,7 °C 1,6 km/h (1 Bft)
12.10.2019 03:13 5,6 °C 86 % 1017,7 hPa 0,0 mm 0,0 km/h (0 Bft) W-NW 300 ° 0 min 0,000 mm 0,0 UV-I 0 W/m² 3,4 °C 5,6 °C 0,0 km/h (0 Bft)
12.10.2019 03:14 5,6 °C 87 % 1017,6 hPa 0,0 mm 0,0 km/h (0 Bft) W-NW 300 ° 0 min 0,000 mm 0,0 UV-I 0 W/m² 3,6 °C 5,6 °C 0,0 km/h (0 Bft)
12.10.2019 03:15 5,6 °C 87 % 1017,6 hPa 0,0 mm 0,0 km/h (0 Bft) W-NW 300 ° 0 min 0,000 mm 0,0 UV-I 0 W/m² 3,6 °C 5,6 °C 0,0 km/h (0 Bft)
12.10.2019 03:16 5,5 °C 87 % 1017,6 hPa 0,0 mm 0,0 km/h (0 Bft) W-NW 300 ° 0 min 0,000 mm 0,0 UV-I 0 W/m² 3,5 °C 5,5 °C 0,0 km/h (0 Bft)
12.10.2019 03:17 5,6 °C 87 % 1017,7 hPa 0,0 mm 0,0 km/h (0 Bft) W-NW 300 ° 0 min 0,000 mm 0,0 UV-I 0 W/m² 3,6 °C 5,6 °C 0,0 km/h (0 Bft)
12.10.2019 03:18 5,6 °C 87 % 1017,6 hPa 0,0 mm 0,0 km/h (0 Bft) W-NW 300 ° 0 min 0,000 mm 0,0 UV-I 0 W/m² 3,6 °C 5,6 °C 0,0 km/h (0 Bft)
12.10.2019 03:19 5,5 °C 87 % 1017,7 hPa 0,0 mm 0,0 km/h (0 Bft) W-NW 300 ° 0 min 0,000 mm 0,0 UV-I 0 W/m² 3,5 °C 5,5 °C 0,0 km/h (0 Bft)
12.10.2019 03:20 5,5 °C 87 % 1017,6 hPa 0,0 mm 0,0 km/h (0 Bft) W-NW 300 ° 0 min 0,000 mm 0,0 UV-I 0 W/m² 3,5 °C 5,5 °C 0,0 km/h (0 Bft)
12.10.2019 03:21 5,4 °C 87 % 1017,6 hPa 0,0 mm 0,0 km/h (0 Bft) W-NW 300 ° 0 min 0,000 mm 0,0 UV-I 0 W/m² 3,4 °C 5,4 °C 0,0 km/h (0 Bft)
12.10.2019 03:22 5,4 °C 87 % 1017,7 hPa 0,0 mm 0,0 km/h (0 Bft) W-NW 300 ° 0 min 0,000 mm 0,0 UV-I 0 W/m² 3,4 °C 5,4 °C 0,0 km/h (0 Bft)
12.10.2019 03:23 5,3 °C 87 % 1017,7 hPa 0,0 mm 0,0 km/h (0 Bft) W-NW 299 ° 0 min 0,000 mm 0,0 UV-I 0 W/m² 3,3 °C 5,3 °C 0,0 km/h (0 Bft)
12.10.2019 03:24 5,2 °C 88 % 1017,7 hPa 0,0 mm 0,0 km/h (0 Bft) W-NW 300 ° 0 min 0,000 mm 0,0 UV-I 0 W/m² 3,4 °C 5,2 °C 0,0 km/h (0 Bft)
12.10.2019 03:25 5,2 °C 88 % 1017,7 hPa 0,0 mm 0,0 km/h (0 Bft) W-NW 300 ° 0 min 0,000 mm 0,0 UV-I 0 W/m² 3,4 °C 5,2 °C 0,0 km/h (0 Bft)
12.10.2019 03:26 5,2 °C 88 % 1017,6 hPa 0,0 mm 0,0 km/h (0 Bft) W-NW 300 ° 0 min 0,000 mm 0,0 UV-I 0 W/m² 3,4 °C 5,2 °C 0,0 km/h (0 Bft)
12.10.2019 03:27 5,2 °C 88 % 1017,6 hPa 0,0 mm 0,0 km/h (0 Bft) W-NW 300 ° 0 min 0,000 mm 0,0 UV-I 0 W/m² 3,4 °C 5,2 °C 0,0 km/h (0 Bft)
12.10.2019 03:28 5,1 °C 88 % 1017,6 hPa 0,0 mm 0,0 km/h (0 Bft) W-NW 300 ° 0 min 0,000 mm 0,0 UV-I 0 W/m² 3,3 °C 5,1 °C 0,0 km/h (0 Bft)
12.10.2019 03:29 5,1 °C 88 % 1017,6 hPa 0,0 mm 0,0 km/h (0 Bft) W-NW 300 ° 0 min 0,000 mm 0,0 UV-I 0 W/m² 3,3 °C 5,1 °C 0,0 km/h (0 Bft)
12.10.2019 03:30 5,1 °C 89 % 1017,6 hPa 0,0 mm 0,0 km/h (0 Bft) W-NW 300 ° 0 min 0,000 mm 0,0 UV-I 0 W/m² 3,4 °C 5,1 °C 0,0 km/h (0 Bft)
12.10.2019 03:31 5,0 °C 89 % 1017,6 hPa 0,0 mm 0,0 km/h (0 Bft) W-NW 299 ° 0 min 0,000 mm 0,0 UV-I 0 W/m² 3,3 °C 5,0 °C 0,0 km/h (0 Bft)
12.10.2019 03:32 5,0 °C 89 % 1017,5 hPa 0,0 mm 0,0 km/h (0 Bft) W-NW 300 ° 0 min 0,000 mm 0,0 UV-I 0 W/m² 3,3 °C 5,0 °C 0,0 km/h (0 Bft)
12.10.2019 03:33 5,0 °C 89 % 1017,5 hPa 0,0 mm 0,0 km/h (0 Bft) W-NW 300 ° 0 min 0,000 mm 0,0 UV-I 0 W/m² 3,3 °C 5,0 °C 0,0 km/h (0 Bft)
12.10.2019 03:34 4,9 °C 89 % 1017,6 hPa 0,0 mm 0,0 km/h (0 Bft) W-NW 300 ° 0 min 0,000 mm 0,0 UV-I 0 W/m² 3,2 °C 4,9 °C 0,0 km/h (0 Bft)
12.10.2019 03:35 4,9 °C 89 % 1017,6 hPa 0,0 mm 0,0 km/h (0 Bft) W-NW 300 ° 0 min 0,000 mm 0,0 UV-I 0 W/m² 3,2 °C 4,9 °C 0,0 km/h (0 Bft)
12.10.2019 03:36 4,8 °C 89 % 1017,6 hPa 0,0 mm 0,0 km/h (0 Bft) W-NW 300 ° 0 min 0,000 mm 0,0 UV-I 0 W/m² 3,1 °C 4,8 °C 0,0 km/h (0 Bft)
12.10.2019 03:37 4,8 °C 89 % 1017,6 hPa 0,0 mm 0,0 km/h (0 Bft) W-NW 300 ° 0 min 0,000 mm 0,0 UV-I 0 W/m² 3,1 °C 4,8 °C 0,0 km/h (0 Bft)
12.10.2019 03:38 4,8 °C 90 % 1017,6 hPa 0,0 mm 0,0 km/h (0 Bft) W-NW 300 ° 0 min 0,000 mm 0,0 UV-I 0 W/m² 3,3 °C 4,8 °C 0,0 km/h (0 Bft)
12.10.2019 03:39 4,8 °C 90 % 1017,6 hPa 0,0 mm 0,0 km/h (0 Bft) W-NW 300 ° 0 min 0,000 mm 0,0 UV-I 0 W/m² 3,3 °C 4,8 °C 0,0 km/h (0 Bft)
12.10.2019 03:40 4,8 °C 90 % 1017,7 hPa 0,0 mm 0,0 km/h (0 Bft) W-NW 300 ° 0 min 0,000 mm 0,0 UV-I 0 W/m² 3,3 °C 4,8 °C 0,0 km/h (0 Bft)
12.10.2019 03:41 4,8 °C 90 % 1017,6 hPa 0,0 mm 0,0 km/h (0 Bft) W-NW 300 ° 0 min 0,000 mm 0,0 UV-I 0 W/m² 3,3 °C 4,8 °C 0,0 km/h (0 Bft)
12.10.2019 03:42 4,9 °C 90 % 1017,6 hPa 0,0 mm 0,0 km/h (0 Bft) W-NW 300 ° 0 min 0,000 mm 0,0 UV-I 0 W/m² 3,4 °C 4,9 °C 0,0 km/h (0 Bft)
12.10.2019 03:43 4,9 °C 90 % 1017,6 hPa 0,0 mm 0,0 km/h (0 Bft) W-NW 300 ° 0 min 0,000 mm 0,0 UV-I 0 W/m² 3,4 °C 4,9 °C 0,0 km/h (0 Bft)
12.10.2019 03:44 4,9 °C 90 % 1017,7 hPa 0,0 mm 0,0 km/h (0 Bft) W-NW 299 ° 0 min 0,000 mm 0,0 UV-I 0 W/m² 3,4 °C 4,9 °C 0,0 km/h (0 Bft)
12.10.2019 03:45 4,9 °C 90 % 1017,7 hPa 0,0 mm 0,0 km/h (0 Bft) W-NW 300 ° 0 min 0,000 mm 0,0 UV-I 0 W/m² 3,4 °C 4,9 °C 0,0 km/h (0 Bft)
12.10.2019 03:46 4,9 °C 90 % 1017,6 hPa 0,0 mm 0,0 km/h (0 Bft) W-NW 300 ° 0 min 0,000 mm 0,0 UV-I 0 W/m² 3,4 °C 4,9 °C 0,0 km/h (0 Bft)
12.10.2019 03:47 4,9 °C 90 % 1017,7 hPa 0,0 mm 0,0 km/h (0 Bft) W-NW 300 ° 0 min 0,000 mm 0,0 UV-I 0 W/m² 3,4 °C 4,9 °C 0,0 km/h (0 Bft)
12.10.2019 03:48 4,8 °C 89 % 1017,7 hPa 0,0 mm 0,0 km/h (0 Bft) W-NW 300 ° 0 min 0,000 mm 0,0 UV-I 0 W/m² 3,1 °C 4,8 °C 0,0 km/h (0 Bft)
12.10.2019 03:49 4,8 °C 89 % 1017,7 hPa 0,0 mm 0,0 km/h (0 Bft) W-NW 300 ° 0 min 0,000 mm 0,0 UV-I 0 W/m² 3,1 °C 4,8 °C 0,0 km/h (0 Bft)
12.10.2019 03:50 4,7 °C 89 % 1017,7 hPa 0,0 mm 0,0 km/h (0 Bft) W-NW 300 ° 0 min 0,000 mm 0,0 UV-I 0 W/m² 3,0 °C 4,7 °C 0,0 km/h (0 Bft)
12.10.2019 03:51 4,7 °C 89 % 1017,7 hPa 0,0 mm 0,3 km/h (0 Bft) W-NW 299 ° 0 min 0,000 mm 0,0 UV-I 0 W/m² 3,0 °C 4,7 °C 1,6 km/h (1 Bft)
12.10.2019 03:52 4,7 °C 90 % 1017,7 hPa 0,0 mm 0,0 km/h (0 Bft) W-NW 299 ° 0 min 0,000 mm 0,0 UV-I 0 W/m² 3,2 °C 4,7 °C 0,0 km/h (0 Bft)
12.10.2019 03:53 4,7 °C 90 % 1017,7 hPa 0,0 mm 0,0 km/h (0 Bft) W-NW 300 ° 0 min 0,000 mm 0,0 UV-I 0 W/m² 3,2 °C 4,7 °C 0,0 km/h (0 Bft)
12.10.2019 03:54 4,7 °C 89 % 1017,7 hPa 0,0 mm 0,0 km/h (0 Bft) W-NW 299 ° 0 min 0,000 mm 0,0 UV-I 0 W/m² 3,0 °C 4,7 °C 0,0 km/h (0 Bft)
12.10.2019 03:55 4,6 °C 90 % 1017,7 hPa 0,0 mm 0,5 km/h (0 Bft) W-NW 300 ° 0 min 0,000 mm 0,0 UV-I 0 W/m² 3,1 °C 4,6 °C 1,6 km/h (1 Bft)
12.10.2019 03:56 4,6 °C 90 % 1017,7 hPa 0,0 mm 0,0 km/h (0 Bft) W-NW 300 ° 0 min 0,000 mm 0,0 UV-I 0 W/m² 3,1 °C 4,6 °C 0,0 km/h (0 Bft)
12.10.2019 03:57 4,6 °C 90 % 1017,7 hPa 0,0 mm 0,0 km/h (0 Bft) W-NW 299 ° 0 min 0,000 mm 0,0 UV-I 0 W/m² 3,1 °C 4,6 °C 0,0 km/h (0 Bft)
12.10.2019 03:58 4,6 °C 90 % 1017,7 hPa 0,0 mm 0,0 km/h (0 Bft) W-NW 299 ° 0 min 0,000 mm 0,0 UV-I 0 W/m² 3,1 °C 4,6 °C 0,0 km/h (0 Bft)
12.10.2019 03:59 4,6 °C 90 % 1017,7 hPa 0,0 mm 0,0 km/h (0 Bft) W-NW 300 ° 0 min 0,000 mm 0,0 UV-I 0 W/m² 3,1 °C 4,6 °C 0,0 km/h (0 Bft)
12.10.2019 04:00 4,6 °C 90 % 1017,7 hPa 0,0 mm 0,0 km/h (0 Bft) W-NW 300 ° 0 min 0,000 mm 0,0 UV-I 0 W/m² 3,1 °C 4,6 °C 0,0 km/h (0 Bft)
12.10.2019 04:01 4,6 °C 90 % 1017,7 hPa 0,0 mm 0,0 km/h (0 Bft) W-NW 300 ° 0 min 0,000 mm 0,0 UV-I 0 W/m² 3,1 °C 4,6 °C 0,0 km/h (0 Bft)
12.10.2019 04:02 4,6 °C 90 % 1017,7 hPa 0,0 mm 0,0 km/h (0 Bft) W-NW 300 ° 0 min 0,000 mm 0,0 UV-I 0 W/m² 3,1 °C 4,6 °C 0,0 km/h (0 Bft)
12.10.2019 04:03 4,6 °C 91 % 1017,7 hPa 0,0 mm 0,0 km/h (0 Bft) W-NW 299 ° 0 min 0,000 mm 0,0 UV-I 0 W/m² 3,3 °C 4,6 °C 0,0 km/h (0 Bft)
12.10.2019 04:04 4,7 °C 91 % 1017,7 hPa 0,0 mm 0,0 km/h (0 Bft) W-NW 300 ° 0 min 0,000 mm 0,0 UV-I 0 W/m² 3,4 °C 4,7 °C 0,0 km/h (0 Bft)
12.10.2019 04:05 4,7 °C 91 % 1017,7 hPa 0,0 mm 0,0 km/h (0 Bft) W-NW 300 ° 0 min 0,000 mm 0,0 UV-I 0 W/m² 3,4 °C 4,7 °C 0,0 km/h (0 Bft)
12.10.2019 04:06 4,8 °C 90 % 1017,7 hPa 0,0 mm 0,0 km/h (0 Bft) W-NW 300 ° 0 min 0,000 mm 0,0 UV-I 0 W/m² 3,3 °C 4,8 °C 0,0 km/h (0 Bft)
12.10.2019 04:07 4,7 °C 90 % 1017,7 hPa 0,0 mm 0,0 km/h (0 Bft) W-NW 300 ° 0 min 0,000 mm 0,0 UV-I 0 W/m² 3,2 °C 4,7 °C 0,0 km/h (0 Bft)
12.10.2019 04:08 4,7 °C 90 % 1017,8 hPa 0,0 mm 0,0 km/h (0 Bft) W-NW 300 ° 0 min 0,000 mm 0,0 UV-I 0 W/m² 3,2 °C 4,7 °C 0,0 km/h (0 Bft)
12.10.2019 04:09 4,7 °C 90 % 1017,7 hPa 0,0 mm 0,0 km/h (0 Bft) W-NW 300 ° 0 min 0,000 mm 0,0 UV-I 0 W/m² 3,2 °C 4,7 °C 0,0 km/h (0 Bft)
12.10.2019 04:10 4,7 °C 90 % 1017,8 hPa 0,0 mm 0,0 km/h (0 Bft) W-NW 300 ° 0 min 0,000 mm 0,0 UV-I 0 W/m² 3,2 °C 4,7 °C 0,0 km/h (0 Bft)
12.10.2019 04:11 4,7 °C 90 % 1017,8 hPa 0,0 mm 0,0 km/h (0 Bft) W-NW 299 ° 0 min 0,000 mm 0,0 UV-I 0 W/m² 3,2 °C 4,7 °C 0,0 km/h (0 Bft)
12.10.2019 04:12 4,7 °C 90 % 1017,8 hPa 0,0 mm 0,0 km/h (0 Bft) W-NW 300 ° 0 min 0,000 mm 0,0 UV-I 0 W/m² 3,2 °C 4,7 °C 0,0 km/h (0 Bft)
12.10.2019 04:13 4,6 °C 90 % 1017,7 hPa 0,0 mm 0,0 km/h (0 Bft) W-NW 299 ° 0 min 0,000 mm 0,0 UV-I 0 W/m² 3,1 °C 4,6 °C 0,0 km/h (0 Bft)
12.10.2019 04:14 4,6 °C 90 % 1017,8 hPa 0,0 mm 0,0 km/h (0 Bft) W-NW 299 ° 0 min 0,000 mm 0,0 UV-I 0 W/m² 3,1 °C 4,6 °C 0,0 km/h (0 Bft)
12.10.2019 04:15 4,6 °C 90 % 1017,7 hPa 0,0 mm 0,0 km/h (0 Bft) W-NW 299 ° 0 min 0,000 mm 0,0 UV-I 0 W/m² 3,1 °C 4,6 °C 0,0 km/h (0 Bft)
12.10.2019 04:16 4,7 °C 90 % 1017,7 hPa 0,0 mm 0,0 km/h (0 Bft) W-NW 299 ° 0 min 0,000 mm 0,0 UV-I 0 W/m² 3,2 °C 4,7 °C 0,0 km/h (0 Bft)
12.10.2019 04:17 4,7 °C 90 % 1017,7 hPa 0,0 mm 0,0 km/h (0 Bft) W-NW 300 ° 0 min 0,000 mm 0,0 UV-I 0 W/m² 3,2 °C 4,7 °C 0,0 km/h (0 Bft)
12.10.2019 04:18 4,8 °C 90 % 1017,7 hPa 0,0 mm 0,0 km/h (0 Bft) W-NW 300 ° 0 min 0,000 mm 0,0 UV-I 0 W/m² 3,3 °C 4,8 °C 0,0 km/h (0 Bft)
12.10.2019 04:19 4,7 °C 90 % 1017,7 hPa 0,0 mm 0,0 km/h (0 Bft) W-NW 300 ° 0 min 0,000 mm 0,0 UV-I 0 W/m² 3,2 °C 4,7 °C 0,0 km/h (0 Bft)
12.10.2019 04:20 4,7 °C 90 % 1017,8 hPa 0,0 mm 0,0 km/h (0 Bft) W-NW 300 ° 0 min 0,000 mm 0,0 UV-I 0 W/m² 3,2 °C 4,7 °C 0,0 km/h (0 Bft)
12.10.2019 04:21 4,7 °C 90 % 1017,8 hPa 0,0 mm 0,0 km/h (0 Bft) W-NW 299 ° 0 min 0,000 mm 0,0 UV-I 0 W/m² 3,2 °C 4,7 °C 0,0 km/h (0 Bft)
12.10.2019 04:22 4,7 °C 90 % 1017,7 hPa 0,0 mm 0,0 km/h (0 Bft) W-NW 300 ° 0 min 0,000 mm 0,0 UV-I 0 W/m² 3,2 °C 4,7 °C 0,0 km/h (0 Bft)
12.10.2019 04:23 4,7 °C 90 % 1017,7 hPa 0,0 mm 0,0 km/h (0 Bft) W-NW 299 ° 0 min 0,000 mm 0,0 UV-I 0 W/m² 3,2 °C 4,7 °C 0,0 km/h (0 Bft)
12.10.2019 04:24 4,6 °C 90 % 1017,7 hPa 0,0 mm 0,0 km/h (0 Bft) W-NW 300 ° 0 min 0,000 mm 0,0 UV-I 0 W/m² 3,1 °C 4,6 °C 0,0 km/h (0 Bft)
12.10.2019 04:25 4,6 °C 90 % 1017,7 hPa 0,0 mm 0,0 km/h (0 Bft) W-NW 299 ° 0 min 0,000 mm 0,0 UV-I 0 W/m² 3,1 °C 4,6 °C 0,0 km/h (0 Bft)
12.10.2019 04:26 4,5 °C 90 % 1017,7 hPa 0,0 mm 0,0 km/h (0 Bft) W-NW 300 ° 0 min 0,000 mm 0,0 UV-I 0 W/m² 3,0 °C 4,5 °C 0,0 km/h (0 Bft)
12.10.2019 04:27 4,4 °C 90 % 1017,8 hPa 0,0 mm 0,0 km/h (0 Bft) W-NW 300 ° 0 min 0,000 mm 0,0 UV-I 0 W/m² 2,9 °C 4,4 °C 0,0 km/h (0 Bft)
12.10.2019 04:28 4,4 °C 90 % 1017,7 hPa 0,0 mm 0,0 km/h (0 Bft) W-NW 299 ° 0 min 0,000 mm 0,0 UV-I 0 W/m² 2,9 °C 4,4 °C 0,0 km/h (0 Bft)
12.10.2019 04:29 4,3 °C 90 % 1017,7 hPa 0,0 mm 0,0 km/h (0 Bft) W-NW 299 ° 0 min 0,000 mm 0,0 UV-I 0 W/m² 2,8 °C 4,3 °C 0,0 km/h (0 Bft)
12.10.2019 04:30 4,3 °C 90 % 1017,7 hPa 0,0 mm 0,0 km/h (0 Bft) W-NW 299 ° 0 min 0,000 mm 0,0 UV-I 0 W/m² 2,8 °C 4,3 °C 0,0 km/h (0 Bft)
12.10.2019 04:31 4,3 °C 90 % 1017,7 hPa 0,0 mm 0,0 km/h (0 Bft) W-NW 299 ° 0 min 0,000 mm 0,0 UV-I 0 W/m² 2,8 °C 4,3 °C 0,0 km/h (0 Bft)
12.10.2019 04:32 4,3 °C 90 % 1017,7 hPa 0,0 mm 0,0 km/h (0 Bft) W-NW 299 ° 0 min 0,000 mm 0,0 UV-I 0 W/m² 2,8 °C 4,3 °C 0,0 km/h (0 Bft)
12.10.2019 04:33 4,3 °C 91 % 1017,7 hPa 0,0 mm 0,0 km/h (0 Bft) W-NW 299 ° 0 min 0,000 mm 0,0 UV-I 0 W/m² 3,0 °C 4,3 °C 0,0 km/h (0 Bft)
12.10.2019 04:34 4,3 °C 91 % 1017,7 hPa 0,0 mm 0,0 km/h (0 Bft) W-NW 300 ° 0 min 0,000 mm 0,0 UV-I 0 W/m² 3,0 °C 4,3 °C 0,0 km/h (0 Bft)
12.10.2019 04:35 4,4 °C 91 % 1017,6 hPa 0,0 mm 0,0 km/h (0 Bft) W-NW 299 ° 0 min 0,000 mm 0,0 UV-I 0 W/m² 3,1 °C 4,4 °C 0,0 km/h (0 Bft)
12.10.2019 04:36 4,4 °C 91 % 1017,7 hPa 0,0 mm 0,0 km/h (0 Bft) W-NW 299 ° 0 min 0,000 mm 0,0 UV-I 0 W/m² 3,1 °C 4,4 °C 0,0 km/h (0 Bft)
12.10.2019 04:37 4,5 °C 91 % 1017,6 hPa 0,0 mm 0,0 km/h (0 Bft) W-NW 300 ° 0 min 0,000 mm 0,0 UV-I 0 W/m² 3,2 °C 4,5 °C 0,0 km/h (0 Bft)
12.10.2019 04:38 4,4 °C 90 % 1017,7 hPa 0,0 mm 0,9 km/h (0 Bft) W-NW 299 ° 0 min 0,000 mm 0,0 UV-I 0 W/m² 2,9 °C 4,4 °C 3,2 km/h (1 Bft)
12.10.2019 04:39 4,3 °C 90 % 1017,6 hPa 0,0 mm 0,0 km/h (0 Bft) W-NW 299 ° 0 min 0,000 mm 0,0 UV-I 0 W/m² 2,8 °C 4,3 °C 0,0 km/h (0 Bft)
12.10.2019 04:40 4,2 °C 90 % 1017,6 hPa 0,0 mm 0,0 km/h (0 Bft) W-NW 299 ° 0 min 0,000 mm 0,0 UV-I 0 W/m² 2,7 °C 4,2 °C 0,0 km/h (0 Bft)
12.10.2019 04:41 4,2 °C 90 % 1017,7 hPa 0,0 mm 0,0 km/h (0 Bft) W-NW 299 ° 0 min 0,000 mm 0,0 UV-I 0 W/m² 2,7 °C 4,2 °C 0,0 km/h (0 Bft)
12.10.2019 04:42 4,3 °C 91 % 1017,7 hPa 0,0 mm 0,0 km/h (0 Bft) W-NW 299 ° 0 min 0,000 mm 0,0 UV-I 0 W/m² 3,0 °C 4,3 °C 0,0 km/h (0 Bft)
12.10.2019 04:43 4,3 °C 91 % 1017,7 hPa 0,0 mm 0,0 km/h (0 Bft) W-NW 300 ° 0 min 0,000 mm 0,0 UV-I 0 W/m² 3,0 °C 4,3 °C 0,0 km/h (0 Bft)
12.10.2019 04:44 4,4 °C 91 % 1017,6 hPa 0,0 mm 0,0 km/h (0 Bft) W-NW 300 ° 0 min 0,000 mm 0,0 UV-I 0 W/m² 3,1 °C 4,4 °C 0,0 km/h (0 Bft)
12.10.2019 04:45 4,4 °C 91 % 1017,7 hPa 0,0 mm 0,0 km/h (0 Bft) W-NW 300 ° 0 min 0,000 mm 0,0 UV-I 0 W/m² 3,1 °C 4,4 °C 0,0 km/h (0 Bft)
12.10.2019 04:46 4,4 °C 91 % 1017,6 hPa 0,0 mm 0,0 km/h (0 Bft) W-NW 299 ° 0 min 0,000 mm 0,0 UV-I 0 W/m² 3,1 °C 4,4 °C 0,0 km/h (0 Bft)
12.10.2019 04:47 4,4 °C 91 % 1017,7 hPa 0,0 mm 0,7 km/h (0 Bft) W-NW 300 ° 0 min 0,000 mm 0,0 UV-I 0 W/m² 3,1 °C 4,4 °C 3,2 km/h (1 Bft)
12.10.2019 04:48 4,3 °C 91 % 1017,7 hPa 0,0 mm 0,0 km/h (0 Bft) W-NW 300 ° 0 min 0,000 mm 0,0 UV-I 0 W/m² 3,0 °C 4,3 °C 0,0 km/h (0 Bft)
12.10.2019 04:49 4,3 °C 90 % 1017,6 hPa 0,0 mm 0,0 km/h (0 Bft) W-NW 300 ° 0 min 0,000 mm 0,0 UV-I 0 W/m² 2,8 °C 4,3 °C 0,0 km/h (0 Bft)
12.10.2019 04:50 4,3 °C 91 % 1017,6 hPa 0,0 mm 0,0 km/h (0 Bft) W-NW 300 ° 0 min 0,000 mm 0,0 UV-I 0 W/m² 3,0 °C 4,3 °C 0,0 km/h (0 Bft)
12.10.2019 04:51 4,2 °C 91 % 1017,6 hPa 0,0 mm 0,0 km/h (0 Bft) W-NW 300 ° 0 min 0,000 mm 0,0 UV-I 0 W/m² 2,9 °C 4,2 °C 0,0 km/h (0 Bft)
12.10.2019 04:52 4,2 °C 91 % 1017,6 hPa 0,0 mm 0,0 km/h (0 Bft) W-NW 300 ° 0 min 0,000 mm 0,0 UV-I 0 W/m² 2,9 °C 4,2 °C 0,0 km/h (0 Bft)
12.10.2019 04:53 4,1 °C 90 % 1017,6 hPa 0,0 mm 0,0 km/h (0 Bft) W-NW 300 ° 0 min 0,000 mm 0,0 UV-I 0 W/m² 2,6 °C 4,1 °C 0,0 km/h (0 Bft)
12.10.2019 04:54 4,1 °C 90 % 1017,6 hPa 0,0 mm 0,0 km/h (0 Bft) W-NW 300 ° 0 min 0,000 mm 0,0 UV-I 0 W/m² 2,6 °C 4,1 °C 0,0 km/h (0 Bft)
12.10.2019 04:55 4,1 °C 91 % 1017,6 hPa 0,0 mm 0,0 km/h (0 Bft) W-NW 300 ° 0 min 0,000 mm 0,0 UV-I 0 W/m² 2,8 °C 4,1 °C 0,0 km/h (0 Bft)
12.10.2019 04:56 4,1 °C 91 % 1017,6 hPa 0,0 mm 0,0 km/h (0 Bft) W-NW 300 ° 0 min 0,000 mm 0,0 UV-I 0 W/m² 2,8 °C 4,1 °C 0,0 km/h (0 Bft)
12.10.2019 04:57 4,1 °C 91 % 1017,6 hPa 0,0 mm 0,0 km/h (0 Bft) W-NW 300 ° 0 min 0,000 mm 0,0 UV-I 0 W/m² 2,8 °C 4,1 °C 0,0 km/h (0 Bft)
12.10.2019 04:58 4,2 °C 91 % 1017,6 hPa 0,0 mm 0,0 km/h (0 Bft) W-NW 300 ° 0 min 0,000 mm 0,0 UV-I 0 W/m² 2,9 °C 4,2 °C 0,0 km/h (0 Bft)
12.10.2019 04:59 4,2 °C 91 % 1017,6 hPa 0,0 mm 0,0 km/h (0 Bft) W-NW 300 ° 0 min 0,000 mm 0,0 UV-I 0 W/m² 2,9 °C 4,2 °C 0,0 km/h (0 Bft)
12.10.2019 05:00 4,2 °C 91 % 1017,6 hPa 0,0 mm 0,0 km/h (0 Bft) W-NW 300 ° 0 min 0,000 mm 0,0 UV-I 0 W/m² 2,9 °C 4,2 °C 0,0 km/h (0 Bft)
12.10.2019 05:01 4,2 °C 91 % 1017,6 hPa 0,0 mm 0,0 km/h (0 Bft) W-NW 300 ° 0 min 0,000 mm 0,0 UV-I 0 W/m² 2,9 °C 4,2 °C 0,0 km/h (0 Bft)
12.10.2019 05:02 4,3 °C 91 % 1017,6 hPa 0,0 mm 0,0 km/h (0 Bft) W-NW 300 ° 0 min 0,000 mm 0,0 UV-I 0 W/m² 3,0 °C 4,3 °C 0,0 km/h (0 Bft)
12.10.2019 05:03 4,2 °C 91 % 1017,6 hPa 0,0 mm 0,0 km/h (0 Bft) W-NW 300 ° 0 min 0,000 mm 0,0 UV-I 0 W/m² 2,9 °C 4,2 °C 0,0 km/h (0 Bft)
12.10.2019 05:04 4,2 °C 91 % 1017,5 hPa 0,0 mm 0,0 km/h (0 Bft) W-NW 300 ° 0 min 0,000 mm 0,0 UV-I 0 W/m² 2,9 °C 4,2 °C 0,0 km/h (0 Bft)
12.10.2019 05:05 4,2 °C 91 % 1017,5 hPa 0,0 mm 0,0 km/h (0 Bft) W-NW 300 ° 0 min 0,000 mm 0,0 UV-I 0 W/m² 2,9 °C 4,2 °C 0,0 km/h (0 Bft)
12.10.2019 05:06 4,2 °C 91 % 1017,5 hPa 0,0 mm 0,0 km/h (0 Bft) W-NW 300 ° 0 min 0,000 mm 0,0 UV-I 0 W/m² 2,9 °C 4,2 °C 0,0 km/h (0 Bft)
12.10.2019 05:07 4,2 °C 91 % 1017,5 hPa 0,0 mm 0,0 km/h (0 Bft) W-NW 300 ° 0 min 0,000 mm 0,0 UV-I 0 W/m² 2,9 °C 4,2 °C 0,0 km/h (0 Bft)
12.10.2019 05:08 4,2 °C 91 % 1017,5 hPa 0,0 mm 0,0 km/h (0 Bft) W-NW 300 ° 0 min 0,000 mm 0,0 UV-I 0 W/m² 2,9 °C 4,2 °C 0,0 km/h (0 Bft)
12.10.2019 05:09 4,2 °C 91 % 1017,5 hPa 0,0 mm 0,0 km/h (0 Bft) W-NW 300 ° 0 min 0,000 mm 0,0 UV-I 0 W/m² 2,9 °C 4,2 °C 0,0 km/h (0 Bft)
12.10.2019 05:10 4,2 °C 91 % 1017,6 hPa 0,0 mm 0,0 km/h (0 Bft) W-NW 300 ° 0 min 0,000 mm 0,0 UV-I 0 W/m² 2,9 °C 4,2 °C 0,0 km/h (0 Bft)
12.10.2019 05:11 4,2 °C 92 % 1017,6 hPa 0,0 mm 0,0 km/h (0 Bft) W-NW 300 ° 0 min 0,000 mm 0,0 UV-I 0 W/m² 3,0 °C 4,2 °C 0,0 km/h (0 Bft)
12.10.2019 05:12 4,2 °C 91 % 1017,6 hPa 0,0 mm 0,0 km/h (0 Bft) W-NW 300 ° 0 min 0,000 mm 0,0 UV-I 0 W/m² 2,9 °C 4,2 °C 0,0 km/h (0 Bft)
12.10.2019 05:13 4,3 °C 92 % 1017,6 hPa 0,0 mm 0,0 km/h (0 Bft) W-NW 300 ° 0 min 0,000 mm 0,0 UV-I 0 W/m² 3,1 °C 4,3 °C 0,0 km/h (0 Bft)
12.10.2019 05:14 4,2 °C 91 % 1017,6 hPa 0,0 mm 0,0 km/h (0 Bft) W-NW 300 ° 0 min 0,000 mm 0,0 UV-I 0 W/m² 2,9 °C 4,2 °C 0,0 km/h (0 Bft)
12.10.2019 05:15 4,2 °C 91 % 1017,5 hPa 0,0 mm 0,0 km/h (0 Bft) W-NW 300 ° 0 min 0,000 mm 0,0 UV-I 0 W/m² 2,9 °C 4,2 °C 0,0 km/h (0 Bft)
12.10.2019 05:16 4,3 °C 91 % 1017,5 hPa 0,0 mm 0,0 km/h (0 Bft) W-NW 300 ° 0 min 0,000 mm 0,0 UV-I 0 W/m² 3,0 °C 4,3 °C 0,0 km/h (0 Bft)
12.10.2019 05:17 4,3 °C 91 % 1017,5 hPa 0,0 mm 0,0 km/h (0 Bft) W-NW 300 ° 0 min 0,000 mm 0,0 UV-I 0 W/m² 3,0 °C 4,3 °C 0,0 km/h (0 Bft)
12.10.2019 05:18 4,3 °C 91 % 1017,5 hPa 0,0 mm 0,0 km/h (0 Bft) W-NW 300 ° 0 min 0,000 mm 0,0 UV-I 0 W/m² 3,0 °C 4,3 °C 0,0 km/h (0 Bft)
12.10.2019 05:19 4,3 °C 91 % 1017,6 hPa 0,0 mm 0,0 km/h (0 Bft) W-NW 300 ° 0 min 0,000 mm 0,0 UV-I 0 W/m² 3,0 °C 4,3 °C 0,0 km/h (0 Bft)
12.10.2019 05:20 4,3 °C 91 % 1017,6 hPa 0,0 mm 0,0 km/h (0 Bft) W-NW 300 ° 0 min 0,000 mm 0,0 UV-I 0 W/m² 3,0 °C 4,3 °C 0,0 km/h (0 Bft)
12.10.2019 05:21 4,3 °C 91 % 1017,6 hPa 0,0 mm 0,7 km/h (0 Bft) W-NW 300 ° 0 min 0,000 mm 0,0 UV-I 0 W/m² 3,0 °C 4,3 °C 4,8 km/h (1 Bft)
12.10.2019 05:22 4,3 °C 91 % 1017,5 hPa 0,0 mm 0,6 km/h (0 Bft) W-NW 300 ° 0 min 0,000 mm 0,0 UV-I 0 W/m² 3,0 °C 4,3 °C 3,2 km/h (1 Bft)
12.10.2019 05:23 4,3 °C 91 % 1017,5 hPa 0,0 mm 0,0 km/h (0 Bft) W-NW 300 ° 0 min 0,000 mm 0,0 UV-I 0 W/m² 3,0 °C 4,3 °C 0,0 km/h (0 Bft)
12.10.2019 05:24 4,4 °C 91 % 1017,6 hPa 0,0 mm 0,0 km/h (0 Bft) W-NW 300 ° 0 min 0,000 mm 0,0 UV-I 0 W/m² 3,1 °C 4,4 °C 0,0 km/h (0 Bft)
12.10.2019 05:25 4,4 °C 91 % 1017,6 hPa 0,0 mm 0,0 km/h (0 Bft) W-NW 300 ° 0 min 0,000 mm 0,0 UV-I 0 W/m² 3,1 °C 4,4 °C 0,0 km/h (0 Bft)
12.10.2019 05:26 4,4 °C 91 % 1017,6 hPa 0,0 mm 0,0 km/h (0 Bft) W-NW 300 ° 0 min 0,000 mm 0,0 UV-I 0 W/m² 3,1 °C 4,4 °C 0,0 km/h (0 Bft)
12.10.2019 05:27 4,4 °C 91 % 1017,6 hPa 0,0 mm 0,0 km/h (0 Bft) W-NW 300 ° 0 min 0,000 mm 0,0 UV-I 0 W/m² 3,1 °C 4,4 °C 0,0 km/h (0 Bft)
12.10.2019 05:28 4,5 °C 91 % 1017,5 hPa 0,0 mm 0,0 km/h (0 Bft) W-NW 302 ° 0 min 0,000 mm 0,0 UV-I 0 W/m² 3,2 °C 4,5 °C 0,0 km/h (0 Bft)
12.10.2019 05:29 4,6 °C 91 % 1017,5 hPa 0,0 mm 0,0 km/h (0 Bft) W-NW 302 ° 0 min 0,000 mm 0,0 UV-I 0 W/m² 3,3 °C 4,6 °C 0,0 km/h (0 Bft)
12.10.2019 05:30 4,7 °C 91 % 1017,5 hPa 0,0 mm 0,0 km/h (0 Bft) W-NW 302 ° 0 min 0,000 mm 0,0 UV-I 0 W/m² 3,4 °C 4,7 °C 0,0 km/h (0 Bft)
12.10.2019 05:31 4,8 °C 91 % 1017,5 hPa 0,0 mm 0,1 km/h (0 Bft) W-NW 302 ° 0 min 0,000 mm 0,0 UV-I 0 W/m² 3,5 °C 4,8 °C 1,6 km/h (1 Bft)
12.10.2019 05:32 4,9 °C 91 % 1017,6 hPa 0,0 mm 0,1 km/h (0 Bft) W-NW 302 ° 0 min 0,000 mm 0,0 UV-I 0 W/m² 3,6 °C 4,9 °C 1,6 km/h (1 Bft)
12.10.2019 05:33 4,9 °C 90 % 1017,6 hPa 0,0 mm 0,0 km/h (0 Bft) W-NW 302 ° 0 min 0,000 mm 0,0 UV-I 0 W/m² 3,4 °C 4,9 °C 0,0 km/h (0 Bft)
12.10.2019 05:34 4,9 °C 90 % 1017,6 hPa 0,0 mm 0,0 km/h (0 Bft) W-NW 302 ° 0 min 0,000 mm 0,0 UV-I 0 W/m² 3,4 °C 4,9 °C 0,0 km/h (0 Bft)
12.10.2019 05:35 5,1 °C 90 % 1017,6 hPa 0,0 mm 0,0 km/h (0 Bft) W-NW 302 ° 0 min 0,000 mm 0,0 UV-I 0 W/m² 3,6 °C 5,1 °C 0,0 km/h (0 Bft)
12.10.2019 05:36 5,1 °C 89 % 1017,6 hPa 0,0 mm 0,0 km/h (0 Bft) W-NW 302 ° 0 min 0,000 mm 0,0 UV-I 0 W/m² 3,4 °C 5,1 °C 0,0 km/h (0 Bft)
12.10.2019 05:37 5,2 °C 89 % 1017,6 hPa 0,0 mm 0,0 km/h (0 Bft) W-NW 302 ° 0 min 0,000 mm 0,0 UV-I 0 W/m² 3,5 °C 5,2 °C 0,0 km/h (0 Bft)
12.10.2019 05:38 5,2 °C 88 % 1017,6 hPa 0,0 mm 0,0 km/h (0 Bft) W-NW 302 ° 0 min 0,000 mm 0,0 UV-I 0 W/m² 3,4 °C 5,2 °C 0,0 km/h (0 Bft)
12.10.2019 05:39 5,2 °C 88 % 1017,6 hPa 0,0 mm 0,0 km/h (0 Bft) W-NW 302 ° 0 min 0,000 mm 0,0 UV-I 0 W/m² 3,4 °C 5,2 °C 0,0 km/h (0 Bft)
12.10.2019 05:40 5,2 °C 88 % 1017,6 hPa 0,0 mm 0,0 km/h (0 Bft) W-NW 302 ° 0 min 0,000 mm 0,0 UV-I 0 W/m² 3,4 °C 5,2 °C 0,0 km/h (0 Bft)
12.10.2019 05:41 5,2 °C 88 % 1017,6 hPa 0,0 mm 0,0 km/h (0 Bft) W-NW 302 ° 0 min 0,000 mm 0,0 UV-I 0 W/m² 3,4 °C 5,2 °C 0,0 km/h (0 Bft)
12.10.2019 05:42 5,3 °C 87 % 1017,6 hPa 0,0 mm 0,0 km/h (0 Bft) W-NW 302 ° 0 min 0,000 mm 0,0 UV-I 0 W/m² 3,3 °C 5,3 °C 0,0 km/h (0 Bft)
12.10.2019 05:43 5,3 °C 87 % 1017,6 hPa 0,0 mm 0,0 km/h (0 Bft) W-NW 302 ° 0 min 0,000 mm 0,0 UV-I 0 W/m² 3,3 °C 5,3 °C 0,0 km/h (0 Bft)
12.10.2019 05:44 5,3 °C 87 % 1017,7 hPa 0,0 mm 0,0 km/h (0 Bft) W-NW 302 ° 0 min 0,000 mm 0,0 UV-I 0 W/m² 3,3 °C 5,3 °C 0,0 km/h (0 Bft)
12.10.2019 05:45 5,4 °C 87 % 1017,7 hPa 0,0 mm 0,0 km/h (0 Bft) W-NW 302 ° 0 min 0,000 mm 0,0 UV-I 0 W/m² 3,4 °C 5,4 °C 0,0 km/h (0 Bft)
12.10.2019 05:46 5,4 °C 87 % 1017,7 hPa 0,0 mm 0,0 km/h (0 Bft) W-NW 302 ° 0 min 0,000 mm 0,0 UV-I 0 W/m² 3,4 °C 5,4 °C 0,0 km/h (0 Bft)
12.10.2019 05:47 5,3 °C 86 % 1017,6 hPa 0,0 mm 0,0 km/h (0 Bft) W-NW 302 ° 0 min 0,000 mm 0,0 UV-I 0 W/m² 3,2 °C 5,3 °C 0,0 km/h (0 Bft)
12.10.2019 05:48 5,3 °C 86 % 1017,6 hPa 0,0 mm 0,0 km/h (0 Bft) W-NW 302 ° 0 min 0,000 mm 0,0 UV-I 0 W/m² 3,2 °C 5,3 °C 0,0 km/h (0 Bft)
12.10.2019 05:49 5,3 °C 86 % 1017,6 hPa 0,0 mm 0,0 km/h (0 Bft) W-NW 302 ° 0 min 0,000 mm 0,0 UV-I 0 W/m² 3,2 °C 5,3 °C 0,0 km/h (0 Bft)
12.10.2019 05:50 5,3 °C 86 % 1017,6 hPa 0,0 mm 0,0 km/h (0 Bft) W-NW 302 ° 0 min 0,000 mm 0,0 UV-I 0 W/m² 3,2 °C 5,3 °C 0,0 km/h (0 Bft)
12.10.2019 05:51 5,2 °C 86 % 1017,7 hPa 0,0 mm 0,0 km/h (0 Bft) W-NW 302 ° 0 min 0,000 mm 0,0 UV-I 0 W/m² 3,1 °C 5,2 °C 0,0 km/h (0 Bft)
12.10.2019 05:52 5,2 °C 86 % 1017,6 hPa 0,0 mm 0,0 km/h (0 Bft) W-NW 302 ° 0 min 0,000 mm 0,0 UV-I 0 W/m² 3,1 °C 5,2 °C 0,0 km/h (0 Bft)
12.10.2019 05:53 5,1 °C 87 % 1017,6 hPa 0,0 mm 0,0 km/h (0 Bft) W-NW 302 ° 0 min 0,000 mm 0,0 UV-I 0 W/m² 3,1 °C 5,1 °C 0,0 km/h (0 Bft)
12.10.2019 05:54 5,2 °C 87 % 1017,6 hPa 0,0 mm 0,0 km/h (0 Bft) W-NW 302 ° 0 min 0,000 mm 0,0 UV-I 0 W/m² 3,2 °C 5,2 °C 0,0 km/h (0 Bft)
12.10.2019 05:55 5,2 °C 86 % 1017,6 hPa 0,0 mm 0,0 km/h (0 Bft) W-NW 302 ° 0 min 0,000 mm 0,0 UV-I 0 W/m² 3,1 °C 5,2 °C 0,0 km/h (0 Bft)
12.10.2019 05:56 5,2 °C 87 % 1017,5 hPa 0,0 mm 0,0 km/h (0 Bft) W-NW 302 ° 0 min 0,000 mm 0,0 UV-I 0 W/m² 3,2 °C 5,2 °C 0,0 km/h (0 Bft)
12.10.2019 05:57 5,2 °C 87 % 1017,5 hPa 0,0 mm 0,0 km/h (0 Bft) W-NW 302 ° 0 min 0,000 mm 0,0 UV-I 0 W/m² 3,2 °C 5,2 °C 0,0 km/h (0 Bft)
12.10.2019 05:58 5,2 °C 86 % 1017,6 hPa 0,0 mm 0,0 km/h (0 Bft) W-NW 302 ° 0 min 0,000 mm 0,0 UV-I 0 W/m² 3,1 °C 5,2 °C 0,0 km/h (0 Bft)
12.10.2019 05:59 5,2 °C 87 % 1017,6 hPa 0,0 mm 0,0 km/h (0 Bft) W-NW 302 ° 0 min 0,000 mm 0,0 UV-I 0 W/m² 3,2 °C 5,2 °C 0,0 km/h (0 Bft)
12.10.2019 06:00 5,1 °C 86 % 1017,6 hPa 0,0 mm 0,0 km/h (0 Bft) W-NW 302 ° 0 min 0,000 mm 0,0 UV-I 0 W/m² 3,0 °C 5,1 °C 0,0 km/h (0 Bft)
12.10.2019 06:01 5,1 °C 86 % 1017,6 hPa 0,0 mm 0,0 km/h (0 Bft) W-NW 302 ° 0 min 0,000 mm 0,0 UV-I 0 W/m² 3,0 °C 5,1 °C 0,0 km/h (0 Bft)
12.10.2019 06:02 5,1 °C 87 % 1017,6 hPa 0,0 mm 0,0 km/h (0 Bft) W-NW 302 ° 0 min 0,000 mm 0,0 UV-I 0 W/m² 3,1 °C 5,1 °C 0,0 km/h (0 Bft)
12.10.2019 06:03 5,1 °C 87 % 1017,5 hPa 0,0 mm 0,0 km/h (0 Bft) W-NW 302 ° 0 min 0,000 mm 0,0 UV-I 0 W/m² 3,1 °C 5,1 °C 0,0 km/h (0 Bft)
12.10.2019 06:04 5,1 °C 87 % 1017,5 hPa 0,0 mm 0,0 km/h (0 Bft) W-NW 302 ° 0 min 0,000 mm 0,0 UV-I 0 W/m² 3,1 °C 5,1 °C 0,0 km/h (0 Bft)
12.10.2019 06:05 5,0 °C 87 % 1017,5 hPa 0,0 mm 0,0 km/h (0 Bft) W-NW 302 ° 0 min 0,000 mm 0,0 UV-I 0 W/m² 3,0 °C 5,0 °C 0,0 km/h (0 Bft)
12.10.2019 06:06 4,9 °C 87 % 1017,5 hPa 0,0 mm 0,0 km/h (0 Bft) W-NW 302 ° 0 min 0,000 mm 0,0 UV-I 0 W/m² 2,9 °C 4,9 °C 0,0 km/h (0 Bft)
12.10.2019 06:07 4,8 °C 87 % 1017,5 hPa 0,0 mm 0,0 km/h (0 Bft) W-NW 302 ° 0 min 0,000 mm 0,0 UV-I 0 W/m² 2,8 °C 4,8 °C 0,0 km/h (0 Bft)
12.10.2019 06:08 4,8 °C 87 % 1017,5 hPa 0,0 mm 0,0 km/h (0 Bft) W-NW 302 ° 0 min 0,000 mm 0,0 UV-I 0 W/m² 2,8 °C 4,8 °C 0,0 km/h (0 Bft)
12.10.2019 06:09 4,7 °C 87 % 1017,5 hPa 0,0 mm 0,0 km/h (0 Bft) W-NW 302 ° 0 min 0,000 mm 0,0 UV-I 0 W/m² 2,7 °C 4,7 °C 0,0 km/h (0 Bft)
12.10.2019 06:10 4,7 °C 88 % 1017,5 hPa 0,0 mm 0,0 km/h (0 Bft) W-NW 302 ° 0 min 0,000 mm 0,0 UV-I 0 W/m² 2,9 °C 4,7 °C 0,0 km/h (0 Bft)
12.10.2019 06:11 4,8 °C 88 % 1017,5 hPa 0,0 mm 0,0 km/h (0 Bft) W-NW 302 ° 0 min 0,000 mm 0,0 UV-I 0 W/m² 3,0 °C 4,8 °C 0,0 km/h (0 Bft)
12.10.2019 06:12 4,8 °C 88 % 1017,5 hPa 0,0 mm 0,0 km/h (0 Bft) W-NW 302 ° 0 min 0,000 mm 0,0 UV-I 0 W/m² 3,0 °C 4,8 °C 0,0 km/h (0 Bft)
12.10.2019 06:13 4,8 °C 88 % 1017,5 hPa 0,0 mm 0,0 km/h (0 Bft) W-NW 302 ° 0 min 0,000 mm 0,0 UV-I 0 W/m² 3,0 °C 4,8 °C 0,0 km/h (0 Bft)
12.10.2019 06:14 4,7 °C 88 % 1017,5 hPa 0,0 mm 0,0 km/h (0 Bft) W-NW 302 ° 0 min 0,000 mm 0,0 UV-I 0 W/m² 2,9 °C 4,7 °C 0,0 km/h (0 Bft)
12.10.2019 06:15 4,7 °C 88 % 1017,5 hPa 0,0 mm 0,0 km/h (0 Bft) W-NW 302 ° 0 min 0,000 mm 0,0 UV-I 0 W/m² 2,9 °C 4,7 °C 0,0 km/h (0 Bft)
12.10.2019 06:16 4,7 °C 88 % 1017,5 hPa 0,0 mm 0,0 km/h (0 Bft) W-NW 302 ° 0 min 0,000 mm 0,0 UV-I 0 W/m² 2,9 °C 4,7 °C 0,0 km/h (0 Bft)
12.10.2019 06:17 4,7 °C 88 % 1017,5 hPa 0,0 mm 0,0 km/h (0 Bft) W-NW 302 ° 0 min 0,000 mm 0,0 UV-I 0 W/m² 2,9 °C 4,7 °C 0,0 km/h (0 Bft)
12.10.2019 06:18 4,7 °C 88 % 1017,5 hPa 0,0 mm 0,0 km/h (0 Bft) W-NW 302 ° 0 min 0,000 mm 0,0 UV-I 0 W/m² 2,9 °C 4,7 °C 0,0 km/h (0 Bft)
12.10.2019 06:19 4,7 °C 88 % 1017,5 hPa 0,0 mm 0,0 km/h (0 Bft) W-NW 302 ° 0 min 0,000 mm 0,0 UV-I 0 W/m² 2,9 °C 4,7 °C 0,0 km/h (0 Bft)
12.10.2019 06:20 4,7 °C 88 % 1017,6 hPa 0,0 mm 0,0 km/h (0 Bft) W-NW 302 ° 0 min 0,000 mm 0,0 UV-I 0 W/m² 2,9 °C 4,7 °C 0,0 km/h (0 Bft)
12.10.2019 06:21 4,7 °C 88 % 1017,6 hPa 0,0 mm 0,0 km/h (0 Bft) W-NW 302 ° 0 min 0,000 mm 0,0 UV-I 0 W/m² 2,9 °C 4,7 °C 0,0 km/h (0 Bft)
12.10.2019 06:22 4,7 °C 89 % 1017,6 hPa 0,0 mm 0,0 km/h (0 Bft) W-NW 302 ° 0 min 0,000 mm 0,0 UV-I 0 W/m² 3,0 °C 4,7 °C 0,0 km/h (0 Bft)
12.10.2019 06:23 4,7 °C 89 % 1017,5 hPa 0,0 mm 0,0 km/h (0 Bft) W-NW 302 ° 0 min 0,000 mm 0,0 UV-I 0 W/m² 3,0 °C 4,7 °C 0,0 km/h (0 Bft)
12.10.2019 06:24 4,7 °C 88 % 1017,6 hPa 0,0 mm 0,0 km/h (0 Bft) W-NW 302 ° 0 min 0,000 mm 0,0 UV-I 0 W/m² 2,9 °C 4,7 °C 0,0 km/h (0 Bft)
12.10.2019 06:25 4,7 °C 88 % 1017,5 hPa 0,0 mm 0,0 km/h (0 Bft) W-NW 302 ° 0 min 0,000 mm 0,0 UV-I 0 W/m² 2,9 °C 4,7 °C 0,0 km/h (0 Bft)
12.10.2019 06:26 4,7 °C 88 % 1017,5 hPa 0,0 mm 0,0 km/h (0 Bft) W-NW 302 ° 0 min 0,000 mm 0,0 UV-I 0 W/m² 2,9 °C 4,7 °C 0,0 km/h (0 Bft)
12.10.2019 06:27 4,6 °C 88 % 1017,6 hPa 0,0 mm 0,0 km/h (0 Bft) W-NW 302 ° 0 min 0,000 mm 0,0 UV-I 0 W/m² 2,8 °C 4,6 °C 0,0 km/h (0 Bft)
12.10.2019 06:28 4,6 °C 88 % 1017,6 hPa 0,0 mm 0,2 km/h (0 Bft) W-NW 296 ° 0 min 0,000 mm 0,0 UV-I 0 W/m² 2,8 °C 4,6 °C 1,6 km/h (1 Bft)
12.10.2019 06:29 4,6 °C 89 % 1017,6 hPa 0,0 mm 0,2 km/h (0 Bft) W-NW 296 ° 0 min 0,000 mm 0,0 UV-I 0 W/m² 2,9 °C 4,6 °C 1,6 km/h (1 Bft)
12.10.2019 06:30 4,6 °C 89 % 1017,6 hPa 0,0 mm 0,0 km/h (0 Bft) W-NW 296 ° 0 min 0,000 mm 0,0 UV-I 0 W/m² 2,9 °C 4,6 °C 0,0 km/h (0 Bft)
12.10.2019 06:31 4,6 °C 88 % 1017,6 hPa 0,0 mm 0,2 km/h (0 Bft) W-NW 296 ° 0 min 0,000 mm 0,0 UV-I 0 W/m² 2,8 °C 4,6 °C 1,6 km/h (1 Bft)
12.10.2019 06:32 4,5 °C 88 % 1017,5 hPa 0,0 mm 2,3 km/h (1 Bft) W-NW 296 ° 0 min 0,000 mm 0,0 UV-I 0 W/m² 2,7 °C 4,5 °C 4,8 km/h (1 Bft)
12.10.2019 06:33 4,4 °C 88 % 1017,5 hPa 0,0 mm 0,0 km/h (0 Bft) W-NW 296 ° 0 min 0,000 mm 0,0 UV-I 0 W/m² 2,6 °C 4,4 °C 0,0 km/h (0 Bft)
12.10.2019 06:34 4,3 °C 88 % 1017,5 hPa 0,0 mm 0,0 km/h (0 Bft) W-NW 296 ° 0 min 0,000 mm 0,0 UV-I 0 W/m² 2,5 °C 4,3 °C 0,0 km/h (0 Bft)
12.10.2019 06:35 4,3 °C 88 % 1017,5 hPa 0,0 mm 0,0 km/h (0 Bft) W-NW 296 ° 0 min 0,000 mm 0,0 UV-I 0 W/m² 2,5 °C 4,3 °C 0,0 km/h (0 Bft)
12.10.2019 06:36 4,3 °C 89 % 1017,5 hPa 0,0 mm 0,1 km/h (0 Bft) W-NW 296 ° 0 min 0,000 mm 0,0 UV-I 0 W/m² 2,7 °C 4,3 °C 1,6 km/h (1 Bft)
12.10.2019 06:37 4,2 °C 89 % 1017,5 hPa 0,0 mm 2,2 km/h (1 Bft) W-NW 296 ° 0 min 0,000 mm 0,0 UV-I 0 W/m² 2,6 °C 4,2 °C 4,8 km/h (1 Bft)
12.10.2019 06:38 4,2 °C 89 % 1017,5 hPa 0,0 mm 0,2 km/h (0 Bft) W-NW 296 ° 0 min 0,000 mm 0,0 UV-I 0 W/m² 2,6 °C 4,2 °C 1,6 km/h (1 Bft)
12.10.2019 06:39 4,2 °C 89 % 1017,5 hPa 0,0 mm 0,0 km/h (0 Bft) W-NW 296 ° 0 min 0,000 mm 0,0 UV-I 0 W/m² 2,6 °C 4,2 °C 0,0 km/h (0 Bft)
12.10.2019 06:40 4,1 °C 89 % 1017,5 hPa 0,0 mm 0,0 km/h (0 Bft) W-NW 296 ° 0 min 0,000 mm 0,0 UV-I 0 W/m² 2,5 °C 4,1 °C 0,0 km/h (0 Bft)
12.10.2019 06:41 4,2 °C 89 % 1017,5 hPa 0,0 mm 0,0 km/h (0 Bft) W-NW 296 ° 0 min 0,000 mm 0,0 UV-I 0 W/m² 2,6 °C 4,2 °C 0,0 km/h (0 Bft)
12.10.2019 06:42 4,2 °C 90 % 1017,5 hPa 0,0 mm 0,0 km/h (0 Bft) W-NW 296 ° 0 min 0,000 mm 0,0 UV-I 0 W/m² 2,7 °C 4,2 °C 0,0 km/h (0 Bft)
12.10.2019 06:43 4,3 °C 90 % 1017,5 hPa 0,0 mm 0,0 km/h (0 Bft) W-NW 296 ° 0 min 0,000 mm 0,0 UV-I 0 W/m² 2,8 °C 4,3 °C 0,0 km/h (0 Bft)
12.10.2019 06:44 4,3 °C 90 % 1017,6 hPa 0,0 mm 0,0 km/h (0 Bft) W-NW 296 ° 0 min 0,000 mm 0,0 UV-I 0 W/m² 2,8 °C 4,3 °C 0,0 km/h (0 Bft)
12.10.2019 06:45 4,3 °C 90 % 1017,5 hPa 0,0 mm 0,0 km/h (0 Bft) W-NW 296 ° 0 min 0,000 mm 0,0 UV-I 0 W/m² 2,8 °C 4,3 °C 0,0 km/h (0 Bft)
12.10.2019 06:46 4,3 °C 89 % 1017,5 hPa 0,0 mm 0,0 km/h (0 Bft) W-NW 296 ° 0 min 0,000 mm 0,0 UV-I 0 W/m² 2,7 °C 4,3 °C 0,0 km/h (0 Bft)
12.10.2019 06:47 4,3 °C 89 % 1017,5 hPa 0,0 mm 0,0 km/h (0 Bft) W-NW 296 ° 0 min 0,000 mm 0,0 UV-I 0 W/m² 2,7 °C 4,3 °C 0,0 km/h (0 Bft)
12.10.2019 06:48 4,3 °C 89 % 1017,5 hPa 0,0 mm 0,0 km/h (0 Bft) W-NW 296 ° 0 min 0,000 mm 0,0 UV-I 0 W/m² 2,7 °C 4,3 °C 0,0 km/h (0 Bft)
12.10.2019 06:49 4,2 °C 89 % 1017,5 hPa 0,0 mm 0,0 km/h (0 Bft) W-NW 296 ° 0 min 0,000 mm 0,0 UV-I 0 W/m² 2,6 °C 4,2 °C 0,0 km/h (0 Bft)
12.10.2019 06:50 4,3 °C 89 % 1017,6 hPa 0,0 mm 0,0 km/h (0 Bft) W-NW 296 ° 0 min 0,000 mm 0,0 UV-I 0 W/m² 2,7 °C 4,3 °C 0,0 km/h (0 Bft)
12.10.2019 06:51 4,3 °C 90 % 1017,5 hPa 0,0 mm 0,0 km/h (0 Bft) W-NW 296 ° 0 min 0,000 mm 0,0 UV-I 0 W/m² 2,8 °C 4,3 °C 0,0 km/h (0 Bft)
12.10.2019 06:52 4,3 °C 90 % 1017,6 hPa 0,0 mm 0,0 km/h (0 Bft) W-NW 296 ° 0 min 0,000 mm 0,0 UV-I 0 W/m² 2,8 °C 4,3 °C 0,0 km/h (0 Bft)
12.10.2019 06:53 4,4 °C 89 % 1017,5 hPa 0,0 mm 0,0 km/h (0 Bft) W-NW 296 ° 0 min 0,000 mm 0,0 UV-I 0 W/m² 2,7 °C 4,4 °C 0,0 km/h (0 Bft)
12.10.2019 06:54 4,4 °C 89 % 1017,6 hPa 0,0 mm 0,0 km/h (0 Bft) W-NW 296 ° 0 min 0,000 mm 0,0 UV-I 0 W/m² 2,7 °C 4,4 °C 0,0 km/h (0 Bft)
12.10.2019 06:55 4,4 °C 89 % 1017,6 hPa 0,0 mm 0,0 km/h (0 Bft) W-NW 296 ° 0 min 0,000 mm 0,0 UV-I 0 W/m² 2,7 °C 4,4 °C 0,0 km/h (0 Bft)
12.10.2019 06:56 4,4 °C 89 % 1017,6 hPa 0,0 mm 0,0 km/h (0 Bft) W-NW 296 ° 0 min 0,000 mm 0,0 UV-I 0 W/m² 2,7 °C 4,4 °C 0,0 km/h (0 Bft)
12.10.2019 06:57 4,4 °C 89 % 1017,6 hPa 0,0 mm 0,0 km/h (0 Bft) W-NW 296 ° 0 min 0,000 mm 0,0 UV-I 0 W/m² 2,7 °C 4,4 °C 0,0 km/h (0 Bft)
12.10.2019 06:58 4,5 °C 89 % 1017,6 hPa 0,0 mm 0,0 km/h (0 Bft) W-NW 296 ° 0 min 0,000 mm 0,0 UV-I 0 W/m² 2,8 °C 4,5 °C 0,0 km/h (0 Bft)
12.10.2019 06:59 4,4 °C 89 % 1017,6 hPa 0,0 mm 0,0 km/h (0 Bft) W-NW 296 ° 0 min 0,000 mm 0,0 UV-I 0 W/m² 2,7 °C 4,4 °C 0,0 km/h (0 Bft)
12.10.2019 07:00 4,5 °C 89 % 1017,6 hPa 0,0 mm 0,0 km/h (0 Bft) W-NW 296 ° 0 min 0,000 mm 0,0 UV-I 0 W/m² 2,8 °C 4,5 °C 0,0 km/h (0 Bft)
12.10.2019 07:01 4,5 °C 89 % 1017,6 hPa 0,0 mm 0,0 km/h (0 Bft) W-NW 296 ° 0 min 0,000 mm 0,0 UV-I 0 W/m² 2,8 °C 4,5 °C 0,0 km/h (0 Bft)
12.10.2019 07:02 4,5 °C 89 % 1017,6 hPa 0,0 mm 0,0 km/h (0 Bft) W-NW 296 ° 0 min 0,000 mm 0,0 UV-I 0 W/m² 2,8 °C 4,5 °C 0,0 km/h (0 Bft)
12.10.2019 07:03 4,5 °C 89 % 1017,6 hPa 0,0 mm 0,0 km/h (0 Bft) W-NW 296 ° 0 min 0,000 mm 0,0 UV-I 0 W/m² 2,8 °C 4,5 °C 0,0 km/h (0 Bft)
12.10.2019 07:04 4,5 °C 88 % 1017,6 hPa 0,0 mm 0,0 km/h (0 Bft) W-NW 296 ° 0 min 0,000 mm 0,0 UV-I 0 W/m² 2,7 °C 4,5 °C 0,0 km/h (0 Bft)
12.10.2019 07:05 4,4 °C 88 % 1017,6 hPa 0,0 mm 0,0 km/h (0 Bft) W-NW 296 ° 0 min 0,000 mm 0,0 UV-I 0 W/m² 2,6 °C 4,4 °C 0,0 km/h (0 Bft)
12.10.2019 07:06 4,4 °C 88 % 1017,6 hPa 0,0 mm 0,0 km/h (0 Bft) W-NW 296 ° 0 min 0,000 mm 0,0 UV-I 0 W/m² 2,6 °C 4,4 °C 0,0 km/h (0 Bft)
12.10.2019 07:07 4,4 °C 89 % 1017,6 hPa 0,0 mm 0,0 km/h (0 Bft) W-NW 296 ° 0 min 0,000 mm 0,0 UV-I 0 W/m² 2,7 °C 4,4 °C 0,0 km/h (0 Bft)
12.10.2019 07:08 4,4 °C 88 % 1017,6 hPa 0,0 mm 0,0 km/h (0 Bft) W-NW 296 ° 0 min 0,000 mm 0,0 UV-I 0 W/m² 2,6 °C 4,4 °C 0,0 km/h (0 Bft)
12.10.2019 07:09 4,4 °C 88 % 1017,6 hPa 0,0 mm 0,0 km/h (0 Bft) W-NW 296 ° 0 min 0,000 mm 0,0 UV-I 0 W/m² 2,6 °C 4,4 °C 0,0 km/h (0 Bft)
12.10.2019 07:10 4,4 °C 89 % 1017,6 hPa 0,0 mm 0,0 km/h (0 Bft) W-NW 296 ° 0 min 0,000 mm 0,0 UV-I 0 W/m² 2,7 °C 4,4 °C 0,0 km/h (0 Bft)
12.10.2019 07:11 4,4 °C 89 % 1017,6 hPa 0,0 mm 0,0 km/h (0 Bft) W-NW 296 ° 0 min 0,000 mm 0,0 UV-I 0 W/m² 2,7 °C 4,4 °C 0,0 km/h (0 Bft)
12.10.2019 07:12 4,4 °C 89 % 1017,6 hPa 0,0 mm 0,0 km/h (0 Bft) W-NW 296 ° 0 min 0,000 mm 0,0 UV-I 0 W/m² 2,7 °C 4,4 °C 0,0 km/h (0 Bft)
12.10.2019 07:13 4,4 °C 89 % 1017,7 hPa 0,0 mm 0,0 km/h (0 Bft) W-NW 296 ° 0 min 0,000 mm 0,0 UV-I 0 W/m² 2,7 °C 4,4 °C 0,0 km/h (0 Bft)
12.10.2019 07:14 4,5 °C 89 % 1017,7 hPa 0,0 mm 0,0 km/h (0 Bft) W-NW 296 ° 0 min 0,000 mm 0,0 UV-I 0 W/m² 2,8 °C 4,5 °C 0,0 km/h (0 Bft)
12.10.2019 07:15 4,5 °C 89 % 1017,7 hPa 0,0 mm 0,0 km/h (0 Bft) W-NW 296 ° 0 min 0,000 mm 0,0 UV-I 0 W/m² 2,8 °C 4,5 °C 0,0 km/h (0 Bft)
12.10.2019 07:16 4,6 °C 88 % 1017,7 hPa 0,0 mm 0,0 km/h (0 Bft) W-NW 296 ° 0 min 0,000 mm 0,0 UV-I 0 W/m² 2,8 °C 4,6 °C 0,0 km/h (0 Bft)
12.10.2019 07:17 4,6 °C 89 % 1017,7 hPa 0,0 mm 0,0 km/h (0 Bft) W-NW 296 ° 0 min 0,000 mm 0,0 UV-I 0 W/m² 2,9 °C 4,6 °C 0,0 km/h (0 Bft)
12.10.2019 07:18 4,7 °C 89 % 1017,6 hPa 0,0 mm 0,0 km/h (0 Bft) W-NW 296 ° 0 min 0,000 mm 0,0 UV-I 0 W/m² 3,0 °C 4,7 °C 0,0 km/h (0 Bft)
12.10.2019 07:19 4,7 °C 89 % 1017,6 hPa 0,0 mm 0,0 km/h (0 Bft) W-NW 296 ° 0 min 0,000 mm 0,0 UV-I 0 W/m² 3,0 °C 4,7 °C 0,0 km/h (0 Bft)
12.10.2019 07:20 4,7 °C 88 % 1017,6 hPa 0,0 mm 0,0 km/h (0 Bft) W-NW 296 ° 0 min 0,000 mm 0,0 UV-I 0 W/m² 2,9 °C 4,7 °C 0,0 km/h (0 Bft)
12.10.2019 07:21 4,7 °C 88 % 1017,7 hPa 0,0 mm 0,0 km/h (0 Bft) W-NW 296 ° 0 min 0,000 mm 0,0 UV-I 0 W/m² 2,9 °C 4,7 °C 0,0 km/h (0 Bft)
12.10.2019 07:22 4,7 °C 87 % 1017,7 hPa 0,0 mm 0,0 km/h (0 Bft) W-NW 296 ° 0 min 0,000 mm 0,0 UV-I 0 W/m² 2,7 °C 4,7 °C 0,0 km/h (0 Bft)
12.10.2019 07:23 4,7 °C 87 % 1017,7 hPa 0,0 mm 0,0 km/h (0 Bft) W-NW 296 ° 0 min 0,000 mm 0,0 UV-I 0 W/m² 2,7 °C 4,7 °C 0,0 km/h (0 Bft)
12.10.2019 07:24 4,6 °C 88 % 1017,7 hPa 0,0 mm 0,0 km/h (0 Bft) W-NW 296 ° 0 min 0,000 mm 0,0 UV-I 0 W/m² 2,8 °C 4,6 °C 0,0 km/h (0 Bft)
12.10.2019 07:25 4,6 °C 88 % 1017,7 hPa 0,0 mm 0,0 km/h (0 Bft) W-NW 296 ° 0 min 0,000 mm 0,0 UV-I 0 W/m² 2,8 °C 4,6 °C 0,0 km/h (0 Bft)
12.10.2019 07:26 4,6 °C 88 % 1017,7 hPa 0,0 mm 0,0 km/h (0 Bft) W-NW 296 ° 0 min 0,000 mm 0,0 UV-I 0 W/m² 2,8 °C 4,6 °C 0,0 km/h (0 Bft)
12.10.2019 07:27 4,6 °C 88 % 1017,7 hPa 0,0 mm 0,0 km/h (0 Bft) W-NW 296 ° 0 min 0,000 mm 0,0 UV-I 0 W/m² 2,8 °C 4,6 °C 0,0 km/h (0 Bft)
12.10.2019 07:28 4,5 °C 88 % 1017,7 hPa 0,0 mm 0,0 km/h (0 Bft) W-NW 296 ° 0 min 0,000 mm 0,0 UV-I 0 W/m² 2,7 °C 4,5 °C 0,0 km/h (0 Bft)
12.10.2019 07:29 4,5 °C 88 % 1017,7 hPa 0,0 mm 1,5 km/h (1 Bft) W-NW 296 ° 0 min 0,000 mm 0,0 UV-I 0 W/m² 2,7 °C 4,5 °C 4,8 km/h (1 Bft)
12.10.2019 07:30 4,5 °C 88 % 1017,7 hPa 0,0 mm 1,2 km/h (1 Bft) W-NW 296 ° 0 min 0,000 mm 0,0 UV-I 0 W/m² 2,7 °C 4,5 °C 3,2 km/h (1 Bft)
12.10.2019 07:31 4,5 °C 88 % 1017,7 hPa 0,0 mm 2,0 km/h (1 Bft) W-NW 296 ° 0 min 0,000 mm 0,0 UV-I 0 W/m² 2,7 °C 4,5 °C 4,8 km/h (1 Bft)
12.10.2019 07:32 4,5 °C 88 % 1017,7 hPa 0,0 mm 0,4 km/h (0 Bft) N-NW 332 ° 0 min 0,000 mm 0,0 UV-I 0 W/m² 2,7 °C 4,5 °C 4,8 km/h (1 Bft)
12.10.2019 07:33 4,6 °C 88 % 1017,7 hPa 0,0 mm 2,6 km/h (1 Bft) NW 319 ° 0 min 0,000 mm 0,0 UV-I 0 W/m² 2,8 °C 4,6 °C 4,8 km/h (1 Bft)
12.10.2019 07:34 4,7 °C 88 % 1017,7 hPa 0,0 mm 0,6 km/h (0 Bft) NW 319 ° 0 min 0,000 mm 0,0 UV-I 5 W/m² 2,9 °C 4,7 °C 3,2 km/h (1 Bft)
12.10.2019 07:35 4,7 °C 88 % 1017,7 hPa 0,0 mm 1,5 km/h (1 Bft) NW 319 ° 0 min 0,000 mm 0,0 UV-I 5 W/m² 2,9 °C 4,7 °C 3,2 km/h (1 Bft)
12.10.2019 07:36 4,8 °C 88 % 1017,7 hPa 0,0 mm 1,1 km/h (1 Bft) NW 319 ° 0 min 0,000 mm 0,0 UV-I 5 W/m² 3,0 °C 4,8 °C 3,2 km/h (1 Bft)
12.10.2019 07:37 4,8 °C 88 % 1017,7 hPa 0,0 mm 1,0 km/h (0 Bft) NW 319 ° 0 min 0,000 mm 0,0 UV-I 5 W/m² 3,0 °C 4,8 °C 3,2 km/h (1 Bft)
12.10.2019 07:38 4,9 °C 87 % 1017,7 hPa 0,0 mm 0,1 km/h (0 Bft) NW 319 ° 0 min 0,000 mm 0,0 UV-I 5 W/m² 2,9 °C 4,9 °C 1,6 km/h (1 Bft)
12.10.2019 07:39 4,9 °C 87 % 1017,7 hPa 0,0 mm 0,0 km/h (0 Bft) NW 319 ° 0 min 0,000 mm 0,0 UV-I 5 W/m² 2,9 °C 4,9 °C 0,0 km/h (0 Bft)
12.10.2019 07:40 4,8 °C 87 % 1017,7 hPa 0,0 mm 0,0 km/h (0 Bft) NW 319 ° 0 min 0,000 mm 0,0 UV-I 7 W/m² 2,8 °C 4,8 °C 0,0 km/h (0 Bft)
12.10.2019 07:41 4,8 °C 87 % 1017,7 hPa 0,0 mm 0,0 km/h (0 Bft) NW 319 ° 0 min 0,000 mm 0,0 UV-I 7 W/m² 2,8 °C 4,8 °C 0,0 km/h (0 Bft)
12.10.2019 07:42 4,8 °C 87 % 1017,8 hPa 0,0 mm 0,0 km/h (0 Bft) NW 319 ° 0 min 0,000 mm 0,0 UV-I 7 W/m² 2,8 °C 4,8 °C 0,0 km/h (0 Bft)
12.10.2019 07:43 4,8 °C 88 % 1017,8 hPa 0,0 mm 0,0 km/h (0 Bft) NW 319 ° 0 min 0,000 mm 0,0 UV-I 7 W/m² 3,0 °C 4,8 °C 0,0 km/h (0 Bft)
12.10.2019 07:44 4,8 °C 87 % 1017,8 hPa 0,0 mm 0,0 km/h (0 Bft) NW 319 ° 0 min 0,000 mm 0,0 UV-I 7 W/m² 2,8 °C 4,8 °C 0,0 km/h (0 Bft)
12.10.2019 07:45 4,9 °C 88 % 1017,8 hPa 0,0 mm 0,0 km/h (0 Bft) NW 319 ° 0 min 0,000 mm 0,0 UV-I 9 W/m² 3,1 °C 4,9 °C 0,0 km/h (0 Bft)
12.10.2019 07:46 5,1 °C 88 % 1017,8 hPa 0,0 mm 0,0 km/h (0 Bft) NW 319 ° 0 min 0,000 mm 0,0 UV-I 9 W/m² 3,3 °C 5,1 °C 0,0 km/h (0 Bft)
12.10.2019 07:47 5,1 °C 88 % 1017,8 hPa 0,0 mm 0,0 km/h (0 Bft) NW 319 ° 0 min 0,000 mm 0,0 UV-I 9 W/m² 3,3 °C 5,1 °C 0,0 km/h (0 Bft)
12.10.2019 07:48 5,2 °C 88 % 1017,8 hPa 0,0 mm 0,0 km/h (0 Bft) NW 319 ° 0 min 0,000 mm 0,0 UV-I 9 W/m² 3,4 °C 5,2 °C 0,0 km/h (0 Bft)
12.10.2019 07:49 5,2 °C 87 % 1017,8 hPa 0,0 mm 0,0 km/h (0 Bft) NW 319 ° 0 min 0,000 mm 0,0 UV-I 9 W/m² 3,2 °C 5,2 °C 0,0 km/h (0 Bft)
12.10.2019 07:50 5,3 °C 87 % 1017,8 hPa 0,0 mm 0,0 km/h (0 Bft) NW 319 ° 0 min 0,000 mm 0,0 UV-I 9 W/m² 3,3 °C 5,3 °C 0,0 km/h (0 Bft)
12.10.2019 07:51 5,3 °C 87 % 1017,8 hPa 0,0 mm 0,0 km/h (0 Bft) NW 319 ° 0 min 0,000 mm 0,0 UV-I 11 W/m² 3,3 °C 5,3 °C 0,0 km/h (0 Bft)
12.10.2019 07:52 5,3 °C 87 % 1017,8 hPa 0,0 mm 0,0 km/h (0 Bft) NW 319 ° 0 min 0,000 mm 0,0 UV-I 11 W/m² 3,3 °C 5,3 °C 0,0 km/h (0 Bft)
12.10.2019 07:53 5,3 °C 86 % 1017,8 hPa 0,0 mm 0,0 km/h (0 Bft) NW 319 ° 0 min 0,000 mm 0,0 UV-I 11 W/m² 3,2 °C 5,3 °C 0,0 km/h (0 Bft)
12.10.2019 07:54 5,3 °C 87 % 1017,9 hPa 0,0 mm 0,0 km/h (0 Bft) NW 319 ° 0 min 0,000 mm 0,0 UV-I 11 W/m² 3,3 °C 5,3 °C 0,0 km/h (0 Bft)
12.10.2019 07:55 5,3 °C 87 % 1017,9 hPa 0,0 mm 0,0 km/h (0 Bft) NW 319 ° 0 min 0,000 mm 0,0 UV-I 11 W/m² 3,3 °C 5,3 °C 0,0 km/h (0 Bft)
12.10.2019 07:56 5,3 °C 87 % 1017,9 hPa 0,0 mm 0,0 km/h (0 Bft) NW 319 ° 0 min 0,000 mm 0,0 UV-I 11 W/m² 3,3 °C 5,3 °C 0,0 km/h (0 Bft)
12.10.2019 07:57 5,3 °C 86 % 1017,9 hPa 0,0 mm 0,0 km/h (0 Bft) NW 319 ° 0 min 0,000 mm 0,0 UV-I 11 W/m² 3,2 °C 5,3 °C 0,0 km/h (0 Bft)
12.10.2019 07:58 5,3 °C 87 % 1017,9 hPa 0,0 mm 0,0 km/h (0 Bft) NW 319 ° 0 min 0,000 mm 0,0 UV-I 12 W/m² 3,3 °C 5,3 °C 0,0 km/h (0 Bft)
12.10.2019 07:59 5,3 °C 86 % 1018,0 hPa 0,0 mm 0,0 km/h (0 Bft) NW 319 ° 0 min 0,000 mm 0,0 UV-I 12 W/m² 3,2 °C 5,3 °C 0,0 km/h (0 Bft)
12.10.2019 08:00 5,4 °C 86 % 1017,9 hPa 0,0 mm 0,0 km/h (0 Bft) NW 319 ° 0 min 0,000 mm 0,0 UV-I 12 W/m² 3,3 °C 5,4 °C 0,0 km/h (0 Bft)
12.10.2019 08:01 5,4 °C 86 % 1018,0 hPa 0,0 mm 0,0 km/h (0 Bft) NW 319 ° 0 min 0,000 mm 0,0 UV-I 12 W/m² 3,3 °C 5,4 °C 0,0 km/h (0 Bft)
12.10.2019 08:02 5,4 °C 86 % 1018,0 hPa 0,0 mm 0,0 km/h (0 Bft) NW 319 ° 0 min 0,000 mm 0,0 UV-I 12 W/m² 3,3 °C 5,4 °C 0,0 km/h (0 Bft)
12.10.2019 08:03 5,4 °C 86 % 1018,0 hPa 0,0 mm 0,0 km/h (0 Bft) NW 319 ° 0 min 0,000 mm 0,0 UV-I 12 W/m² 3,3 °C 5,4 °C 0,0 km/h (0 Bft)
12.10.2019 08:04 5,4 °C 86 % 1018,0 hPa 0,0 mm 0,0 km/h (0 Bft) NW 319 ° 0 min 0,000 mm 0,0 UV-I 12 W/m² 3,3 °C 5,4 °C 0,0 km/h (0 Bft)
12.10.2019 08:05 5,3 °C 86 % 1017,9 hPa 0,0 mm 0,0 km/h (0 Bft) NW 319 ° 0 min 0,000 mm 0,0 UV-I 12 W/m² 3,2 °C 5,3 °C 0,0 km/h (0 Bft)
12.10.2019 08:06 5,4 °C 86 % 1018,0 hPa 0,0 mm 0,0 km/h (0 Bft) NW 319 ° 0 min 0,000 mm 0,0 UV-I 14 W/m² 3,3 °C 5,4 °C 0,0 km/h (0 Bft)
12.10.2019 08:07 5,3 °C 86 % 1018,0 hPa 0,0 mm 0,0 km/h (0 Bft) NW 319 ° 0 min 0,000 mm 0,0 UV-I 14 W/m² 3,2 °C 5,3 °C 0,0 km/h (0 Bft)
12.10.2019 08:08 5,3 °C 86 % 1018,0 hPa 0,0 mm 0,0 km/h (0 Bft) NW 319 ° 0 min 0,000 mm 0,0 UV-I 14 W/m² 3,2 °C 5,3 °C 0,0 km/h (0 Bft)
12.10.2019 08:09 5,2 °C 86 % 1018,0 hPa 0,0 mm 0,0 km/h (0 Bft) NW 319 ° 0 min 0,000 mm 0,0 UV-I 14 W/m² 3,1 °C 5,2 °C 0,0 km/h (0 Bft)
12.10.2019 08:10 5,2 °C 86 % 1018,0 hPa 0,0 mm 0,0 km/h (0 Bft) NW 319 ° 0 min 0,000 mm 0,0 UV-I 14 W/m² 3,1 °C 5,2 °C 0,0 km/h (0 Bft)
12.10.2019 08:11 5,3 °C 86 % 1018,0 hPa 0,0 mm 0,0 km/h (0 Bft) NW 319 ° 0 min 0,000 mm 0,0 UV-I 14 W/m² 3,2 °C 5,3 °C 0,0 km/h (0 Bft)
12.10.2019 08:12 5,4 °C 86 % 1018,0 hPa 0,0 mm 0,0 km/h (0 Bft) NW 319 ° 0 min 0,000 mm 0,0 UV-I 14 W/m² 3,3 °C 5,4 °C 0,0 km/h (0 Bft)
12.10.2019 08:13 5,5 °C 86 % 1018,0 hPa 0,0 mm 0,0 km/h (0 Bft) NW 319 ° 0 min 0,000 mm 0,0 UV-I 14 W/m² 3,3 °C 5,5 °C 0,0 km/h (0 Bft)
12.10.2019 08:14 5,6 °C 85 % 1018,0 hPa 0,0 mm 0,0 km/h (0 Bft) NW 319 ° 0 min 0,000 mm 0,0 UV-I 14 W/m² 3,3 °C 5,6 °C 0,0 km/h (0 Bft)
12.10.2019 08:15 5,6 °C 85 % 1018,0 hPa 0,0 mm 0,0 km/h (0 Bft) NW 319 ° 0 min 0,000 mm 0,0 UV-I 14 W/m² 3,3 °C 5,6 °C 0,0 km/h (0 Bft)
12.10.2019 08:16 5,6 °C 86 % 1018,0 hPa 0,0 mm 0,0 km/h (0 Bft) NW 319 ° 0 min 0,000 mm 0,0 UV-I 16 W/m² 3,4 °C 5,6 °C 0,0 km/h (0 Bft)
12.10.2019 08:17 5,7 °C 86 % 1018,0 hPa 0,0 mm 0,0 km/h (0 Bft) NW 319 ° 0 min 0,000 mm 0,0 UV-I 16 W/m² 3,5 °C 5,7 °C 0,0 km/h (0 Bft)
12.10.2019 08:18 5,8 °C 86 % 1018,0 hPa 0,0 mm 0,0 km/h (0 Bft) NW 319 ° 0 min 0,000 mm 0,0 UV-I 16 W/m² 3,6 °C 5,8 °C 0,0 km/h (0 Bft)
12.10.2019 08:19 5,9 °C 86 % 1018,0 hPa 0,0 mm 3,0 km/h (1 Bft) NW 319 ° 0 min 0,000 mm 0,0 UV-I 16 W/m² 3,7 °C 5,9 °C 4,8 km/h (1 Bft)
12.10.2019 08:20 5,9 °C 85 % 1018,0 hPa 0,0 mm 0,6 km/h (0 Bft) NW 319 ° 0 min 0,000 mm 0,0 UV-I 16 W/m² 3,6 °C 5,9 °C 3,2 km/h (1 Bft)
12.10.2019 08:21 5,9 °C 84 % 1018,0 hPa 0,0 mm 0,7 km/h (0 Bft) NW 319 ° 0 min 0,000 mm 0,0 UV-I 16 W/m² 3,4 °C 5,9 °C 3,2 km/h (1 Bft)
12.10.2019 08:22 5,9 °C 84 % 1018,1 hPa 0,0 mm 2,4 km/h (1 Bft) NW 319 ° 0 min 0,000 mm 0,0 UV-I 16 W/m² 3,4 °C 5,9 °C 4,8 km/h (1 Bft)
12.10.2019 08:23 5,9 °C 84 % 1018,1 hPa 0,0 mm 0,4 km/h (0 Bft) NW 319 ° 0 min 0,000 mm 0,0 UV-I 16 W/m² 3,4 °C 5,9 °C 3,2 km/h (1 Bft)
12.10.2019 08:24 5,9 °C 84 % 1018,1 hPa 0,0 mm 0,0 km/h (0 Bft) NW 319 ° 0 min 0,000 mm 0,0 UV-I 16 W/m² 3,4 °C 5,9 °C 0,0 km/h (0 Bft)
12.10.2019 08:25 5,9 °C 85 % 1018,1 hPa 0,0 mm 0,0 km/h (0 Bft) NW 319 ° 0 min 0,000 mm 0,0 UV-I 16 W/m² 3,6 °C 5,9 °C 0,0 km/h (0 Bft)
12.10.2019 08:26 5,9 °C 85 % 1018,2 hPa 0,0 mm 0,0 km/h (0 Bft) NW 319 ° 0 min 0,000 mm 0,0 UV-I 16 W/m² 3,6 °C 5,9 °C 0,0 km/h (0 Bft)
12.10.2019 08:27 6,0 °C 85 % 1018,1 hPa 0,0 mm 0,0 km/h (0 Bft) NW 319 ° 0 min 0,000 mm 0,0 UV-I 18 W/m² 3,7 °C 6,0 °C 0,0 km/h (0 Bft)
12.10.2019 08:28 6,1 °C 84 % 1018,2 hPa 0,0 mm 0,0 km/h (0 Bft) NW 319 ° 0 min 0,000 mm 0,0 UV-I 18 W/m² 3,6 °C 6,1 °C 0,0 km/h (0 Bft)
12.10.2019 08:29 6,1 °C 84 % 1018,1 hPa 0,0 mm 1,2 km/h (1 Bft) NW 319 ° 0 min 0,000 mm 0,0 UV-I 18 W/m² 3,6 °C 6,1 °C 3,2 km/h (1 Bft)
12.10.2019 08:30 6,2 °C 84 % 1018,1 hPa 0,0 mm 0,9 km/h (0 Bft) NW 319 ° 0 min 0,000 mm 0,0 UV-I 18 W/m² 3,7 °C 6,2 °C 3,2 km/h (1 Bft)
12.10.2019 08:31 6,3 °C 84 % 1018,1 hPa 0,0 mm 0,0 km/h (0 Bft) NW 319 ° 0 min 0,000 mm 0,0 UV-I 18 W/m² 3,8 °C 6,3 °C 0,0 km/h (0 Bft)
12.10.2019 08:32 6,4 °C 84 % 1018,2 hPa 0,0 mm 0,2 km/h (0 Bft) NW 319 ° 0 min 0,000 mm 0,0 UV-I 18 W/m² 3,9 °C 6,4 °C 1,6 km/h (1 Bft)
12.10.2019 08:33 6,5 °C 83 % 1018,3 hPa 0,0 mm 0,0 km/h (0 Bft) NW 319 ° 0 min 0,000 mm 0,0 UV-I 18 W/m² 3,8 °C 6,5 °C 0,0 km/h (0 Bft)
12.10.2019 08:34 6,5 °C 83 % 1018,3 hPa 0,0 mm 3,6 km/h (1 Bft) NW 323 ° 0 min 0,000 mm 0,0 UV-I 18 W/m² 3,8 °C 6,5 °C 4,8 km/h (1 Bft)
12.10.2019 08:35 6,6 °C 84 % 1018,3 hPa 0,0 mm 1,5 km/h (1 Bft) NW 323 ° 0 min 0,000 mm 0,0 UV-I 18 W/m² 4,1 °C 6,6 °C 4,8 km/h (1 Bft)
12.10.2019 08:36 6,7 °C 84 % 1018,3 hPa 0,2 mm 2,5 km/h (1 Bft) NW 323 ° 0 min 0,000 mm 0,0 UV-I 19 W/m² 4,2 °C 6,7 °C 4,8 km/h (1 Bft)
12.10.2019 08:37 6,8 °C 83 % 1018,3 hPa 0,0 mm 0,0 km/h (0 Bft) NW 323 ° 0 min 0,000 mm 0,0 UV-I 19 W/m² 4,1 °C 6,8 °C 0,0 km/h (0 Bft)
12.10.2019 08:38 6,8 °C 83 % 1018,2 hPa 0,0 mm 0,0 km/h (0 Bft) NW 323 ° 0 min 0,000 mm 0,0 UV-I 19 W/m² 4,1 °C 6,8 °C 0,0 km/h (0 Bft)
12.10.2019 08:39 6,8 °C 84 % 1018,2 hPa 0,0 mm 0,0 km/h (0 Bft) NW 323 ° 0 min 0,000 mm 0,0 UV-I 19 W/m² 4,3 °C 6,8 °C 0,0 km/h (0 Bft)
12.10.2019 08:40 6,8 °C 83 % 1018,2 hPa 0,0 mm 0,0 km/h (0 Bft) NW 323 ° 0 min 0,000 mm 0,0 UV-I 19 W/m² 4,1 °C 6,8 °C 0,0 km/h (0 Bft)
12.10.2019 08:41 6,9 °C 83 % 1018,2 hPa 0,0 mm 0,0 km/h (0 Bft) NW 323 ° 0 min 0,000 mm 0,0 UV-I 19 W/m² 4,2 °C 6,9 °C 0,0 km/h (0 Bft)
12.10.2019 08:42 6,9 °C 83 % 1018,3 hPa 0,0 mm 1,3 km/h (1 Bft) NW 323 ° 0 min 0,000 mm 0,0 UV-I 19 W/m² 4,2 °C 6,9 °C 4,8 km/h (1 Bft)
12.10.2019 08:43 6,9 °C 83 % 1018,3 hPa 0,0 mm 1,7 km/h (1 Bft) NW 323 ° 0 min 0,000 mm 0,0 UV-I 19 W/m² 4,2 °C 6,9 °C 3,2 km/h (1 Bft)
12.10.2019 08:44 6,9 °C 83 % 1018,2 hPa 0,0 mm 0,0 km/h (0 Bft) W-NW 286 ° 0 min 0,000 mm 0,0 UV-I 19 W/m² 4,2 °C 6,9 °C 0,0 km/h (0 Bft)
12.10.2019 08:45 6,9 °C 83 % 1018,3 hPa 0,0 mm 2,5 km/h (1 Bft) S 170 ° 0 min 0,000 mm 0,0 UV-I 19 W/m² 4,2 °C 6,9 °C 6,4 km/h (2 Bft)
12.10.2019 08:46 7,1 °C 83 % 1018,3 hPa 0,0 mm 0,0 km/h (0 Bft) S 171 ° 0 min 0,000 mm 0,0 UV-I 19 W/m² 4,4 °C 7,1 °C 0,0 km/h (0 Bft)
12.10.2019 08:47 7,1 °C 83 % 1018,3 hPa 0,0 mm 0,0 km/h (0 Bft) S 171 ° 0 min 0,000 mm 0,0 UV-I 19 W/m² 4,4 °C 7,1 °C 0,0 km/h (0 Bft)
12.10.2019 08:48 7,2 °C 83 % 1018,3 hPa 0,0 mm 0,0 km/h (0 Bft) S 171 ° 0 min 0,000 mm 0,0 UV-I 21 W/m² 4,5 °C 7,2 °C 0,0 km/h (0 Bft)
12.10.2019 08:49 7,2 °C 83 % 1018,3 hPa 0,0 mm 0,0 km/h (0 Bft) S 171 ° 0 min 0,000 mm 0,0 UV-I 21 W/m² 4,5 °C 7,2 °C 0,0 km/h (0 Bft)
12.10.2019 08:50 7,3 °C 83 % 1018,3 hPa 0,0 mm 0,0 km/h (0 Bft) S 171 ° 0 min 0,000 mm 0,0 UV-I 21 W/m² 4,6 °C 7,3 °C 0,0 km/h (0 Bft)
12.10.2019 08:51 7,4 °C 83 % 1018,3 hPa 0,0 mm 0,0 km/h (0 Bft) S 171 ° 0 min 0,000 mm 0,0 UV-I 21 W/m² 4,7 °C 7,4 °C 0,0 km/h (0 Bft)
12.10.2019 08:52 7,5 °C 82 % 1018,2 hPa 0,0 mm 0,0 km/h (0 Bft) S 171 ° 0 min 0,000 mm 0,0 UV-I 21 W/m² 4,6 °C 7,5 °C 0,0 km/h (0 Bft)
12.10.2019 08:53 7,6 °C 83 % 1018,2 hPa 0,0 mm 0,0 km/h (0 Bft) S 171 ° 0 min 0,000 mm 0,0 UV-I 21 W/m² 4,9 °C 7,6 °C 0,0 km/h (0 Bft)
12.10.2019 08:54 7,7 °C 83 % 1018,3 hPa 0,0 mm 0,0 km/h (0 Bft) S 171 ° 0 min 0,000 mm 0,0 UV-I 21 W/m² 5,0 °C 7,7 °C 0,0 km/h (0 Bft)
12.10.2019 08:55 7,7 °C 82 % 1018,3 hPa 0,0 mm 0,0 km/h (0 Bft) S 171 ° 0 min 0,000 mm 0,0 UV-I 21 W/m² 4,8 °C 7,7 °C 0,0 km/h (0 Bft)
12.10.2019 08:56 7,8 °C 82 % 1018,2 hPa 0,0 mm 0,0 km/h (0 Bft) W 261 ° 0 min 0,000 mm 0,0 UV-I 21 W/m² 4,9 °C 7,8 °C 0,0 km/h (0 Bft)
12.10.2019 08:57 7,9 °C 82 % 1018,3 hPa 0,0 mm 0,0 km/h (0 Bft) W 261 ° 0 min 0,000 mm 0,0 UV-I 21 W/m² 5,0 °C 7,9 °C 0,0 km/h (0 Bft)
12.10.2019 08:58 8,1 °C 82 % 1018,4 hPa 0,0 mm 0,0 km/h (0 Bft) W 261 ° 0 min 0,000 mm 0,0 UV-I 21 W/m² 5,2 °C 8,1 °C 0,0 km/h (0 Bft)
12.10.2019 08:59 8,3 °C 81 % 1018,3 hPa 0,0 mm 0,0 km/h (0 Bft) W 259 ° 0 min 0,000 mm 0,0 UV-I 23 W/m² 5,2 °C 8,3 °C 0,0 km/h (0 Bft)
12.10.2019 09:00 8,4 °C 80 % 1018,3 hPa 0,0 mm 0,0 km/h (0 Bft) S 171 ° 0 min 0,000 mm 0,0 UV-I 23 W/m² 5,2 °C 8,4 °C 0,0 km/h (0 Bft)
12.10.2019 09:01 8,6 °C 79 % 1018,3 hPa 0,0 mm 0,0 km/h (0 Bft) S 171 ° 0 min 0,000 mm 0,0 UV-I 23 W/m² 5,2 °C 8,6 °C 0,0 km/h (0 Bft)
12.10.2019 09:02 8,8 °C 79 % 1018,3 hPa 0,0 mm 0,0 km/h (0 Bft) S 171 ° 0 min 0,000 mm 0,0 UV-I 23 W/m² 5,4 °C 8,8 °C 0,0 km/h (0 Bft)
12.10.2019 09:03 8,8 °C 79 % 1018,4 hPa 0,0 mm 0,0 km/h (0 Bft) S 171 ° 0 min 0,000 mm 0,0 UV-I 23 W/m² 5,4 °C 8,8 °C 0,0 km/h (0 Bft)
12.10.2019 09:04 8,7 °C 80 % 1018,4 hPa 0,0 mm 1,1 km/h (1 Bft) W-SW 244 ° 0 min 0,000 mm 0,0 UV-I 23 W/m² 5,4 °C 8,7 °C 4,8 km/h (1 Bft)
12.10.2019 09:05 8,7 °C 79 % 1018,5 hPa 0,0 mm 2,5 km/h (1 Bft) W-SW 244 ° 0 min 0,000 mm 0,0 UV-I 23 W/m² 5,3 °C 8,7 °C 4,8 km/h (1 Bft)
12.10.2019 09:06 8,7 °C 80 % 1018,4 hPa 0,0 mm 0,0 km/h (0 Bft) W-SW 244 ° 0 min 0,000 mm 0,0 UV-I 23 W/m² 5,4 °C 8,7 °C 0,0 km/h (0 Bft)
12.10.2019 09:07 8,6 °C 80 % 1018,4 hPa 0,0 mm 0,1 km/h (0 Bft) W-SW 244 ° 0 min 0,000 mm 0,0 UV-I 23 W/m² 5,3 °C 8,6 °C 1,6 km/h (1 Bft)
12.10.2019 09:08 8,6 °C 80 % 1018,4 hPa 0,0 mm 0,1 km/h (0 Bft) W-SW 244 ° 0 min 0,000 mm 0,0 UV-I 25 W/m² 5,3 °C 8,6 °C 1,6 km/h (1 Bft)
12.10.2019 09:09 8,6 °C 80 % 1018,4 hPa 0,0 mm 0,9 km/h (0 Bft) S-SO 155 ° 0 min 0,000 mm 0,0 UV-I 25 W/m² 5,3 °C 8,6 °C 3,2 km/h (1 Bft)
12.10.2019 09:10 8,7 °C 80 % 1018,3 hPa 0,0 mm 3,6 km/h (1 Bft) S-SO 155 ° 0 min 0,000 mm 0,0 UV-I 25 W/m² 5,4 °C 8,7 °C 4,8 km/h (1 Bft)
12.10.2019 09:11 8,9 °C 81 % 1018,4 hPa 0,0 mm 1,8 km/h (1 Bft) S-SO 155 ° 0 min 0,000 mm 0,0 UV-I 25 W/m² 5,8 °C 8,9 °C 3,2 km/h (1 Bft)
12.10.2019 09:12 8,9 °C 79 % 1018,4 hPa 0,0 mm 0,0 km/h (0 Bft) S-SO 155 ° 0 min 0,000 mm 0,0 UV-I 25 W/m² 5,5 °C 8,9 °C 0,0 km/h (0 Bft)
12.10.2019 09:13 9,0 °C 79 % 1018,4 hPa 0,0 mm 0,0 km/h (0 Bft) S-SO 155 ° 0 min 0,000 mm 0,0 UV-I 25 W/m² 5,6 °C 9,0 °C 0,0 km/h (0 Bft)
12.10.2019 09:14 9,1 °C 79 % 1018,4 hPa 0,0 mm 1,9 km/h (1 Bft) S-SO 155 ° 0 min 0,000 mm 0,0 UV-I 25 W/m² 5,7 °C 9,1 °C 3,2 km/h (1 Bft)
12.10.2019 09:15 9,1 °C 78 % 1018,3 hPa 0,0 mm 0,0 km/h (0 Bft) S-SO 155 ° 0 min 0,000 mm 0,0 UV-I 25 W/m² 5,5 °C 9,1 °C 0,0 km/h (0 Bft)
12.10.2019 09:16 9,1 °C 78 % 1018,3 hPa 0,0 mm 0,6 km/h (0 Bft) S-SO 155 ° 0 min 0,000 mm 0,0 UV-I 25 W/m² 5,5 °C 9,1 °C 3,2 km/h (1 Bft)
12.10.2019 09:17 9,2 °C 78 % 1018,3 hPa 0,0 mm 0,1 km/h (0 Bft) S-SO 155 ° 0 min 0,000 mm 0,0 UV-I 25 W/m² 5,6 °C 9,2 °C 1,6 km/h (1 Bft)
12.10.2019 09:18 9,3 °C 79 % 1018,3 hPa 0,0 mm 0,0 km/h (0 Bft) S-SO 155 ° 0 min 0,000 mm 0,0 UV-I 25 W/m² 5,8 °C 9,3 °C 0,0 km/h (0 Bft)
12.10.2019 09:19 9,3 °C 78 % 1018,3 hPa 0,0 mm 0,2 km/h (0 Bft) S-SO 155 ° 0 min 0,000 mm 0,0 UV-I 25 W/m² 5,7 °C 9,3 °C 1,6 km/h (1 Bft)
12.10.2019 09:20 9,4 °C 78 % 1018,3 hPa 0,0 mm 0,4 km/h (0 Bft) S-SO 155 ° 0 min 0,000 mm 0,0 UV-I 25 W/m² 5,8 °C 9,4 °C 1,6 km/h (1 Bft)
12.10.2019 09:21 9,4 °C 77 % 1018,4 hPa 0,0 mm 0,0 km/h (0 Bft) S-SO 155 ° 0 min 0,000 mm 0,0 UV-I 25 W/m² 5,6 °C 9,4 °C 0,0 km/h (0 Bft)
12.10.2019 09:22 9,4 °C 78 % 1018,3 hPa 0,0 mm 0,0 km/h (0 Bft) S-SO 155 ° 0 min 0,000 mm 0,0 UV-I 25 W/m² 5,8 °C 9,4 °C 0,0 km/h (0 Bft)
12.10.2019 09:23 9,4 °C 78 % 1018,4 hPa 0,0 mm 0,0 km/h (0 Bft) S-SO 155 ° 0 min 0,000 mm 0,0 UV-I 26 W/m² 5,8 °C 9,4 °C 0,0 km/h (0 Bft)
12.10.2019 09:24 9,3 °C 78 % 1018,3 hPa 0,0 mm 0,0 km/h (0 Bft) S-SO 155 ° 0 min 0,000 mm 0,0 UV-I 26 W/m² 5,7 °C 9,3 °C 0,0 km/h (0 Bft)
12.10.2019 09:25 9,4 °C 78 % 1018,4 hPa 0,0 mm 0,0 km/h (0 Bft) S-SO 155 ° 0 min 0,000 mm 0,0 UV-I 26 W/m² 5,8 °C 9,4 °C 0,0 km/h (0 Bft)
12.10.2019 09:26 9,5 °C 77 % 1018,4 hPa 0,0 mm 0,0 km/h (0 Bft) S-SO 155 ° 0 min 0,000 mm 0,0 UV-I 26 W/m² 5,7 °C 9,5 °C 0,0 km/h (0 Bft)
12.10.2019 09:27 9,7 °C 77 % 1018,3 hPa 0,0 mm 0,6 km/h (0 Bft) S-SO 155 ° 0 min 0,000 mm 0,0 UV-I 26 W/m² 5,9 °C 9,7 °C 3,2 km/h (1 Bft)
12.10.2019 09:28 9,8 °C 76 % 1018,4 hPa 0,0 mm 0,1 km/h (0 Bft) S-SO 155 ° 0 min 0,000 mm 0,0 UV-I 26 W/m² 5,8 °C 9,8 °C 1,6 km/h (1 Bft)
12.10.2019 09:29 9,7 °C 77 % 1018,4 hPa 0,0 mm 0,6 km/h (0 Bft) S-SO 155 ° 0 min 0,000 mm 0,0 UV-I 26 W/m² 5,9 °C 9,7 °C 1,6 km/h (1 Bft)
12.10.2019 09:30 9,7 °C 78 % 1018,4 hPa 0,0 mm 0,0 km/h (0 Bft) S-SO 155 ° 0 min 0,000 mm 0,0 UV-I 26 W/m² 6,1 °C 9,7 °C 0,0 km/h (0 Bft)
12.10.2019 09:31 9,7 °C 78 % 1018,4 hPa 0,0 mm 0,7 km/h (0 Bft) S-SO 155 ° 0 min 0,000 mm 0,0 UV-I 26 W/m² 6,1 °C 9,7 °C 1,6 km/h (1 Bft)
12.10.2019 09:32 9,8 °C 78 % 1018,4 hPa 0,0 mm 0,0 km/h (0 Bft) S-SO 155 ° 0 min 0,000 mm 0,0 UV-I 26 W/m² 6,1 °C 9,8 °C 0,0 km/h (0 Bft)
12.10.2019 09:33 10,0 °C 77 % 1018,4 hPa 0,0 mm 0,0 km/h (0 Bft) S-SO 155 ° 0 min 0,000 mm 0,0 UV-I 26 W/m² 6,2 °C 10,0 °C 0,0 km/h (0 Bft)
12.10.2019 09:34 10,1 °C 77 % 1018,4 hPa 0,0 mm 0,0 km/h (0 Bft) S-SO 155 ° 0 min 0,000 mm 0,0 UV-I 26 W/m² 6,3 °C 10,1 °C 0,0 km/h (0 Bft)
12.10.2019 09:35 10,1 °C 77 % 1018,4 hPa 0,0 mm 0,0 km/h (0 Bft) S-SO 155 ° 0 min 0,000 mm 0,0 UV-I 26 W/m² 6,3 °C 10,1 °C 0,0 km/h (0 Bft)
12.10.2019 09:36 10,1 °C 77 % 1018,5 hPa 0,0 mm 0,0 km/h (0 Bft) S-SO 155 ° 0 min 0,000 mm 0,0 UV-I 26 W/m² 6,3 °C 10,1 °C 0,0 km/h (0 Bft)
12.10.2019 09:37 10,2 °C 77 % 1018,5 hPa 0,0 mm 0,0 km/h (0 Bft) S-SO 155 ° 0 min 0,000 mm 0,0 UV-I 26 W/m² 6,4 °C 10,2 °C 0,0 km/h (0 Bft)
12.10.2019 09:38 10,3 °C 77 % 1018,5 hPa 0,0 mm 0,0 km/h (0 Bft) S-SO 155 ° 0 min 0,000 mm 0,0 UV-I 28 W/m² 6,4 °C 10,3 °C 0,0 km/h (0 Bft)
12.10.2019 09:39 10,3 °C 77 % 1018,6 hPa 0,0 mm 0,0 km/h (0 Bft) S-SO 155 ° 0 min 0,000 mm 0,0 UV-I 28 W/m² 6,4 °C 10,3 °C 0,0 km/h (0 Bft)
12.10.2019 09:40 10,2 °C 78 % 1018,5 hPa 0,0 mm 0,0 km/h (0 Bft) S-SO 155 ° 0 min 0,000 mm 0,0 UV-I 28 W/m² 6,5 °C 10,2 °C 0,0 km/h (0 Bft)
12.10.2019 09:41 10,3 °C 78 % 1018,5 hPa 0,0 mm 0,1 km/h (0 Bft) S-SO 155 ° 0 min 0,000 mm 0,0 UV-I 28 W/m² 6,6 °C 10,3 °C 1,6 km/h (1 Bft)
12.10.2019 09:42 10,3 °C 78 % 1018,5 hPa 0,0 mm 2,2 km/h (1 Bft) S-SO 155 ° 0 min 0,000 mm 0,0 UV-I 28 W/m² 6,6 °C 10,3 °C 3,2 km/h (1 Bft)
12.10.2019 09:43 10,5 °C 77 % 1018,5 hPa 0,0 mm 0,8 km/h (0 Bft) S-SO 155 ° 0 min 0,000 mm 0,0 UV-I 28 W/m² 6,6 °C 10,5 °C 3,2 km/h (1 Bft)
12.10.2019 09:44 10,6 °C 77 % 1018,5 hPa 0,0 mm 0,0 km/h (0 Bft) S-SO 155 ° 0 min 0,000 mm 0,0 UV-I 28 W/m² 6,7 °C 10,6 °C 0,0 km/h (0 Bft)
12.10.2019 09:45 10,7 °C 77 % 1018,5 hPa 0,0 mm 0,0 km/h (0 Bft) S-SO 155 ° 0 min 0,000 mm 0,0 UV-I 28 W/m² 6,8 °C 10,7 °C 0,0 km/h (0 Bft)
12.10.2019 09:46 10,7 °C 77 % 1018,5 hPa 0,0 mm 0,0 km/h (0 Bft) S-SO 155 ° 0 min 0,000 mm 0,0 UV-I 28 W/m² 6,8 °C 10,7 °C 0,0 km/h (0 Bft)
12.10.2019 09:47 10,7 °C 77 % 1018,5 hPa 0,0 mm 0,0 km/h (0 Bft) S-SO 155 ° 0 min 0,000 mm 0,0 UV-I 28 W/m² 6,8 °C 10,7 °C 0,0 km/h (0 Bft)
12.10.2019 09:48 10,7 °C 76 % 1018,6 hPa 0,0 mm 0,0 km/h (0 Bft) S-SO 155 ° 0 min 0,000 mm 0,0 UV-I 28 W/m² 6,6 °C 10,7 °C 0,0 km/h (0 Bft)
12.10.2019 09:49 10,7 °C 76 % 1018,6 hPa 0,0 mm 0,0 km/h (0 Bft) S-SO 155 ° 0 min 0,000 mm 0,0 UV-I 28 W/m² 6,6 °C 10,7 °C 0,0 km/h (0 Bft)
12.10.2019 09:50 10,8 °C 77 % 1018,6 hPa 0,0 mm 0,0 km/h (0 Bft) S-SO 155 ° 0 min 0,000 mm 0,0 UV-I 28 W/m² 6,9 °C 10,8 °C 0,0 km/h (0 Bft)
12.10.2019 09:51 10,8 °C 77 % 1018,5 hPa 0,0 mm 0,0 km/h (0 Bft) S-SO 155 ° 0 min 0,000 mm 0,0 UV-I 28 W/m² 6,9 °C 10,8 °C 0,0 km/h (0 Bft)
12.10.2019 09:52 10,8 °C 76 % 1018,5 hPa 0,0 mm 0,0 km/h (0 Bft) S-SO 155 ° 0 min 0,000 mm 0,0 UV-I 28 W/m² 6,7 °C 10,8 °C 0,0 km/h (0 Bft)
12.10.2019 09:53 10,8 °C 77 % 1018,6 hPa 0,0 mm 0,0 km/h (0 Bft) S-SO 155 ° 0 min 0,000 mm 0,0 UV-I 28 W/m² 6,9 °C 10,8 °C 0,0 km/h (0 Bft)
12.10.2019 09:54 10,8 °C 77 % 1018,6 hPa 0,0 mm 0,0 km/h (0 Bft) S-SO 155 ° 0 min 0,000 mm 0,0 UV-I 28 W/m² 6,9 °C 10,8 °C 0,0 km/h (0 Bft)
12.10.2019 09:55 10,7 °C 77 % 1018,6 hPa 0,0 mm 0,0 km/h (0 Bft) S-SO 155 ° 0 min 0,000 mm 0,0 UV-I 28 W/m² 6,8 °C 10,7 °C 0,0 km/h (0 Bft)
12.10.2019 09:56 10,7 °C 78 % 1018,5 hPa 0,0 mm 0,0 km/h (0 Bft) S-SO 155 ° 0 min 0,000 mm 0,0 UV-I 30 W/m² 7,0 °C 10,7 °C 0,0 km/h (0 Bft)
12.10.2019 09:57 10,7 °C 78 % 1018,6 hPa 0,0 mm 0,0 km/h (0 Bft) S-SO 155 ° 0 min 0,000 mm 0,0 UV-I 30 W/m² 7,0 °C 10,7 °C 0,0 km/h (0 Bft)
12.10.2019 09:58 10,7 °C 78 % 1018,6 hPa 0,0 mm 0,0 km/h (0 Bft) S-SO 155 ° 0 min 0,000 mm 0,0 UV-I 30 W/m² 7,0 °C 10,7 °C 0,0 km/h (0 Bft)
12.10.2019 09:59 10,8 °C 78 % 1018,6 hPa 0,0 mm 0,0 km/h (0 Bft) S-SO 155 ° 0 min 0,000 mm 0,0 UV-I 30 W/m² 7,1 °C 10,8 °C 0,0 km/h (0 Bft)
12.10.2019 10:00 10,8 °C 78 % 1018,5 hPa 0,0 mm 0,0 km/h (0 Bft) S-SO 155 ° 0 min 0,000 mm 0,0 UV-I 30 W/m² 7,1 °C 10,8 °C 0,0 km/h (0 Bft)
12.10.2019 10:01 11,0 °C 78 % 1018,5 hPa 0,0 mm 0,0 km/h (0 Bft) S-SO 155 ° 0 min 0,025 mm 0,0 UV-I 30 W/m² 7,3 °C 11,0 °C 0,0 km/h (0 Bft)
12.10.2019 10:02 11,1 °C 77 % 1018,5 hPa 0,0 mm 0,0 km/h (0 Bft) S-SO 155 ° 0 min 0,000 mm 0,0 UV-I 32 W/m² 7,2 °C 11,1 °C 0,0 km/h (0 Bft)
12.10.2019 10:03 11,1 °C 77 % 1018,5 hPa 0,0 mm 0,0 km/h (0 Bft) S-SO 155 ° 0 min 0,000 mm 0,0 UV-I 32 W/m² 7,2 °C 11,1 °C 0,0 km/h (0 Bft)
12.10.2019 10:04 11,2 °C 77 % 1018,6 hPa 0,0 mm 0,0 km/h (0 Bft) S-SO 155 ° 0 min 0,000 mm 0,0 UV-I 30 W/m² 7,3 °C 11,2 °C 0,0 km/h (0 Bft)
12.10.2019 10:05 11,3 °C 78 % 1018,5 hPa 0,0 mm 0,0 km/h (0 Bft) S-SO 155 ° 0 min 0,000 mm 0,0 UV-I 30 W/m² 7,6 °C 11,3 °C 0,0 km/h (0 Bft)
12.10.2019 10:06 11,4 °C 78 % 1018,5 hPa 0,0 mm 0,0 km/h (0 Bft) S-SO 155 ° 0 min 0,000 mm 0,0 UV-I 32 W/m² 7,7 °C 11,4 °C 0,0 km/h (0 Bft)
12.10.2019 10:07 11,6 °C 77 % 1018,6 hPa 0,0 mm 0,0 km/h (0 Bft) S-SO 155 ° 0 min 0,000 mm 0,0 UV-I 32 W/m² 7,7 °C 11,6 °C 0,0 km/h (0 Bft)
12.10.2019 10:08 11,4 °C 77 % 1018,5 hPa 0,0 mm 0,0 km/h (0 Bft) S-SO 155 ° 0 min 0,000 mm 0,0 UV-I 32 W/m² 7,5 °C 11,4 °C 0,0 km/h (0 Bft)
12.10.2019 10:09 11,4 °C 78 % 1018,5 hPa 0,0 mm 0,0 km/h (0 Bft) S-SO 155 ° 0 min 0,000 mm 0,0 UV-I 32 W/m² 7,7 °C 11,4 °C 0,0 km/h (0 Bft)
12.10.2019 10:10 11,4 °C 78 % 1018,5 hPa 0,0 mm 0,0 km/h (0 Bft) S-SO 155 ° 0 min 0,000 mm 0,0 UV-I 32 W/m² 7,7 °C 11,4 °C 0,0 km/h (0 Bft)
12.10.2019 10:11 11,3 °C 78 % 1018,5 hPa 0,0 mm 0,0 km/h (0 Bft) S-SO 155 ° 0 min 0,000 mm 0,0 UV-I 32 W/m² 7,6 °C 11,3 °C 0,0 km/h (0 Bft)
12.10.2019 10:12 11,4 °C 77 % 1018,5 hPa 0,0 mm 0,0 km/h (0 Bft) S-SO 155 ° 0 min 0,000 mm 0,0 UV-I 32 W/m² 7,5 °C 11,4 °C 0,0 km/h (0 Bft)
12.10.2019 10:13 11,5 °C 77 % 1018,5 hPa 0,0 mm 0,0 km/h (0 Bft) S-SO 155 ° 0 min 0,000 mm 0,0 UV-I 30 W/m² 7,6 °C 11,5 °C 0,0 km/h (0 Bft)
12.10.2019 10:14 11,7 °C 76 % 1018,4 hPa 0,0 mm 0,0 km/h (0 Bft) S-SO 155 ° 0 min 0,000 mm 0,0 UV-I 32 W/m² 7,6 °C 11,7 °C 0,0 km/h (0 Bft)
12.10.2019 10:15 11,6 °C 77 % 1018,5 hPa 0,0 mm 0,0 km/h (0 Bft) S-SO 155 ° 0 min 0,000 mm 0,0 UV-I 33 W/m² 7,7 °C 11,6 °C 0,0 km/h (0 Bft)
12.10.2019 10:16 11,7 °C 77 % 1018,5 hPa 0,0 mm 0,0 km/h (0 Bft) S-SO 155 ° 0 min 0,000 mm 0,0 UV-I 32 W/m² 7,8 °C 11,7 °C 0,0 km/h (0 Bft)
12.10.2019 10:17 11,8 °C 76 % 1018,5 hPa 0,0 mm 0,0 km/h (0 Bft) S-SO 155 ° 0 min 0,000 mm 0,0 UV-I 32 W/m² 7,7 °C 11,8 °C 0,0 km/h (0 Bft)
12.10.2019 10:18 11,9 °C 76 % 1018,5 hPa 0,0 mm 0,0 km/h (0 Bft) S-SO 155 ° 0 min 0,000 mm 0,0 UV-I 32 W/m² 7,8 °C 11,9 °C 0,0 km/h (0 Bft)
12.10.2019 10:19 12,0 °C 75 % 1018,5 hPa 0,0 mm 0,0 km/h (0 Bft) S-SO 155 ° 0 min 0,000 mm 0,0 UV-I 35 W/m² 7,7 °C 12,0 °C 0,0 km/h (0 Bft)
12.10.2019 10:20 11,9 °C 76 % 1018,5 hPa 0,0 mm 0,0 km/h (0 Bft) S-SO 155 ° 0 min 0,000 mm 0,0 UV-I 40 W/m² 7,8 °C 11,9 °C 0,0 km/h (0 Bft)
12.10.2019 10:21 12,0 °C 75 % 1018,5 hPa 0,0 mm 0,0 km/h (0 Bft) S-SO 155 ° 0 min 0,000 mm 0,0 UV-I 40 W/m² 7,7 °C 12,0 °C 0,0 km/h (0 Bft)
12.10.2019 10:22 12,1 °C 75 % 1018,5 hPa 0,0 mm 0,0 km/h (0 Bft) S-SO 155 ° 0 min 0,000 mm 0,0 UV-I 37 W/m² 7,8 °C 12,1 °C 0,0 km/h (0 Bft)
12.10.2019 10:23 12,1 °C 75 % 1018,6 hPa 0,0 mm 0,0 km/h (0 Bft) S-SO 155 ° 0 min 0,000 mm 0,0 UV-I 40 W/m² 7,8 °C 12,1 °C 0,0 km/h (0 Bft)
12.10.2019 10:24 12,1 °C 75 % 1018,5 hPa 0,0 mm 0,0 km/h (0 Bft) S-SO 155 ° 0 min 0,000 mm 0,0 UV-I 42 W/m² 7,8 °C 12,1 °C 0,0 km/h (0 Bft)
12.10.2019 10:25 12,0 °C 76 % 1018,5 hPa 0,0 mm 0,0 km/h (0 Bft) S-SO 155 ° 0 min 0,000 mm 0,0 UV-I 35 W/m² 7,9 °C 12,0 °C 0,0 km/h (0 Bft)
12.10.2019 10:26 12,0 °C 76 % 1018,5 hPa 0,0 mm 0,0 km/h (0 Bft) S-SO 155 ° 0 min 0,000 mm 0,0 UV-I 39 W/m² 7,9 °C 12,0 °C 0,0 km/h (0 Bft)
12.10.2019 10:27 11,9 °C 76 % 1018,4 hPa 0,0 mm 0,0 km/h (0 Bft) S-SO 155 ° 0 min 0,000 mm 0,0 UV-I 39 W/m² 7,8 °C 11,9 °C 0,0 km/h (0 Bft)
12.10.2019 10:28 11,9 °C 76 % 1018,4 hPa 0,0 mm 0,0 km/h (0 Bft) S-SO 155 ° 0 min 0,000 mm 0,0 UV-I 35 W/m² 7,8 °C 11,9 °C 0,0 km/h (0 Bft)
12.10.2019 10:29 12,1 °C 76 % 1018,5 hPa 0,0 mm 0,0 km/h (0 Bft) S-SO 155 ° 0 min 0,000 mm 0,0 UV-I 33 W/m² 8,0 °C 12,1 °C 0,0 km/h (0 Bft)
12.10.2019 10:30 12,2 °C 76 % 1018,4 hPa 0,0 mm 0,0 km/h (0 Bft) S-SO 155 ° 0 min 0,000 mm 0,0 UV-I 37 W/m² 8,1 °C 12,2 °C 0,0 km/h (0 Bft)
12.10.2019 10:31 12,3 °C 75 % 1018,5 hPa 0,0 mm 0,0 km/h (0 Bft) S-SO 155 ° 0 min 0,000 mm 0,0 UV-I 37 W/m² 8,0 °C 12,3 °C 0,0 km/h (0 Bft)
12.10.2019 10:32 12,5 °C 74 % 1018,5 hPa 0,0 mm 0,0 km/h (0 Bft) S-SO 155 ° 0 min 0,000 mm 0,0 UV-I 37 W/m² 8,0 °C 12,5 °C 0,0 km/h (0 Bft)
12.10.2019 10:33 12,7 °C 73 % 1018,5 hPa 0,0 mm 0,0 km/h (0 Bft) S-SO 155 ° 0 min 0,000 mm 0,0 UV-I 40 W/m² 8,0 °C 12,7 °C 0,0 km/h (0 Bft)
12.10.2019 10:34 12,8 °C 73 % 1018,4 hPa 0,0 mm 0,0 km/h (0 Bft) S-SO 155 ° 0 min 0,000 mm 0,0 UV-I 53 W/m² 8,1 °C 12,8 °C 0,0 km/h (0 Bft)
12.10.2019 10:35 12,9 °C 73 % 1018,4 hPa 0,0 mm 0,0 km/h (0 Bft) S-SO 155 ° 0 min 0,000 mm 0,0 UV-I 54 W/m² 8,2 °C 12,9 °C 0,0 km/h (0 Bft)
12.10.2019 10:36 12,8 °C 73 % 1018,5 hPa 0,0 mm 0,0 km/h (0 Bft) S-SO 155 ° 0 min 0,000 mm 0,0 UV-I 54 W/m² 8,1 °C 12,8 °C 0,0 km/h (0 Bft)
12.10.2019 10:37 12,7 °C 74 % 1018,5 hPa 0,0 mm 0,0 km/h (0 Bft) S-SO 155 ° 0 min 0,000 mm 0,0 UV-I 46 W/m² 8,2 °C 12,7 °C 0,0 km/h (0 Bft)
12.10.2019 10:38 12,6 °C 74 % 1018,5 hPa 0,0 mm 0,0 km/h (0 Bft) S-SO 155 ° 0 min 0,000 mm 0,0 UV-I 40 W/m² 8,1 °C 12,6 °C 0,0 km/h (0 Bft)
12.10.2019 10:39 12,7 °C 74 % 1018,4 hPa 0,0 mm 0,0 km/h (0 Bft) S-SO 155 ° 0 min 0,000 mm 0,0 UV-I 37 W/m² 8,2 °C 12,7 °C 0,0 km/h (0 Bft)
12.10.2019 10:40 12,9 °C 73 % 1018,4 hPa 0,0 mm 0,0 km/h (0 Bft) S-SO 155 ° 0 min 0,000 mm 0,0 UV-I 35 W/m² 8,2 °C 12,9 °C 0,0 km/h (0 Bft)
12.10.2019 10:41 13,1 °C 72 % 1018,4 hPa 0,0 mm 0,0 km/h (0 Bft) S-SO 155 ° 0 min 0,000 mm 0,0 UV-I 37 W/m² 8,2 °C 13,1 °C 0,0 km/h (0 Bft)
12.10.2019 10:42 13,2 °C 71 % 1018,4 hPa 0,0 mm 0,0 km/h (0 Bft) S-SO 155 ° 0 min 0,000 mm 0,0 UV-I 51 W/m² 8,1 °C 13,2 °C 0,0 km/h (0 Bft)
12.10.2019 10:43 13,3 °C 72 % 1018,4 hPa 0,0 mm 0,0 km/h (0 Bft) S-SO 155 ° 0 min 0,000 mm 1,3 UV-I 46 W/m² 8,4 °C 13,3 °C 0,0 km/h (0 Bft)
12.10.2019 10:44 13,3 °C 72 % 1018,4 hPa 0,0 mm 0,0 km/h (0 Bft) S-SO 155 ° 0 min 0,000 mm 0,0 UV-I 37 W/m² 8,4 °C 13,3 °C 0,0 km/h (0 Bft)
12.10.2019 10:45 13,3 °C 70 % 1018,4 hPa 0,0 mm 0,0 km/h (0 Bft) S-SO 155 ° 0 min 0,000 mm 0,0 UV-I 35 W/m² 7,9 °C 13,3 °C 0,0 km/h (0 Bft)
12.10.2019 10:46 13,3 °C 70 % 1018,3 hPa 0,0 mm 0,0 km/h (0 Bft) S-SO 155 ° 0 min 0,000 mm 0,0 UV-I 35 W/m² 7,9 °C 13,3 °C 0,0 km/h (0 Bft)
12.10.2019 10:47 13,4 °C 69 % 1018,3 hPa 0,0 mm 0,0 km/h (0 Bft) S-SO 155 ° 0 min 0,000 mm 0,0 UV-I 37 W/m² 7,8 °C 13,4 °C 0,0 km/h (0 Bft)
12.10.2019 10:48 13,6 °C 69 % 1018,3 hPa 0,0 mm 0,0 km/h (0 Bft) S-SO 155 ° 0 min 0,000 mm 0,0 UV-I 47 W/m² 8,0 °C 13,6 °C 0,0 km/h (0 Bft)
12.10.2019 10:49 13,8 °C 68 % 1018,4 hPa 0,0 mm 0,0 km/h (0 Bft) S-SO 155 ° 0 min 0,000 mm 0,0 UV-I 58 W/m² 8,0 °C 13,8 °C 0,0 km/h (0 Bft)
12.10.2019 10:50 13,9 °C 67 % 1018,3 hPa 0,0 mm 0,0 km/h (0 Bft) S-SO 155 ° 0 min 0,000 mm 1,3 UV-I 63 W/m² 7,9 °C 13,9 °C 0,0 km/h (0 Bft)
12.10.2019 10:51 14,1 °C 67 % 1018,3 hPa 0,0 mm 0,0 km/h (0 Bft) S-SO 155 ° 0 min 0,000 mm 1,4 UV-I 76 W/m² 8,1 °C 14,1 °C 0,0 km/h (0 Bft)
12.10.2019 10:52 14,2 °C 66 % 1018,2 hPa 0,0 mm 0,0 km/h (0 Bft) S-SO 155 ° 0 min 0,000 mm 1,4 UV-I 83 W/m² 7,9 °C 14,2 °C 0,0 km/h (0 Bft)
12.10.2019 10:53 14,3 °C 66 % 1018,2 hPa 0,0 mm 0,0 km/h (0 Bft) S-SO 155 ° 0 min 0,000 mm 1,4 UV-I 65 W/m² 8,0 °C 14,3 °C 0,0 km/h (0 Bft)
12.10.2019 10:54 14,4 °C 67 % 1018,3 hPa 0,0 mm 0,0 km/h (0 Bft) S-SO 155 ° 0 min 0,000 mm 0,0 UV-I 98 W/m² 8,4 °C 14,4 °C 0,0 km/h (0 Bft)
12.10.2019 10:55 14,5 °C 65 % 1018,3 hPa 0,0 mm 0,0 km/h (0 Bft) S-SO 155 ° 0 min 0,000 mm 1,5 UV-I 155 W/m² 8,0 °C 14,5 °C 0,0 km/h (0 Bft)
12.10.2019 10:56 14,7 °C 65 % 1018,3 hPa 0,0 mm 0,0 km/h (0 Bft) S-SO 155 ° 0 min 0,000 mm 1,7 UV-I 155 W/m² 8,2 °C 14,7 °C 0,0 km/h (0 Bft)
12.10.2019 10:57 14,8 °C 64 % 1018,3 hPa 0,0 mm 0,0 km/h (0 Bft) S-SO 155 ° 0 min 0,000 mm 2,1 UV-I 155 W/m² 8,1 °C 14,8 °C 0,0 km/h (0 Bft)
12.10.2019 10:58 14,9 °C 64 % 1018,2 hPa 0,0 mm 0,0 km/h (0 Bft) S-SO 155 ° 0 min 0,000 mm 2,3 UV-I 464 W/m² 8,2 °C 14,9 °C 0,0 km/h (0 Bft)
12.10.2019 10:59 15,1 °C 63 % 1018,3 hPa 0,0 mm 0,0 km/h (0 Bft) S-SO 155 ° 0 min 0,000 mm 2,3 UV-I 466 W/m² 8,1 °C 15,1 °C 0,0 km/h (0 Bft)
12.10.2019 11:00 15,2 °C 62 % 1018,3 hPa 0,0 mm 0,0 km/h (0 Bft) S-SO 155 ° 0 min 0,000 mm 2,4 UV-I 469 W/m² 8,0 °C 15,2 °C 0,0 km/h (0 Bft)
12.10.2019 11:01 15,3 °C 61 % 1018,3 hPa 0,0 mm 0,0 km/h (0 Bft) S-SO 155 ° 0 min 0,051 mm 2,4 UV-I 471 W/m² 7,8 °C 15,3 °C 0,0 km/h (0 Bft)
12.10.2019 11:02 15,3 °C 62 % 1018,3 hPa 0,0 mm 0,0 km/h (0 Bft) S-SO 155 ° 0 min 0,000 mm 2,4 UV-I 473 W/m² 8,1 °C 15,3 °C 0,0 km/h (0 Bft)
12.10.2019 11:03 15,3 °C 61 % 1018,3 hPa 0,0 mm 0,0 km/h (0 Bft) S-SO 155 ° 0 min 0,000 mm 2,4 UV-I 475 W/m² 7,8 °C 15,3 °C 0,0 km/h (0 Bft)
12.10.2019 11:04 15,3 °C 61 % 1018,2 hPa 0,0 mm 0,0 km/h (0 Bft) S-SO 155 ° 0 min 0,000 mm 2,5 UV-I 476 W/m² 7,8 °C 15,3 °C 0,0 km/h (0 Bft)
12.10.2019 11:05 15,3 °C 62 % 1018,2 hPa 0,0 mm 0,0 km/h (0 Bft) S-SO 155 ° 0 min 0,000 mm 2,5 UV-I 483 W/m² 8,1 °C 15,3 °C 0,0 km/h (0 Bft)
12.10.2019 11:06 15,3 °C 61 % 1018,2 hPa 0,0 mm 0,0 km/h (0 Bft) S-SO 155 ° 0 min 0,000 mm 2,5 UV-I 461 W/m² 7,8 °C 15,3 °C 0,0 km/h (0 Bft)
12.10.2019 11:07 15,1 °C 63 % 1018,2 hPa 0,0 mm 0,0 km/h (0 Bft) S-SO 155 ° 0 min 0,000 mm 2,5 UV-I 436 W/m² 8,1 °C 15,1 °C 0,0 km/h (0 Bft)
12.10.2019 11:08 14,9 °C 64 % 1018,2 hPa 0,0 mm 0,0 km/h (0 Bft) S-SO 155 ° 0 min 0,000 mm 2,5 UV-I 411 W/m² 8,2 °C 14,9 °C 0,0 km/h (0 Bft)
12.10.2019 11:09 14,9 °C 63 % 1018,2 hPa 0,0 mm 0,0 km/h (0 Bft) S-SO 155 ° 0 min 0,000 mm 2,4 UV-I 392 W/m² 7,9 °C 14,9 °C 0,0 km/h (0 Bft)
12.10.2019 11:10 15,0 °C 63 % 1018,3 hPa 0,0 mm 0,0 km/h (0 Bft) S-SO 155 ° 0 min 0,000 mm 2,4 UV-I 394 W/m² 8,0 °C 15,0 °C 0,0 km/h (0 Bft)
12.10.2019 11:11 15,2 °C 62 % 1018,2 hPa 0,0 mm 0,0 km/h (0 Bft) S-SO 155 ° 0 min 0,000 mm 2,4 UV-I 352 W/m² 8,0 °C 15,2 °C 0,0 km/h (0 Bft)
12.10.2019 11:12 15,4 °C 61 % 1018,2 hPa 0,0 mm 0,0 km/h (0 Bft) S-SO 155 ° 0 min 0,000 mm 2,2 UV-I 279 W/m² 7,9 °C 15,4 °C 0,0 km/h (0 Bft)
12.10.2019 11:13 15,5 °C 61 % 1018,2 hPa 0,0 mm 0,0 km/h (0 Bft) S-SO 155 ° 0 min 0,000 mm 2,1 UV-I 239 W/m² 8,0 °C 15,5 °C 0,0 km/h (0 Bft)
12.10.2019 11:14 15,6 °C 60 % 1018,2 hPa 0,0 mm 0,0 km/h (0 Bft) S-SO 155 ° 0 min 0,000 mm 2,0 UV-I 206 W/m² 7,9 °C 15,6 °C 0,0 km/h (0 Bft)
12.10.2019 11:15 15,7 °C 60 % 1018,3 hPa 0,0 mm 0,0 km/h (0 Bft) S-SO 155 ° 0 min 0,000 mm 1,9 UV-I 192 W/m² 8,0 °C 15,7 °C 0,0 km/h (0 Bft)
12.10.2019 11:16 15,8 °C 61 % 1018,3 hPa 0,0 mm 0,0 km/h (0 Bft) S-SO 155 ° 0 min 0,000 mm 1,9 UV-I 183 W/m² 8,3 °C 15,8 °C 0,0 km/h (0 Bft)
12.10.2019 11:17 15,7 °C 61 % 1018,3 hPa 0,0 mm 0,0 km/h (0 Bft) S-SO 155 ° 0 min 0,000 mm 1,9 UV-I 195 W/m² 8,2 °C 15,7 °C 0,0 km/h (0 Bft)
12.10.2019 11:18 15,7 °C 60 % 1018,3 hPa 0,0 mm 0,0 km/h (0 Bft) S-SO 155 ° 0 min 0,000 mm 2,0 UV-I 211 W/m² 8,0 °C 15,7 °C 0,0 km/h (0 Bft)
12.10.2019 11:19 15,8 °C 60 % 1018,2 hPa 0,0 mm 0,0 km/h (0 Bft) S-SO 155 ° 0 min 0,000 mm 2,0 UV-I 186 W/m² 8,1 °C 15,8 °C 0,0 km/h (0 Bft)
12.10.2019 11:20 15,9 °C 60 % 1018,2 hPa 0,0 mm 0,0 km/h (0 Bft) S-SO 155 ° 0 min 0,000 mm 1,9 UV-I 155 W/m² 8,1 °C 15,9 °C 0,0 km/h (0 Bft)
12.10.2019 11:21 16,0 °C 60 % 1018,3 hPa 0,0 mm 0,0 km/h (0 Bft) S-SO 155 ° 0 min 0,000 mm 1,8 UV-I 100 W/m² 8,2 °C 16,0 °C 0,0 km/h (0 Bft)
12.10.2019 11:22 16,0 °C 60 % 1018,2 hPa 0,0 mm 0,0 km/h (0 Bft) S-SO 155 ° 0 min 0,000 mm 1,6 UV-I 62 W/m² 8,2 °C 16,0 °C 0,0 km/h (0 Bft)
12.10.2019 11:23 16,1 °C 60 % 1018,2 hPa 0,0 mm 0,0 km/h (0 Bft) S-SO 155 ° 0 min 0,000 mm 1,6 UV-I 77 W/m² 8,3 °C 16,1 °C 0,0 km/h (0 Bft)
12.10.2019 11:24 16,1 °C 60 % 1018,2 hPa 0,0 mm 2,2 km/h (1 Bft) S 186 ° 0 min 0,000 mm 1,7 UV-I 141 W/m² 8,3 °C 16,1 °C 4,8 km/h (1 Bft)
12.10.2019 11:25 16,1 °C 59 % 1018,2 hPa 0,0 mm 2,6 km/h (1 Bft) S 186 ° 0 min 0,000 mm 1,8 UV-I 105 W/m² 8,1 °C 16,1 °C 4,8 km/h (1 Bft)
12.10.2019 11:26 16,2 °C 59 % 1018,2 hPa 0,0 mm 0,3 km/h (0 Bft) S 186 ° 0 min 0,000 mm 1,7 UV-I 69 W/m² 8,2 °C 16,2 °C 1,6 km/h (1 Bft)
12.10.2019 11:27 16,3 °C 58 % 1018,2 hPa 0,0 mm 2,0 km/h (1 Bft) S 186 ° 0 min 0,000 mm 0,0 UV-I 54 W/m² 8,0 °C 16,3 °C 3,2 km/h (1 Bft)
12.10.2019 11:28 16,3 °C 59 % 1018,2 hPa 0,0 mm 3,0 km/h (1 Bft) S 185 ° 0 min 0,000 mm 1,6 UV-I 69 W/m² 8,3 °C 16,3 °C 3,2 km/h (1 Bft)
12.10.2019 11:29 16,3 °C 59 % 1018,2 hPa 0,0 mm 0,6 km/h (0 Bft) S 185 ° 0 min 0,000 mm 1,6 UV-I 67 W/m² 8,3 °C 16,3 °C 1,6 km/h (1 Bft)
12.10.2019 11:30 16,2 °C 58 % 1018,2 hPa 0,0 mm 0,0 km/h (0 Bft) S 185 ° 0 min 0,000 mm 1,6 UV-I 83 W/m² 7,9 °C 16,2 °C 0,0 km/h (0 Bft)
12.10.2019 11:31 16,3 °C 57 % 1018,2 hPa 0,0 mm 0,0 km/h (0 Bft) S 185 ° 0 min 0,000 mm 1,7 UV-I 95 W/m² 7,8 °C 16,3 °C 0,0 km/h (0 Bft)
12.10.2019 11:32 16,3 °C 57 % 1018,2 hPa 0,0 mm 0,0 km/h (0 Bft) S 185 ° 0 min 0,000 mm 1,7 UV-I 79 W/m² 7,8 °C 16,3 °C 0,0 km/h (0 Bft)
12.10.2019 11:33 16,2 °C 62 % 1018,2 hPa 0,0 mm 0,0 km/h (0 Bft) S 185 ° 0 min 0,000 mm 1,7 UV-I 76 W/m² 8,9 °C 16,2 °C 0,0 km/h (0 Bft)
12.10.2019 11:34 16,2 °C 58 % 1018,2 hPa 0,0 mm 0,7 km/h (0 Bft) S 185 ° 0 min 0,000 mm 1,7 UV-I 102 W/m² 7,9 °C 16,2 °C 3,2 km/h (1 Bft)
12.10.2019 11:35 16,2 °C 57 % 1018,2 hPa 0,0 mm 1,8 km/h (1 Bft) S 185 ° 0 min 0,000 mm 1,9 UV-I 102 W/m² 7,7 °C 16,2 °C 3,2 km/h (1 Bft)
12.10.2019 11:36 16,3 °C 57 % 1018,2 hPa 0,0 mm 0,2 km/h (0 Bft) S 185 ° 0 min 0,000 mm 2,9 UV-I 522 W/m² 7,8 °C 16,3 °C 1,6 km/h (1 Bft)
12.10.2019 11:37 16,2 °C 61 % 1018,2 hPa 0,0 mm 1,2 km/h (1 Bft) S 187 ° 0 min 0,000 mm 2,9 UV-I 534 W/m² 8,7 °C 16,2 °C 3,2 km/h (1 Bft)
12.10.2019 11:38 16,2 °C 61 % 1018,2 hPa 0,0 mm 3,1 km/h (1 Bft) S 185 ° 0 min 0,000 mm 3,0 UV-I 534 W/m² 8,7 °C 16,2 °C 4,8 km/h (1 Bft)
12.10.2019 11:39 16,6 °C 55 % 1018,2 hPa 0,0 mm 1,3 km/h (1 Bft) S 185 ° 0 min 0,000 mm 3,0 UV-I 534 W/m² 7,5 °C 16,6 °C 4,8 km/h (1 Bft)
12.10.2019 11:40 16,8 °C 56 % 1018,2 hPa 0,0 mm 0,0 km/h (0 Bft) S 185 ° 0 min 0,000 mm 3,0 UV-I 536 W/m² 8,0 °C 16,8 °C 0,0 km/h (0 Bft)
12.10.2019 11:41 16,7 °C 60 % 1018,2 hPa 0,0 mm 0,0 km/h (0 Bft) S 185 ° 0 min 0,000 mm 3,0 UV-I 538 W/m² 8,9 °C 16,7 °C 0,0 km/h (0 Bft)
12.10.2019 11:42 16,6 °C 59 % 1018,2 hPa 0,0 mm 0,0 km/h (0 Bft) S 185 ° 0 min 0,000 mm 3,1 UV-I 538 W/m² 8,6 °C 16,6 °C 0,0 km/h (0 Bft)
12.10.2019 11:43 16,6 °C 58 % 1018,2 hPa 0,0 mm 0,0 km/h (0 Bft) S 185 ° 0 min 0,000 mm 3,1 UV-I 540 W/m² 8,3 °C 16,6 °C 0,0 km/h (0 Bft)
12.10.2019 11:44 16,8 °C 56 % 1018,2 hPa 0,0 mm 1,5 km/h (1 Bft) S 185 ° 0 min 0,000 mm 3,1 UV-I 541 W/m² 8,0 °C 16,8 °C 3,2 km/h (1 Bft)
12.10.2019 11:45 16,9 °C 56 % 1018,2 hPa 0,0 mm 0,8 km/h (0 Bft) S 185 ° 0 min 0,000 mm 3,1 UV-I 543 W/m² 8,1 °C 16,9 °C 3,2 km/h (1 Bft)
12.10.2019 11:46 16,8 °C 59 % 1018,2 hPa 0,0 mm 0,1 km/h (0 Bft) S 185 ° 0 min 0,000 mm 3,1 UV-I 543 W/m² 8,7 °C 16,8 °C 1,6 km/h (1 Bft)
12.10.2019 11:47 16,7 °C 61 % 1018,1 hPa 0,0 mm 0,8 km/h (0 Bft) S 185 ° 0 min 0,000 mm 3,1 UV-I 545 W/m² 9,1 °C 16,7 °C 3,2 km/h (1 Bft)
12.10.2019 11:48 16,7 °C 57 % 1018,1 hPa 0,0 mm 0,6 km/h (0 Bft) S 185 ° 0 min 0,000 mm 3,2 UV-I 547 W/m² 8,1 °C 16,7 °C 1,6 km/h (1 Bft)
12.10.2019 11:49 16,9 °C 55 % 1018,2 hPa 0,0 mm 0,0 km/h (0 Bft) S 185 ° 0 min 0,000 mm 3,2 UV-I 548 W/m² 7,8 °C 16,9 °C 0,0 km/h (0 Bft)
12.10.2019 11:50 17,0 °C 56 % 1018,1 hPa 0,0 mm 0,0 km/h (0 Bft) S 185 ° 0 min 0,000 mm 3,2 UV-I 548 W/m² 8,2 °C 17,0 °C 0,0 km/h (0 Bft)
12.10.2019 11:51 17,0 °C 58 % 1018,1 hPa 0,0 mm 1,7 km/h (1 Bft) S 182 ° 0 min 0,000 mm 3,2 UV-I 550 W/m² 8,7 °C 17,0 °C 4,8 km/h (1 Bft)
12.10.2019 11:52 17,2 °C 53 % 1018,1 hPa 0,0 mm 6,6 km/h (2 Bft) W-NW 291 ° 0 min 0,000 mm 3,2 UV-I 550 W/m² 7,5 °C 17,2 °C 12,9 km/h (3 Bft)
12.10.2019 11:53 17,6 °C 52 % 1018,0 hPa 0,0 mm 8,0 km/h (2 Bft) W-SW 252 ° 0 min 0,000 mm 3,2 UV-I 554 W/m² 7,6 °C 17,6 °C 14,5 km/h (3 Bft)
12.10.2019 11:54 17,8 °C 50 % 1018,1 hPa 0,0 mm 0,1 km/h (0 Bft) W-SW 252 ° 0 min 0,000 mm 3,2 UV-I 554 W/m² 7,2 °C 17,8 °C 1,6 km/h (1 Bft)
12.10.2019 11:55 17,8 °C 49 % 1018,0 hPa 0,0 mm 0,0 km/h (0 Bft) W-SW 252 ° 0 min 0,000 mm 3,2 UV-I 554 W/m² 6,9 °C 17,8 °C 0,0 km/h (0 Bft)
12.10.2019 11:56 17,7 °C 51 % 1018,0 hPa 0,0 mm 0,0 km/h (0 Bft) W-SW 252 ° 0 min 0,000 mm 3,3 UV-I 555 W/m² 7,4 °C 17,7 °C 0,0 km/h (0 Bft)
12.10.2019 11:57 17,7 °C 54 % 1018,0 hPa 0,0 mm 0,0 km/h (0 Bft) W-SW 252 ° 0 min 0,000 mm 3,3 UV-I 555 W/m² 8,3 °C 17,7 °C 0,0 km/h (0 Bft)
12.10.2019 11:58 17,6 °C 56 % 1018,0 hPa 0,0 mm 0,0 km/h (0 Bft) W-SW 252 ° 0 min 0,000 mm 3,3 UV-I 557 W/m² 8,7 °C 17,6 °C 0,0 km/h (0 Bft)
12.10.2019 11:59 17,6 °C 53 % 1018,0 hPa 0,0 mm 0,0 km/h (0 Bft) W-SW 252 ° 0 min 0,000 mm 3,3 UV-I 559 W/m² 7,9 °C 17,6 °C 0,0 km/h (0 Bft)
12.10.2019 12:00 17,8 °C 51 % 1018,0 hPa 0,0 mm 4,3 km/h (1 Bft) W 269 ° 0 min 0,000 mm 3,3 UV-I 559 W/m² 7,5 °C 17,8 °C 9,7 km/h (2 Bft)
12.10.2019 12:01 18,1 °C 51 % 1018,0 hPa 0,0 mm 4,3 km/h (1 Bft) W 269 ° 0 min 0,203 mm 3,3 UV-I 561 W/m² 7,8 °C 18,1 °C 6,4 km/h (2 Bft)
12.10.2019 12:02 18,1 °C 55 % 1018,0 hPa 0,0 mm 0,8 km/h (0 Bft) W 269 ° 0 min 0,000 mm 3,3 UV-I 561 W/m² 8,9 °C 18,1 °C 4,8 km/h (1 Bft)
12.10.2019 12:03 18,1 °C 50 % 1018,0 hPa 0,0 mm 1,0 km/h (0 Bft) W 269 ° 0 min 0,000 mm 3,3 UV-I 561 W/m² 7,5 °C 18,1 °C 3,2 km/h (1 Bft)
12.10.2019 12:04 17,9 °C 54 % 1018,0 hPa 0,0 mm 0,0 km/h (0 Bft) W 269 ° 0 min 0,000 mm 3,3 UV-I 564 W/m² 8,5 °C 17,9 °C 0,0 km/h (0 Bft)
12.10.2019 12:05 17,9 °C 51 % 1018,1 hPa 0,0 mm 0,0 km/h (0 Bft) W 269 ° 0 min 0,000 mm 3,4 UV-I 564 W/m² 7,6 °C 17,9 °C 0,0 km/h (0 Bft)
12.10.2019 12:06 17,9 °C 59 % 1018,1 hPa 0,0 mm 0,1 km/h (0 Bft) W 269 ° 0 min 0,000 mm 3,4 UV-I 566 W/m² 9,8 °C 17,9 °C 1,6 km/h (1 Bft)
12.10.2019 12:07 17,9 °C 53 % 1018,1 hPa 0,0 mm 3,7 km/h (1 Bft) W 269 ° 0 min 0,000 mm 3,4 UV-I 566 W/m² 8,2 °C 17,9 °C 4,8 km/h (1 Bft)
12.10.2019 12:08 18,2 °C 60 % 1018,2 hPa 0,0 mm 4,7 km/h (1 Bft) W 270 ° 0 min 0,000 mm 3,4 UV-I 568 W/m² 10,3 °C 18,2 °C 9,7 km/h (2 Bft)
12.10.2019 12:09 18,4 °C 48 % 1018,2 hPa 0,0 mm 6,6 km/h (2 Bft) NW 308 ° 0 min 0,000 mm 3,4 UV-I 568 W/m² 7,2 °C 18,4 °C 12,9 km/h (3 Bft)
12.10.2019 12:10 18,7 °C 48 % 1018,0 hPa 0,0 mm 3,0 km/h (1 Bft) NW 316 ° 0 min 0,000 mm 3,4 UV-I 568 W/m² 7,5 °C 18,7 °C 6,4 km/h (2 Bft)
12.10.2019 12:11 18,9 °C 49 % 1018,1 hPa 0,0 mm 4,4 km/h (1 Bft) W 266 ° 0 min 0,000 mm 3,4 UV-I 570 W/m² 7,9 °C 18,9 °C 6,4 km/h (2 Bft)
12.10.2019 12:12 19,1 °C 47 % 1018,1 hPa 0,0 mm 6,2 km/h (2 Bft) W-SW 253 ° 0 min 0,000 mm 3,4 UV-I 566 W/m² 7,5 °C 19,1 °C 14,5 km/h (3 Bft)
12.10.2019 12:13 19,2 °C 47 % 1018,1 hPa 0,0 mm 5,3 km/h (1 Bft) W-NW 287 ° 0 min 0,000 mm 3,4 UV-I 570 W/m² 7,6 °C 19,2 °C 11,3 km/h (2 Bft)
12.10.2019 12:14 19,1 °C 49 % 1018,1 hPa 0,0 mm 3,1 km/h (1 Bft) W 265 ° 0 min 0,000 mm 3,4 UV-I 571 W/m² 8,1 °C 19,1 °C 6,4 km/h (2 Bft)
12.10.2019 12:15 19,0 °C 51 % 1018,1 hPa 0,0 mm 4,4 km/h (1 Bft) W 260 ° 0 min 0,000 mm 3,4 UV-I 570 W/m² 8,6 °C 19,0 °C 6,4 km/h (2 Bft)
12.10.2019 12:16 18,9 °C 52 % 1018,1 hPa 0,0 mm 0,1 km/h (0 Bft) W 260 ° 0 min 0,000 mm 3,4 UV-I 568 W/m² 8,8 °C 18,9 °C 1,6 km/h (1 Bft)
12.10.2019 12:17 18,9 °C 48 % 1018,1 hPa 0,0 mm 3,0 km/h (1 Bft) W 261 ° 0 min 0,000 mm 3,4 UV-I 563 W/m² 7,6 °C 18,9 °C 6,4 km/h (2 Bft)
12.10.2019 12:18 18,8 °C 52 % 1018,1 hPa 0,0 mm 5,0 km/h (1 Bft) W-NW 285 ° 0 min 0,000 mm 3,3 UV-I 550 W/m² 8,7 °C 18,8 °C 11,3 km/h (2 Bft)
12.10.2019 12:19 18,9 °C 48 % 1018,1 hPa 0,0 mm 4,4 km/h (1 Bft) W 267 ° 0 min 0,000 mm 3,2 UV-I 550 W/m² 7,6 °C 18,9 °C 8,0 km/h (2 Bft)
12.10.2019 12:20 19,1 °C 48 % 1018,0 hPa 0,0 mm 3,4 km/h (1 Bft) W 273 ° 0 min 0,000 mm 3,5 UV-I 550 W/m² 7,8 °C 19,1 °C 6,4 km/h (2 Bft)
12.10.2019 12:21 19,1 °C 46 % 1018,0 hPa 0,0 mm 4,4 km/h (1 Bft) W 269 ° 0 min 0,000 mm 3,5 UV-I 580 W/m² 7,2 °C 19,1 °C 6,4 km/h (2 Bft)
12.10.2019 12:22 18,8 °C 54 % 1018,0 hPa 0,0 mm 7,0 km/h (2 Bft) W-SW 244 ° 0 min 0,000 mm 3,4 UV-I 536 W/m² 9,3 °C 18,8 °C 11,3 km/h (2 Bft)
12.10.2019 12:23 18,6 °C 54 % 1018,0 hPa 0,0 mm 6,4 km/h (2 Bft) W 271 ° 0 min 0,000 mm 3,3 UV-I 519 W/m² 9,1 °C 18,6 °C 9,7 km/h (2 Bft)
12.10.2019 12:24 18,7 °C 51 % 1018,0 hPa 0,0 mm 6,7 km/h (2 Bft) W-NW 282 ° 0 min 0,000 mm 3,4 UV-I 499 W/m² 8,4 °C 18,7 °C 12,9 km/h (3 Bft)
12.10.2019 12:25 18,8 °C 49 % 1018,0 hPa 0,0 mm 8,1 km/h (2 Bft) W-SW 254 ° 0 min 0,000 mm 3,5 UV-I 571 W/m² 7,9 °C 18,8 °C 16,1 km/h (3 Bft)
12.10.2019 12:26 18,8 °C 47 % 1018,0 hPa 0,0 mm 4,5 km/h (1 Bft) S 179 ° 0 min 0,000 mm 3,6 UV-I 585 W/m² 7,2 °C 18,8 °C 6,4 km/h (2 Bft)
12.10.2019 12:27 18,9 °C 43 % 1018,0 hPa 0,0 mm 6,6 km/h (2 Bft) W-SW 254 ° 0 min 0,000 mm 3,6 UV-I 580 W/m² 6,0 °C 18,9 °C 9,7 km/h (2 Bft)
12.10.2019 12:28 19,1 °C 45 % 1018,0 hPa 0,0 mm 2,3 km/h (1 Bft) SW 229 ° 0 min 0,000 mm 3,6 UV-I 582 W/m² 6,9 °C 19,1 °C 6,4 km/h (2 Bft)
12.10.2019 12:29 19,1 °C 45 % 1018,0 hPa 0,0 mm 3,7 km/h (1 Bft) W 268 ° 0 min 0,000 mm 3,6 UV-I 580 W/m² 6,9 °C 19,1 °C 8,0 km/h (2 Bft)
12.10.2019 12:30 19,2 °C 47 % 1018,0 hPa 0,0 mm 5,7 km/h (1 Bft) W-SW 255 ° 0 min 0,000 mm 3,6 UV-I 578 W/m² 7,6 °C 19,2 °C 6,4 km/h (2 Bft)
12.10.2019 12:31 19,2 °C 48 % 1018,0 hPa 0,0 mm 7,1 km/h (2 Bft) W-SW 250 ° 0 min 0,000 mm 3,6 UV-I 584 W/m² 7,9 °C 19,2 °C 12,9 km/h (3 Bft)
12.10.2019 12:32 19,2 °C 45 % 1017,9 hPa 0,0 mm 3,5 km/h (1 Bft) W-SW 238 ° 0 min 0,000 mm 3,6 UV-I 587 W/m² 7,0 °C 19,2 °C 4,8 km/h (1 Bft)
12.10.2019 12:33 19,2 °C 46 % 1017,9 hPa 0,0 mm 7,7 km/h (2 Bft) W-SW 238 ° 0 min 0,000 mm 3,6 UV-I 594 W/m² 7,3 °C 19,2 °C 16,1 km/h (3 Bft)
12.10.2019 12:34 19,2 °C 44 % 1017,9 hPa 0,0 mm 5,1 km/h (1 Bft) S-SW 196 ° 0 min 0,000 mm 3,6 UV-I 591 W/m² 6,7 °C 19,2 °C 8,0 km/h (2 Bft)
12.10.2019 12:35 19,2 °C 45 % 1017,9 hPa 0,0 mm 2,4 km/h (1 Bft) S-SW 196 ° 0 min 0,000 mm 3,4 UV-I 533 W/m² 7,0 °C 19,2 °C 4,8 km/h (1 Bft)
12.10.2019 12:36 19,2 °C 48 % 1017,8 hPa 0,0 mm 5,8 km/h (2 Bft) W 259 ° 0 min 0,000 mm 3,3 UV-I 497 W/m² 7,9 °C 19,2 °C 9,7 km/h (2 Bft)
12.10.2019 12:37 19,2 °C 42 % 1017,8 hPa 0,0 mm 2,0 km/h (1 Bft) W-NW 294 ° 0 min 0,000 mm 2,9 UV-I 411 W/m² 6,0 °C 19,2 °C 9,7 km/h (2 Bft)
12.10.2019 12:38 19,2 °C 48 % 1017,8 hPa 0,0 mm 1,2 km/h (1 Bft) W-NW 294 ° 0 min 0,000 mm 3,3 UV-I 476 W/m² 7,9 °C 19,2 °C 4,8 km/h (1 Bft)
12.10.2019 12:39 19,2 °C 50 % 1017,8 hPa 0,0 mm 2,2 km/h (1 Bft) W-NW 294 ° 0 min 0,000 mm 3,5 UV-I 534 W/m² 8,5 °C 19,2 °C 4,8 km/h (1 Bft)
12.10.2019 12:40 19,1 °C 45 % 1017,8 hPa 0,0 mm 0,9 km/h (0 Bft) W-NW 294 ° 0 min 0,000 mm 3,3 UV-I 540 W/m² 6,9 °C 19,1 °C 3,2 km/h (1 Bft)
12.10.2019 12:41 18,9 °C 51 % 1017,8 hPa 0,0 mm 2,1 km/h (1 Bft) W-NW 294 ° 0 min 0,000 mm 3,5 UV-I 578 W/m² 8,5 °C 18,9 °C 4,8 km/h (1 Bft)
12.10.2019 12:42 18,9 °C 52 % 1017,9 hPa 0,0 mm 3,8 km/h (1 Bft) W-NW 289 ° 0 min 0,000 mm 3,5 UV-I 594 W/m² 8,8 °C 18,9 °C 4,8 km/h (1 Bft)
12.10.2019 12:43 18,9 °C 45 % 1017,8 hPa 0,0 mm 1,0 km/h (0 Bft) W-NW 289 ° 0 min 0,000 mm 3,3 UV-I 559 W/m² 6,7 °C 18,9 °C 3,2 km/h (1 Bft)
12.10.2019 12:44 19,2 °C 46 % 1017,8 hPa 0,0 mm 7,0 km/h (2 Bft) W-NW 283 ° 1 min 0,000 mm 3,8 UV-I 626 W/m² 7,3 °C 19,2 °C 14,5 km/h (3 Bft)
12.10.2019 12:45 19,4 °C 44 % 1017,8 hPa 0,0 mm 7,7 km/h (2 Bft) W 273 ° 1 min 0,000 mm 3,8 UV-I 652 W/m² 6,8 °C 19,4 °C 11,3 km/h (2 Bft)
12.10.2019 12:46 19,6 °C 45 % 1017,8 hPa 0,0 mm 4,9 km/h (1 Bft) W 269 ° 1 min 0,000 mm 3,9 UV-I 657 W/m² 7,3 °C 19,6 °C 9,7 km/h (2 Bft)
12.10.2019 12:47 19,6 °C 47 % 1017,7 hPa 0,0 mm 0,3 km/h (0 Bft) W 269 ° 1 min 0,000 mm 3,9 UV-I 656 W/m² 8,0 °C 19,6 °C 1,6 km/h (1 Bft)
12.10.2019 12:48 19,5 °C 51 % 1017,8 hPa 0,0 mm 0,8 km/h (0 Bft) W 273 ° 1 min 0,000 mm 3,8 UV-I 650 W/m² 9,1 °C 19,5 °C 4,8 km/h (1 Bft)
12.10.2019 12:49 19,5 °C 47 % 1017,7 hPa 0,0 mm 4,4 km/h (1 Bft) SW 221 ° 1 min 0,000 mm 3,9 UV-I 643 W/m² 7,9 °C 19,5 °C 11,3 km/h (2 Bft)
12.10.2019 12:50 19,4 °C 45 % 1017,7 hPa 0,0 mm 3,3 km/h (1 Bft) SW 223 ° 1 min 0,000 mm 3,8 UV-I 643 W/m² 7,2 °C 19,4 °C 4,8 km/h (1 Bft)
12.10.2019 12:51 19,3 °C 46 % 1017,7 hPa 0,0 mm 1,8 km/h (1 Bft) W-SW 256 ° 0 min 0,000 mm 3,6 UV-I 585 W/m² 7,4 °C 19,3 °C 3,2 km/h (1 Bft)
12.10.2019 12:52 19,2 °C 47 % 1017,7 hPa 0,0 mm 4,5 km/h (1 Bft) W-NW 302 ° 0 min 0,000 mm 3,6 UV-I 568 W/m² 7,6 °C 19,2 °C 6,4 km/h (2 Bft)
12.10.2019 12:53 19,3 °C 47 % 1017,7 hPa 0,0 mm 9,6 km/h (2 Bft) W 281 ° 0 min 0,000 mm 3,6 UV-I 591 W/m² 7,7 °C 19,3 °C 12,9 km/h (3 Bft)
12.10.2019 12:54 19,6 °C 45 % 1017,7 hPa 0,0 mm 11,3 km/h (2 Bft) W 259 ° 0 min 0,000 mm 3,6 UV-I 575 W/m² 7,3 °C 19,6 °C 16,1 km/h (3 Bft)
12.10.2019 12:55 19,8 °C 42 % 1017,7 hPa 0,0 mm 7,5 km/h (2 Bft) W-NW 294 ° 0 min 0,000 mm 3,4 UV-I 541 W/m² 6,5 °C 19,8 °C 12,9 km/h (3 Bft)
12.10.2019 12:56 19,8 °C 45 % 1017,7 hPa 0,0 mm 4,8 km/h (1 Bft) W 259 ° 0 min 0,000 mm 3,2 UV-I 496 W/m² 7,5 °C 19,8 °C 6,4 km/h (2 Bft)
12.10.2019 12:57 19,8 °C 46 % 1017,7 hPa 0,0 mm 9,9 km/h (2 Bft) W 263 ° 0 min 0,000 mm 3,0 UV-I 413 W/m² 7,8 °C 19,8 °C 12,9 km/h (3 Bft)
12.10.2019 12:58 19,8 °C 42 % 1017,7 hPa 0,0 mm 5,6 km/h (1 Bft) N-NW 343 ° 0 min 0,000 mm 2,8 UV-I 422 W/m² 6,5 °C 19,8 °C 8,0 km/h (2 Bft)
12.10.2019 12:59 19,7 °C 48 % 1017,8 hPa 0,0 mm 3,6 km/h (1 Bft) N-NW 338 ° 0 min 0,000 mm 2,6 UV-I 422 W/m² 8,4 °C 19,7 °C 4,8 km/h (1 Bft)
12.10.2019 13:00 19,4 °C 43 % 1017,8 hPa 0,0 mm 1,3 km/h (1 Bft) N-NW 338 ° 0 min 0,000 mm 2,6 UV-I 304 W/m² 6,5 °C 19,4 °C 3,2 km/h (1 Bft)
12.10.2019 13:01 19,2 °C 53 % 1017,7 hPa 0,0 mm 0,6 km/h (0 Bft) N-NW 338 ° 0 min 0,356 mm 2,3 UV-I 239 W/m² 9,4 °C 19,2 °C 3,2 km/h (1 Bft)
12.10.2019 13:02 19,1 °C 45 % 1017,8 hPa 0,0 mm 0,1 km/h (0 Bft) N-NW 338 ° 0 min 0,000 mm 2,4 UV-I 214 W/m² 6,9 °C 19,1 °C 1,6 km/h (1 Bft)
12.10.2019 13:03 18,9 °C 51 % 1017,8 hPa 0,0 mm 2,1 km/h (1 Bft) N-NW 331 ° 0 min 0,000 mm 3,2 UV-I 522 W/m² 8,5 °C 18,9 °C 4,8 km/h (1 Bft)
12.10.2019 13:04 18,9 °C 48 % 1017,8 hPa 0,0 mm 2,0 km/h (1 Bft) N-NW 331 ° 0 min 0,000 mm 3,2 UV-I 483 W/m² 7,6 °C 18,9 °C 4,8 km/h (1 Bft)
12.10.2019 13:05 18,9 °C 47 % 1017,7 hPa 0,0 mm 0,5 km/h (0 Bft) N-NW 331 ° 0 min 0,000 mm 3,4 UV-I 513 W/m² 7,3 °C 18,9 °C 1,6 km/h (1 Bft)
12.10.2019 13:06 18,9 °C 46 % 1017,7 hPa 0,0 mm 0,1 km/h (0 Bft) N-NW 331 ° 0 min 0,000 mm 2,7 UV-I 513 W/m² 7,0 °C 18,9 °C 1,6 km/h (1 Bft)
12.10.2019 13:07 19,0 °C 46 % 1017,7 hPa 0,0 mm 0,0 km/h (0 Bft) N-NW 331 ° 0 min 0,000 mm 3,5 UV-I 497 W/m² 7,1 °C 19,0 °C 0,0 km/h (0 Bft)
12.10.2019 13:08 19,1 °C 46 % 1017,7 hPa 0,0 mm 1,1 km/h (1 Bft) N-NW 331 ° 0 min 0,000 mm 2,8 UV-I 497 W/m² 7,2 °C 19,1 °C 3,2 km/h (1 Bft)
12.10.2019 13:09 19,1 °C 48 % 1017,6 hPa 0,0 mm 2,1 km/h (1 Bft) N-NW 329 ° 0 min 0,000 mm 2,9 UV-I 343 W/m² 7,8 °C 19,1 °C 4,8 km/h (1 Bft)
12.10.2019 13:10 19,1 °C 50 % 1017,6 hPa 0,0 mm 2,5 km/h (1 Bft) W 279 ° 0 min 0,000 mm 3,6 UV-I 343 W/m² 8,4 °C 19,1 °C 4,8 km/h (1 Bft)
12.10.2019 13:11 19,1 °C 49 % 1017,6 hPa 0,0 mm 5,8 km/h (2 Bft) S-SO 163 ° 0 min 0,000 mm 3,8 UV-I 343 W/m² 8,1 °C 19,1 °C 8,0 km/h (2 Bft)
12.10.2019 13:12 19,0 °C 48 % 1017,6 hPa 0,0 mm 0,8 km/h (0 Bft) S-SO 163 ° 1 min 0,000 mm 3,7 UV-I 633 W/m² 7,7 °C 19,0 °C 6,4 km/h (2 Bft)
12.10.2019 13:13 18,8 °C 48 % 1017,5 hPa 0,0 mm 0,3 km/h (0 Bft) S-SO 165 ° 1 min 0,000 mm 3,8 UV-I 636 W/m² 7,6 °C 18,8 °C 1,6 km/h (1 Bft)
12.10.2019 13:14 18,7 °C 49 % 1017,5 hPa 0,0 mm 0,5 km/h (0 Bft) S-SO 165 ° 0 min 0,000 mm 3,5 UV-I 540 W/m² 7,8 °C 18,7 °C 1,6 km/h (1 Bft)
12.10.2019 13:15 18,6 °C 49 % 1017,4 hPa 0,0 mm 0,6 km/h (0 Bft) S-SO 165 ° 0 min 0,000 mm 3,2 UV-I 483 W/m² 7,7 °C 18,6 °C 3,2 km/h (1 Bft)
12.10.2019 13:16 18,5 °C 55 % 1017,4 hPa 0,0 mm 2,3 km/h (1 Bft) W-NW 293 ° 0 min 0,000 mm 3,5 UV-I 504 W/m² 9,3 °C 18,5 °C 8,0 km/h (2 Bft)
12.10.2019 13:17 18,6 °C 53 % 1017,4 hPa 0,0 mm 5,8 km/h (2 Bft) SW 232 ° 0 min 0,000 mm 3,8 UV-I 504 W/m² 8,8 °C 18,6 °C 9,7 km/h (2 Bft)
12.10.2019 13:18 18,6 °C 51 % 1017,4 hPa 0,0 mm 2,4 km/h (1 Bft) SW 231 ° 1 min 0,000 mm 3,8 UV-I 640 W/m² 8,3 °C 18,6 °C 6,4 km/h (2 Bft)
12.10.2019 13:19 18,7 °C 51 % 1017,4 hPa 0,0 mm 1,6 km/h (1 Bft) SW 236 ° 1 min 0,000 mm 3,8 UV-I 631 W/m² 8,4 °C 18,7 °C 3,2 km/h (1 Bft)
12.10.2019 13:20 18,6 °C 49 % 1017,4 hPa 0,0 mm 2,3 km/h (1 Bft) W 264 ° 1 min 0,000 mm 3,8 UV-I 628 W/m² 7,7 °C 18,6 °C 6,4 km/h (2 Bft)
12.10.2019 13:21 18,8 °C 48 % 1017,3 hPa 0,0 mm 0,4 km/h (0 Bft) W 264 ° 1 min 0,000 mm 3,6 UV-I 605 W/m² 7,6 °C 18,8 °C 1,6 km/h (1 Bft)
12.10.2019 13:22 19,0 °C 47 % 1017,4 hPa 0,0 mm 3,5 km/h (1 Bft) W 264 ° 1 min 0,000 mm 3,8 UV-I 629 W/m² 7,4 °C 19,0 °C 4,8 km/h (1 Bft)
12.10.2019 13:23 19,2 °C 48 % 1017,3 hPa 0,0 mm 2,0 km/h (1 Bft) W 264 ° 1 min 0,000 mm 3,8 UV-I 629 W/m² 7,9 °C 19,2 °C 3,2 km/h (1 Bft)
12.10.2019 13:24 19,2 °C 45 % 1017,3 hPa 0,0 mm 0,8 km/h (0 Bft) W 264 ° 1 min 0,000 mm 3,7 UV-I 612 W/m² 7,0 °C 19,2 °C 3,2 km/h (1 Bft)
12.10.2019 13:25 19,4 °C 49 % 1017,2 hPa 0,0 mm 1,9 km/h (1 Bft) W 264 ° 1 min 0,000 mm 3,8 UV-I 621 W/m² 8,4 °C 19,4 °C 3,2 km/h (1 Bft)
12.10.2019 13:26 19,7 °C 48 % 1017,3 hPa 0,0 mm 0,2 km/h (0 Bft) W 264 ° 1 min 0,000 mm 3,8 UV-I 622 W/m² 8,4 °C 19,7 °C 1,6 km/h (1 Bft)
12.10.2019 13:27 19,8 °C 42 % 1017,3 hPa 0,0 mm 0,0 km/h (0 Bft) W 264 ° 1 min 0,000 mm 3,7 UV-I 603 W/m² 6,5 °C 19,8 °C 0,0 km/h (0 Bft)
12.10.2019 13:28 19,8 °C 44 % 1017,3 hPa 0,0 mm 0,0 km/h (0 Bft) W 264 ° 0 min 0,000 mm 3,3 UV-I 563 W/m² 7,2 °C 19,8 °C 0,0 km/h (0 Bft)
12.10.2019 13:29 19,7 °C 45 % 1017,3 hPa 0,0 mm 0,0 km/h (0 Bft) W 264 ° 0 min 0,000 mm 3,4 UV-I 489 W/m² 7,4 °C 19,7 °C 0,0 km/h (0 Bft)
12.10.2019 13:30 19,6 °C 44 % 1017,3 hPa 0,0 mm 0,0 km/h (0 Bft) W 264 ° 0 min 0,000 mm 3,2 UV-I 483 W/m² 7,0 °C 19,6 °C 0,0 km/h (0 Bft)
12.10.2019 13:31 19,3 °C 45 % 1017,3 hPa 0,0 mm 1,5 km/h (1 Bft) S 180 ° 0 min 0,000 mm 2,9 UV-I 483 W/m² 7,1 °C 19,3 °C 3,2 km/h (1 Bft)
12.10.2019 13:32 19,2 °C 46 % 1017,3 hPa 0,0 mm 0,4 km/h (0 Bft) S 180 ° 0 min 0,000 mm 3,0 UV-I 436 W/m² 7,3 °C 19,2 °C 1,6 km/h (1 Bft)
12.10.2019 13:33 19,1 °C 46 % 1017,3 hPa 0,0 mm 0,7 km/h (0 Bft) S 180 ° 0 min 0,000 mm 3,0 UV-I 429 W/m² 7,2 °C 19,1 °C 1,6 km/h (1 Bft)
12.10.2019 13:34 19,1 °C 47 % 1017,3 hPa 0,0 mm 0,0 km/h (0 Bft) S 180 ° 0 min 0,000 mm 2,8 UV-I 364 W/m² 7,5 °C 19,1 °C 0,0 km/h (0 Bft)
12.10.2019 13:35 18,9 °C 48 % 1017,3 hPa 0,0 mm 0,6 km/h (0 Bft) S 180 ° 0 min 0,000 mm 2,7 UV-I 373 W/m² 7,6 °C 18,9 °C 3,2 km/h (1 Bft)
12.10.2019 13:36 19,0 °C 46 % 1017,3 hPa 0,0 mm 0,3 km/h (0 Bft) S 180 ° 0 min 0,000 mm 2,7 UV-I 343 W/m² 7,1 °C 19,0 °C 1,6 km/h (1 Bft)
12.10.2019 13:37 18,9 °C 54 % 1017,3 hPa 0,0 mm 0,0 km/h (0 Bft) S 180 ° 0 min 0,000 mm 2,5 UV-I 285 W/m² 9,4 °C 18,9 °C 0,0 km/h (0 Bft)
12.10.2019 13:38 18,7 °C 52 % 1017,3 hPa 0,0 mm 2,0 km/h (1 Bft) S 180 ° 0 min 0,000 mm 2,5 UV-I 359 W/m² 8,6 °C 18,7 °C 3,2 km/h (1 Bft)
12.10.2019 13:39 18,6 °C 49 % 1017,3 hPa 0,0 mm 0,1 km/h (0 Bft) S 180 ° 0 min 0,000 mm 2,7 UV-I 373 W/m² 7,7 °C 18,6 °C 1,6 km/h (1 Bft)
12.10.2019 13:40 18,7 °C 49 % 1017,2 hPa 0,0 mm 0,0 km/h (0 Bft) S 180 ° 0 min 0,000 mm 3,0 UV-I 415 W/m² 7,8 °C 18,7 °C 0,0 km/h (0 Bft)
12.10.2019 13:41 18,7 °C 50 % 1017,2 hPa 0,0 mm 0,2 km/h (0 Bft) S 180 ° 0 min 0,000 mm 3,1 UV-I 478 W/m² 8,1 °C 18,7 °C 1,6 km/h (1 Bft)
12.10.2019 13:42 18,7 °C 55 % 1017,2 hPa 0,0 mm 1,5 km/h (1 Bft) S 180 ° 0 min 0,000 mm 3,2 UV-I 443 W/m² 9,5 °C 18,7 °C 3,2 km/h (1 Bft)
12.10.2019 13:43 18,7 °C 48 % 1017,2 hPa 0,0 mm 0,0 km/h (0 Bft) S 180 ° 0 min 0,000 mm 3,3 UV-I 522 W/m² 7,5 °C 18,7 °C 0,0 km/h (0 Bft)
12.10.2019 13:44 18,8 °C 47 % 1017,2 hPa 0,0 mm 1,3 km/h (1 Bft) S 180 ° 0 min 0,000 mm 3,0 UV-I 422 W/m² 7,2 °C 18,8 °C 3,2 km/h (1 Bft)
12.10.2019 13:45 18,8 °C 52 % 1017,2 hPa 0,0 mm 0,3 km/h (0 Bft) S 180 ° 0 min 0,000 mm 3,0 UV-I 417 W/m² 8,7 °C 18,8 °C 1,6 km/h (1 Bft)
12.10.2019 13:46 18,8 °C 48 % 1017,1 hPa 0,0 mm 3,6 km/h (1 Bft) SW 222 ° 0 min 0,000 mm 2,9 UV-I 422 W/m² 7,6 °C 18,8 °C 4,8 km/h (1 Bft)
12.10.2019 13:47 19,1 °C 52 % 1017,2 hPa 0,0 mm 3,2 km/h (1 Bft) SW 225 ° 0 min 0,000 mm 3,1 UV-I 441 W/m² 9,0 °C 19,1 °C 4,8 km/h (1 Bft)
12.10.2019 13:48 19,2 °C 46 % 1017,2 hPa 0,0 mm 4,1 km/h (1 Bft) W-SW 237 ° 0 min 0,000 mm 3,2 UV-I 496 W/m² 7,3 °C 19,2 °C 4,8 km/h (1 Bft)
12.10.2019 13:49 19,3 °C 46 % 1017,2 hPa 0,0 mm 1,2 km/h (1 Bft) W-SW 237 ° 0 min 0,000 mm 3,2 UV-I 515 W/m² 7,4 °C 19,3 °C 3,2 km/h (1 Bft)
12.10.2019 13:50 19,3 °C 49 % 1017,1 hPa 0,0 mm 0,0 km/h (0 Bft) W-SW 237 ° 0 min 0,000 mm 3,3 UV-I 520 W/m² 8,3 °C 19,3 °C 0,0 km/h (0 Bft)
12.10.2019 13:51 19,3 °C 47 % 1017,1 hPa 0,0 mm 0,0 km/h (0 Bft) W-SW 237 ° 0 min 0,000 mm 3,2 UV-I 515 W/m² 7,7 °C 19,3 °C 0,0 km/h (0 Bft)
12.10.2019 13:52 19,2 °C 50 % 1017,1 hPa 0,0 mm 0,0 km/h (0 Bft) W-SW 237 ° 0 min 0,000 mm 3,1 UV-I 512 W/m² 8,5 °C 19,2 °C 0,0 km/h (0 Bft)
12.10.2019 13:53 19,1 °C 46 % 1017,0 hPa 0,0 mm 0,0 km/h (0 Bft) W-SW 237 ° 0 min 0,000 mm 3,1 UV-I 522 W/m² 7,2 °C 19,1 °C 0,0 km/h (0 Bft)
12.10.2019 13:54 19,1 °C 47 % 1017,1 hPa 0,0 mm 0,0 km/h (0 Bft) W-SW 237 ° 0 min 0,000 mm 3,2 UV-I 515 W/m² 7,5 °C 19,1 °C 0,0 km/h (0 Bft)
12.10.2019 13:55 19,1 °C 48 % 1017,1 hPa 0,0 mm 0,0 km/h (0 Bft) W-SW 237 ° 0 min 0,000 mm 3,2 UV-I 492 W/m² 7,8 °C 19,1 °C 0,0 km/h (0 Bft)
12.10.2019 13:56 18,8 °C 51 % 1017,0 hPa 0,0 mm 0,0 km/h (0 Bft) W-SW 237 ° 0 min 0,000 mm 2,9 UV-I 432 W/m² 8,4 °C 18,8 °C 0,0 km/h (0 Bft)
12.10.2019 13:57 18,8 °C 48 % 1017,1 hPa 0,0 mm 0,0 km/h (0 Bft) W-SW 237 ° 0 min 0,000 mm 2,9 UV-I 429 W/m² 7,6 °C 18,8 °C 0,0 km/h (0 Bft)
12.10.2019 13:58 18,8 °C 50 % 1017,1 hPa 0,0 mm 0,0 km/h (0 Bft) W-SW 237 ° 0 min 0,000 mm 2,6 UV-I 373 W/m² 8,2 °C 18,8 °C 0,0 km/h (0 Bft)
12.10.2019 13:59 18,8 °C 50 % 1017,1 hPa 0,0 mm 0,8 km/h (0 Bft) W-SW 237 ° 0 min 0,000 mm 2,5 UV-I 348 W/m² 8,2 °C 18,8 °C 1,6 km/h (1 Bft)
12.10.2019 14:00 18,8 °C 50 % 1017,1 hPa 0,0 mm 2,6 km/h (1 Bft) W-SW 237 ° 0 min 0,000 mm 2,6 UV-I 343 W/m² 8,2 °C 18,8 °C 4,8 km/h (1 Bft)
12.10.2019 14:01 18,8 °C 50 % 1017,1 hPa 0,0 mm 0,0 km/h (0 Bft) W-SW 237 ° 0 min 0,279 mm 2,8 UV-I 408 W/m² 8,2 °C 18,8 °C 0,0 km/h (0 Bft)
12.10.2019 14:02 18,9 °C 49 % 1017,1 hPa 0,0 mm 0,0 km/h (0 Bft) W-SW 237 ° 0 min 0,000 mm 2,9 UV-I 424 W/m² 7,9 °C 18,9 °C 0,0 km/h (0 Bft)
12.10.2019 14:03 19,1 °C 48 % 1017,1 hPa 0,0 mm 0,0 km/h (0 Bft) W-SW 237 ° 0 min 0,000 mm 2,9 UV-I 424 W/m² 7,8 °C 19,1 °C 0,0 km/h (0 Bft)
12.10.2019 14:04 19,3 °C 45 % 1017,1 hPa 0,0 mm 0,8 km/h (0 Bft) W-SW 237 ° 0 min 0,000 mm 3,0 UV-I 475 W/m² 7,1 °C 19,3 °C 3,2 km/h (1 Bft)
12.10.2019 14:05 19,5 °C 45 % 1017,1 hPa 0,0 mm 0,0 km/h (0 Bft) SW 236 ° 0 min 0,000 mm 2,9 UV-I 431 W/m² 7,2 °C 19,5 °C 0,0 km/h (0 Bft)
12.10.2019 14:06 19,6 °C 52 % 1017,0 hPa 0,0 mm 4,8 km/h (1 Bft) W-SW 243 ° 0 min 0,000 mm 3,0 UV-I 480 W/m² 9,5 °C 19,6 °C 6,4 km/h (2 Bft)
12.10.2019 14:07 19,3 °C 48 % 1017,1 hPa 0,0 mm 3,2 km/h (1 Bft) W-SW 243 ° 0 min 0,000 mm 3,0 UV-I 482 W/m² 8,0 °C 19,3 °C 4,8 km/h (1 Bft)
12.10.2019 14:08 19,4 °C 48 % 1017,1 hPa 0,0 mm 3,2 km/h (1 Bft) W-SW 243 ° 0 min 0,000 mm 3,1 UV-I 510 W/m² 8,1 °C 19,4 °C 4,8 km/h (1 Bft)
12.10.2019 14:09 19,6 °C 46 % 1017,0 hPa 0,0 mm 0,7 km/h (0 Bft) W-SW 243 ° 0 min 0,000 mm 3,2 UV-I 492 W/m² 7,7 °C 19,6 °C 4,8 km/h (1 Bft)
12.10.2019 14:10 19,8 °C 44 % 1017,0 hPa 0,0 mm 0,0 km/h (0 Bft) W-SW 243 ° 0 min 0,000 mm 3,3 UV-I 541 W/m² 7,2 °C 19,8 °C 0,0 km/h (0 Bft)
12.10.2019 14:11 19,9 °C 44 % 1017,0 hPa 0,0 mm 0,0 km/h (0 Bft) W-SW 243 ° 0 min 0,000 mm 3,3 UV-I 568 W/m² 7,3 °C 19,9 °C 0,0 km/h (0 Bft)
12.10.2019 14:12 19,8 °C 45 % 1017,0 hPa 0,0 mm 0,4 km/h (0 Bft) W-SW 243 ° 0 min 0,000 mm 3,3 UV-I 561 W/m² 7,5 °C 19,8 °C 3,2 km/h (1 Bft)
12.10.2019 14:13 19,7 °C 52 % 1017,0 hPa 0,0 mm 4,2 km/h (1 Bft) W-SW 243 ° 0 min 0,000 mm 3,3 UV-I 563 W/m² 9,6 °C 19,7 °C 6,4 km/h (2 Bft)
12.10.2019 14:14 19,7 °C 48 % 1017,0 hPa 0,0 mm 0,9 km/h (0 Bft) W-SW 243 ° 0 min 0,000 mm 3,3 UV-I 559 W/m² 8,4 °C 19,7 °C 3,2 km/h (1 Bft)
12.10.2019 14:15 19,6 °C 48 % 1017,0 hPa 0,0 mm 2,7 km/h (1 Bft) W-SW 244 ° 0 min 0,000 mm 3,3 UV-I 557 W/m² 8,3 °C 19,6 °C 4,8 km/h (1 Bft)
12.10.2019 14:16 19,4 °C 48 % 1017,0 hPa 0,0 mm 1,7 km/h (1 Bft) W-SW 244 ° 0 min 0,000 mm 3,3 UV-I 531 W/m² 8,1 °C 19,4 °C 4,8 km/h (1 Bft)
12.10.2019 14:17 19,3 °C 55 % 1017,0 hPa 0,0 mm 0,0 km/h (0 Bft) W-SW 244 ° 0 min 0,000 mm 3,3 UV-I 548 W/m² 10,0 °C 19,3 °C 0,0 km/h (0 Bft)
12.10.2019 14:18 19,3 °C 51 % 1017,0 hPa 0,0 mm 1,2 km/h (1 Bft) W-SW 244 ° 0 min 0,000 mm 3,2 UV-I 550 W/m² 8,9 °C 19,3 °C 4,8 km/h (1 Bft)
12.10.2019 14:19 19,3 °C 48 % 1016,9 hPa 0,0 mm 0,7 km/h (0 Bft) W-SW 244 ° 0 min 0,000 mm 3,2 UV-I 547 W/m² 8,0 °C 19,3 °C 4,8 km/h (1 Bft)
12.10.2019 14:20 19,3 °C 55 % 1016,9 hPa 0,0 mm 0,0 km/h (0 Bft) W-SW 244 ° 0 min 0,000 mm 3,2 UV-I 545 W/m² 10,0 °C 19,3 °C 0,0 km/h (0 Bft)
12.10.2019 14:21 19,1 °C 59 % 1016,9 hPa 0,0 mm 0,0 km/h (0 Bft) W-SW 244 ° 0 min 0,000 mm 3,2 UV-I 540 W/m² 10,9 °C 19,1 °C 0,0 km/h (0 Bft)
12.10.2019 14:22 18,9 °C 51 % 1016,8 hPa 0,0 mm 0,0 km/h (0 Bft) W-SW 244 ° 0 min 0,000 mm 3,2 UV-I 543 W/m² 8,5 °C 18,9 °C 0,0 km/h (0 Bft)
12.10.2019 14:23 18,9 °C 49 % 1016,9 hPa 0,0 mm 0,0 km/h (0 Bft) W-SW 244 ° 0 min 0,000 mm 3,2 UV-I 543 W/m² 7,9 °C 18,9 °C 0,0 km/h (0 Bft)
12.10.2019 14:24 19,1 °C 48 % 1016,9 hPa 0,0 mm 0,0 km/h (0 Bft) W-SW 244 ° 0 min 0,000 mm 3,2 UV-I 541 W/m² 7,8 °C 19,1 °C 0,0 km/h (0 Bft)
12.10.2019 14:25 19,2 °C 46 % 1016,8 hPa 0,0 mm 0,0 km/h (0 Bft) W-SW 244 ° 0 min 0,000 mm 3,2 UV-I 540 W/m² 7,3 °C 19,2 °C 0,0 km/h (0 Bft)
12.10.2019 14:26 19,3 °C 47 % 1016,9 hPa 0,0 mm 0,0 km/h (0 Bft) W-SW 244 ° 0 min 0,000 mm 3,1 UV-I 540 W/m² 7,7 °C 19,3 °C 0,0 km/h (0 Bft)
12.10.2019 14:27 19,4 °C 47 % 1016,8 hPa 0,0 mm 0,0 km/h (0 Bft) W-SW 244 ° 0 min 0,000 mm 3,1 UV-I 540 W/m² 7,8 °C 19,4 °C 0,0 km/h (0 Bft)
12.10.2019 14:28 19,3 °C 47 % 1016,9 hPa 0,0 mm 0,0 km/h (0 Bft) W-SW 244 ° 0 min 0,000 mm 3,1 UV-I 538 W/m² 7,7 °C 19,3 °C 0,0 km/h (0 Bft)
12.10.2019 14:29 19,3 °C 48 % 1016,9 hPa 0,0 mm 0,0 km/h (0 Bft) W-SW 244 ° 0 min 0,000 mm 3,1 UV-I 538 W/m² 8,0 °C 19,3 °C 0,0 km/h (0 Bft)
12.10.2019 14:30 19,4 °C 48 % 1016,9 hPa 0,0 mm 0,0 km/h (0 Bft) W-SW 244 ° 0 min 0,000 mm 3,1 UV-I 531 W/m² 8,1 °C 19,4 °C 0,0 km/h (0 Bft)
12.10.2019 14:31 19,4 °C 47 % 1016,8 hPa 0,0 mm 0,0 km/h (0 Bft) W-SW 244 ° 0 min 0,000 mm 3,0 UV-I 533 W/m² 7,8 °C 19,4 °C 0,0 km/h (0 Bft)
12.10.2019 14:32 19,5 °C 48 % 1016,9 hPa 0,0 mm 0,0 km/h (0 Bft) W-SW 244 ° 0 min 0,000 mm 3,1 UV-I 533 W/m² 8,2 °C 19,5 °C 0,0 km/h (0 Bft)
12.10.2019 14:33 19,6 °C 50 % 1016,9 hPa 0,0 mm 0,0 km/h (0 Bft) W-SW 244 ° 0 min 0,000 mm 3,1 UV-I 531 W/m² 8,9 °C 19,6 °C 0,0 km/h (0 Bft)
12.10.2019 14:34 19,7 °C 52 % 1016,9 hPa 0,0 mm 0,0 km/h (0 Bft) W-SW 244 ° 0 min 0,000 mm 3,1 UV-I 531 W/m² 9,6 °C 19,7 °C 0,0 km/h (0 Bft)
12.10.2019 14:35 19,8 °C 51 % 1016,9 hPa 0,0 mm 0,0 km/h (0 Bft) W-SW 244 ° 0 min 0,000 mm 3,1 UV-I 529 W/m² 9,4 °C 19,8 °C 0,0 km/h (0 Bft)
12.10.2019 14:36 20,0 °C 49 % 1016,9 hPa 0,0 mm 0,1 km/h (0 Bft) W-SW 244 ° 0 min 0,000 mm 3,1 UV-I 529 W/m² 9,0 °C 20,0 °C 1,6 km/h (1 Bft)
12.10.2019 14:37 20,1 °C 48 % 1016,9 hPa 0,0 mm 0,0 km/h (0 Bft) W-SW 244 ° 0 min 0,000 mm 3,0 UV-I 519 W/m² 8,7 °C 20,1 °C 0,0 km/h (0 Bft)
12.10.2019 14:38 20,1 °C 48 % 1016,8 hPa 0,0 mm 0,0 km/h (0 Bft) W-SW 244 ° 0 min 0,000 mm 3,0 UV-I 508 W/m² 8,7 °C 20,1 °C 0,0 km/h (0 Bft)
12.10.2019 14:39 20,0 °C 46 % 1016,9 hPa 0,0 mm 0,0 km/h (0 Bft) W-SW 244 ° 0 min 0,000 mm 3,0 UV-I 519 W/m² 8,0 °C 20,0 °C 0,0 km/h (0 Bft)
12.10.2019 14:40 19,9 °C 50 % 1016,8 hPa 0,0 mm 0,0 km/h (0 Bft) W-SW 244 ° 0 min 0,000 mm 3,0 UV-I 529 W/m² 9,2 °C 19,9 °C 0,0 km/h (0 Bft)
12.10.2019 14:41 19,8 °C 47 % 1016,8 hPa 0,0 mm 0,0 km/h (0 Bft) W-SW 244 ° 0 min 0,000 mm 3,0 UV-I 527 W/m² 8,2 °C 19,8 °C 0,0 km/h (0 Bft)
12.10.2019 14:42 19,7 °C 48 % 1016,8 hPa 0,0 mm 0,0 km/h (0 Bft) W-SW 244 ° 0 min 0,000 mm 2,7 UV-I 527 W/m² 8,4 °C 19,7 °C 0,0 km/h (0 Bft)
12.10.2019 14:43 19,6 °C 48 % 1016,7 hPa 0,0 mm 0,0 km/h (0 Bft) W-SW 244 ° 0 min 0,000 mm 2,8 UV-I 476 W/m² 8,3 °C 19,6 °C 0,0 km/h (0 Bft)
12.10.2019 14:44 19,4 °C 52 % 1016,7 hPa 0,0 mm 0,0 km/h (0 Bft) W-SW 244 ° 0 min 0,000 mm 2,8 UV-I 480 W/m² 9,3 °C 19,4 °C 0,0 km/h (0 Bft)
12.10.2019 14:45 19,2 °C 51 % 1016,7 hPa 0,0 mm 0,0 km/h (0 Bft) W-SW 244 ° 0 min 0,000 mm 2,9 UV-I 499 W/m² 8,8 °C 19,2 °C 0,0 km/h (0 Bft)
12.10.2019 14:46 19,1 °C 51 % 1016,7 hPa 0,0 mm 0,0 km/h (0 Bft) W-SW 244 ° 0 min 0,000 mm 2,9 UV-I 504 W/m² 8,7 °C 19,1 °C 0,0 km/h (0 Bft)
12.10.2019 14:47 19,0 °C 54 % 1016,6 hPa 0,0 mm 0,0 km/h (0 Bft) W-SW 244 ° 0 min 0,000 mm 2,8 UV-I 497 W/m² 9,5 °C 19,0 °C 0,0 km/h (0 Bft)
12.10.2019 14:48 19,0 °C 53 % 1016,7 hPa 0,0 mm 0,0 km/h (0 Bft) W-SW 244 ° 0 min 0,000 mm 2,8 UV-I 471 W/m² 9,2 °C 19,0 °C 0,0 km/h (0 Bft)
12.10.2019 14:49 19,0 °C 55 % 1016,6 hPa 0,0 mm 0,0 km/h (0 Bft) W-SW 244 ° 0 min 0,000 mm 2,7 UV-I 489 W/m² 9,8 °C 19,0 °C 0,0 km/h (0 Bft)
12.10.2019 14:50 19,1 °C 54 % 1016,6 hPa 0,0 mm 0,0 km/h (0 Bft) W-SW 244 ° 0 min 0,000 mm 2,8 UV-I 490 W/m² 9,6 °C 19,1 °C 0,0 km/h (0 Bft)
12.10.2019 14:51 19,2 °C 54 % 1016,6 hPa 0,0 mm 0,0 km/h (0 Bft) W-SW 244 ° 0 min 0,000 mm 2,8 UV-I 489 W/m² 9,7 °C 19,2 °C 0,0 km/h (0 Bft)
12.10.2019 14:52 19,4 °C 49 % 1016,6 hPa 0,0 mm 0,0 km/h (0 Bft) W-SW 244 ° 0 min 0,000 mm 2,8 UV-I 497 W/m² 8,4 °C 19,4 °C 0,0 km/h (0 Bft)
12.10.2019 14:53 19,5 °C 49 % 1016,6 hPa 0,0 mm 0,0 km/h (0 Bft) W-SW 244 ° 0 min 0,000 mm 2,8 UV-I 501 W/m² 8,5 °C 19,5 °C 0,0 km/h (0 Bft)
12.10.2019 14:54 19,6 °C 50 % 1016,7 hPa 0,0 mm 0,0 km/h (0 Bft) W-SW 244 ° 0 min 0,000 mm 2,7 UV-I 501 W/m² 8,9 °C 19,6 °C 0,0 km/h (0 Bft)
12.10.2019 14:55 19,5 °C 57 % 1016,7 hPa 0,0 mm 0,0 km/h (0 Bft) W-SW 244 ° 0 min 0,000 mm 2,7 UV-I 478 W/m² 10,8 °C 19,5 °C 0,0 km/h (0 Bft)
12.10.2019 14:56 19,6 °C 53 % 1016,7 hPa 0,0 mm 0,0 km/h (0 Bft) W-SW 244 ° 0 min 0,000 mm 2,5 UV-I 445 W/m² 9,8 °C 19,6 °C 0,0 km/h (0 Bft)
12.10.2019 14:57 19,7 °C 49 % 1016,7 hPa 0,0 mm 0,0 km/h (0 Bft) W-SW 244 ° 0 min 0,000 mm 2,5 UV-I 420 W/m² 8,7 °C 19,7 °C 0,0 km/h (0 Bft)
12.10.2019 14:58 19,8 °C 52 % 1016,7 hPa 0,0 mm 0,0 km/h (0 Bft) W-SW 244 ° 0 min 0,000 mm 2,6 UV-I 452 W/m² 9,7 °C 19,8 °C 0,0 km/h (0 Bft)
12.10.2019 14:59 19,8 °C 52 % 1016,7 hPa 0,0 mm 0,0 km/h (0 Bft) W-SW 244 ° 0 min 0,000 mm 2,6 UV-I 475 W/m² 9,7 °C 19,8 °C 0,0 km/h (0 Bft)
12.10.2019 15:00 19,8 °C 58 % 1016,7 hPa 0,0 mm 0,0 km/h (0 Bft) W-SW 244 ° 0 min 0,000 mm 2,6 UV-I 478 W/m² 11,3 °C 19,8 °C 0,0 km/h (0 Bft)
12.10.2019 15:01 19,7 °C 53 % 1016,7 hPa 0,0 mm 0,0 km/h (0 Bft) W-SW 244 ° 0 min 0,305 mm 2,6 UV-I 473 W/m² 9,8 °C 19,7 °C 0,0 km/h (0 Bft)
12.10.2019 15:02 19,7 °C 51 % 1016,7 hPa 0,0 mm 0,0 km/h (0 Bft) W-SW 244 ° 0 min 0,000 mm 2,7 UV-I 492 W/m² 9,3 °C 19,7 °C 0,0 km/h (0 Bft)
12.10.2019 15:03 19,7 °C 52 % 1016,7 hPa 0,0 mm 0,0 km/h (0 Bft) W-SW 244 ° 0 min 0,000 mm 2,7 UV-I 501 W/m² 9,6 °C 19,7 °C 0,0 km/h (0 Bft)
12.10.2019 15:04 19,8 °C 47 % 1016,7 hPa 0,0 mm 0,0 km/h (0 Bft) W-SW 244 ° 0 min 0,000 mm 2,7 UV-I 501 W/m² 8,2 °C 19,8 °C 0,0 km/h (0 Bft)
12.10.2019 15:05 19,8 °C 45 % 1016,7 hPa 0,0 mm 0,0 km/h (0 Bft) W-SW 244 ° 0 min 0,000 mm 2,7 UV-I 494 W/m² 7,5 °C 19,8 °C 0,0 km/h (0 Bft)
12.10.2019 15:06 19,8 °C 52 % 1016,7 hPa 0,0 mm 0,0 km/h (0 Bft) W-SW 244 ° 0 min 0,000 mm 2,7 UV-I 506 W/m² 9,7 °C 19,8 °C 0,0 km/h (0 Bft)
12.10.2019 15:07 19,8 °C 45 % 1016,7 hPa 0,0 mm 0,0 km/h (0 Bft) W-SW 244 ° 0 min 0,000 mm 2,7 UV-I 499 W/m² 7,5 °C 19,8 °C 0,0 km/h (0 Bft)
12.10.2019 15:08 19,8 °C 48 % 1016,6 hPa 0,0 mm 0,0 km/h (0 Bft) W-SW 244 ° 0 min 0,000 mm 2,7 UV-I 499 W/m² 8,5 °C 19,8 °C 0,0 km/h (0 Bft)
12.10.2019 15:09 19,8 °C 57 % 1016,6 hPa 0,0 mm 0,0 km/h (0 Bft) W-SW 244 ° 0 min 0,000 mm 2,7 UV-I 499 W/m² 11,0 °C 19,8 °C 0,0 km/h (0 Bft)
12.10.2019 15:10 19,8 °C 55 % 1016,6 hPa 0,0 mm 0,1 km/h (0 Bft) W-SW 244 ° 0 min 0,000 mm 2,6 UV-I 480 W/m² 10,5 °C 19,8 °C 1,6 km/h (1 Bft)
12.10.2019 15:11 19,9 °C 53 % 1016,6 hPa 0,0 mm 0,4 km/h (0 Bft) W-SW 244 ° 0 min 0,000 mm 2,6 UV-I 480 W/m² 10,0 °C 19,9 °C 1,6 km/h (1 Bft)
12.10.2019 15:12 19,9 °C 51 % 1016,6 hPa 0,0 mm 0,0 km/h (0 Bft) W-SW 244 ° 0 min 0,000 mm 2,6 UV-I 485 W/m² 9,5 °C 19,9 °C 0,0 km/h (0 Bft)
12.10.2019 15:13 20,1 °C 48 % 1016,6 hPa 0,0 mm 0,0 km/h (0 Bft) W-SW 244 ° 0 min 0,000 mm 2,6 UV-I 485 W/m² 8,7 °C 20,1 °C 0,0 km/h (0 Bft)
12.10.2019 15:14 20,2 °C 52 % 1016,6 hPa 0,2 mm 0,0 km/h (0 Bft) W-SW 244 ° 0 min 0,000 mm 2,6 UV-I 468 W/m² 10,0 °C 20,2 °C 0,0 km/h (0 Bft)
12.10.2019 15:15 20,2 °C 49 % 1016,6 hPa 0,0 mm 0,0 km/h (0 Bft) W-SW 244 ° 0 min 0,000 mm 2,6 UV-I 485 W/m² 9,1 °C 20,2 °C 0,0 km/h (0 Bft)
12.10.2019 15:16 20,2 °C 50 % 1016,6 hPa 0,0 mm 0,0 km/h (0 Bft) W-SW 244 ° 0 min 0,000 mm 2,5 UV-I 457 W/m² 9,4 °C 20,2 °C 0,0 km/h (0 Bft)
12.10.2019 15:17 20,1 °C 50 % 1016,6 hPa 0,0 mm 0,0 km/h (0 Bft) W-SW 244 ° 0 min 0,000 mm 2,4 UV-I 432 W/m² 9,3 °C 20,1 °C 0,0 km/h (0 Bft)
12.10.2019 15:18 20,1 °C 51 % 1016,6 hPa 0,0 mm 0,2 km/h (0 Bft) W-SW 244 ° 0 min 0,000 mm 2,3 UV-I 404 W/m² 9,6 °C 20,1 °C 1,6 km/h (1 Bft)
12.10.2019 15:19 20,2 °C 47 % 1016,6 hPa 0,0 mm 0,0 km/h (0 Bft) W-SW 244 ° 0 min 0,000 mm 2,3 UV-I 411 W/m² 8,5 °C 20,2 °C 0,0 km/h (0 Bft)
12.10.2019 15:20 20,2 °C 45 % 1016,6 hPa 0,0 mm 0,0 km/h (0 Bft) W-SW 244 ° 0 min 0,000 mm 2,4 UV-I 434 W/m² 7,9 °C 20,2 °C 0,0 km/h (0 Bft)
12.10.2019 15:21 20,3 °C 44 % 1016,6 hPa 0,0 mm 0,0 km/h (0 Bft) W-SW 244 ° 0 min 0,000 mm 2,4 UV-I 434 W/m² 7,6 °C 20,3 °C 0,0 km/h (0 Bft)
12.10.2019 15:22 20,3 °C 47 % 1016,6 hPa 0,0 mm 0,0 km/h (0 Bft) W-SW 244 ° 0 min 0,000 mm 2,4 UV-I 408 W/m² 8,6 °C 20,3 °C 0,0 km/h (0 Bft)
12.10.2019 15:23 20,1 °C 47 % 1016,7 hPa 0,0 mm 0,0 km/h (0 Bft) W-SW 244 ° 0 min 0,000 mm 2,2 UV-I 359 W/m² 8,4 °C 20,1 °C 0,0 km/h (0 Bft)
12.10.2019 15:24 19,8 °C 50 % 1016,7 hPa 0,0 mm 0,3 km/h (0 Bft) W-SW 244 ° 0 min 0,000 mm 2,2 UV-I 383 W/m² 9,1 °C 19,8 °C 1,6 km/h (1 Bft)
12.10.2019 15:25 19,6 °C 57 % 1016,7 hPa 0,0 mm 0,2 km/h (0 Bft) W-SW 244 ° 0 min 0,000 mm 2,3 UV-I 441 W/m² 10,8 °C 19,6 °C 1,6 km/h (1 Bft)
12.10.2019 15:26 19,7 °C 48 % 1016,7 hPa 0,0 mm 0,0 km/h (0 Bft) W-SW 244 ° 0 min 0,000 mm 2,3 UV-I 443 W/m² 8,4 °C 19,7 °C 0,0 km/h (0 Bft)
12.10.2019 15:27 19,7 °C 57 % 1016,7 hPa 0,0 mm 0,0 km/h (0 Bft) W-SW 244 ° 0 min 0,000 mm 2,3 UV-I 436 W/m² 10,9 °C 19,7 °C 0,0 km/h (0 Bft)
12.10.2019 15:28 19,7 °C 55 % 1016,7 hPa 0,0 mm 0,0 km/h (0 Bft) W-SW 244 ° 0 min 0,000 mm 2,2 UV-I 436 W/m² 10,4 °C 19,7 °C 0,0 km/h (0 Bft)
12.10.2019 15:29 19,7 °C 58 % 1016,7 hPa 0,0 mm 1,0 km/h (0 Bft) W-SW 244 ° 0 min 0,000 mm 2,2 UV-I 431 W/m² 11,2 °C 19,7 °C 3,2 km/h (1 Bft)
12.10.2019 15:30 19,6 °C 54 % 1016,7 hPa 0,0 mm 0,0 km/h (0 Bft) W-SW 244 ° 0 min 0,000 mm 2,2 UV-I 415 W/m² 10,0 °C 19,6 °C 0,0 km/h (0 Bft)
12.10.2019 15:31 19,6 °C 54 % 1016,7 hPa 0,0 mm 0,0 km/h (0 Bft) W-SW 244 ° 0 min 0,000 mm 2,2 UV-I 380 W/m² 10,0 °C 19,6 °C 0,0 km/h (0 Bft)
12.10.2019 15:32 19,7 °C 49 % 1016,7 hPa 0,0 mm 0,0 km/h (0 Bft) W-SW 244 ° 0 min 0,000 mm 2,2 UV-I 406 W/m² 8,7 °C 19,7 °C 0,0 km/h (0 Bft)
12.10.2019 15:33 19,8 °C 46 % 1016,7 hPa 0,0 mm 0,0 km/h (0 Bft) W-SW 244 ° 0 min 0,000 mm 2,2 UV-I 429 W/m² 7,8 °C 19,8 °C 0,0 km/h (0 Bft)
12.10.2019 15:34 19,8 °C 47 % 1016,7 hPa 0,0 mm 0,0 km/h (0 Bft) W-SW 244 ° 0 min 0,000 mm 2,2 UV-I 406 W/m² 8,2 °C 19,8 °C 0,0 km/h (0 Bft)
12.10.2019 15:35 19,9 °C 60 % 1016,7 hPa 0,0 mm 0,0 km/h (0 Bft) W-SW 244 ° 0 min 0,000 mm 2,1 UV-I 388 W/m² 11,9 °C 19,9 °C 0,0 km/h (0 Bft)
12.10.2019 15:36 19,9 °C 52 % 1016,7 hPa 0,0 mm 0,0 km/h (0 Bft) W-SW 244 ° 0 min 0,000 mm 2,1 UV-I 388 W/m² 9,7 °C 19,9 °C 0,0 km/h (0 Bft)
12.10.2019 15:37 20,0 °C 46 % 1016,6 hPa 0,0 mm 0,0 km/h (0 Bft) W-SW 244 ° 0 min 0,000 mm 1,9 UV-I 299 W/m² 8,0 °C 20,0 °C 0,0 km/h (0 Bft)
12.10.2019 15:38 20,0 °C 49 % 1016,6 hPa 0,0 mm 1,0 km/h (0 Bft) W-SW 244 ° 0 min 0,000 mm 1,9 UV-I 309 W/m² 9,0 °C 20,0 °C 1,6 km/h (1 Bft)
12.10.2019 15:39 19,8 °C 53 % 1016,6 hPa 0,0 mm 1,5 km/h (1 Bft) W-SW 244 ° 0 min 0,000 mm 2,0 UV-I 373 W/m² 9,9 °C 19,8 °C 3,2 km/h (1 Bft)
12.10.2019 15:40 19,6 °C 50 % 1016,6 hPa 0,0 mm 1,1 km/h (1 Bft) W-SW 244 ° 0 min 0,000 mm 1,8 UV-I 336 W/m² 8,9 °C 19,6 °C 3,2 km/h (1 Bft)
12.10.2019 15:41 19,6 °C 51 % 1016,6 hPa 0,0 mm 2,3 km/h (1 Bft) W-SW 244 ° 0 min 0,000 mm 2,0 UV-I 350 W/m² 9,2 °C 19,6 °C 3,2 km/h (1 Bft)
12.10.2019 15:42 19,6 °C 49 % 1016,6 hPa 0,0 mm 1,4 km/h (1 Bft) W-SW 244 ° 0 min 0,000 mm 1,9 UV-I 346 W/m² 8,6 °C 19,6 °C 3,2 km/h (1 Bft)
12.10.2019 15:43 19,7 °C 47 % 1016,6 hPa 0,0 mm 0,0 km/h (0 Bft) W-SW 244 ° 0 min 0,000 mm 1,9 UV-I 348 W/m² 8,1 °C 19,7 °C 0,0 km/h (0 Bft)
12.10.2019 15:44 19,6 °C 53 % 1016,6 hPa 0,0 mm 0,1 km/h (0 Bft) W-SW 244 ° 0 min 0,000 mm 1,9 UV-I 373 W/m² 9,8 °C 19,6 °C 1,6 km/h (1 Bft)
12.10.2019 15:45 19,6 °C 49 % 1016,6 hPa 0,0 mm 0,1 km/h (0 Bft) W-SW 244 ° 0 min 0,000 mm 1,9 UV-I 364 W/m² 8,6 °C 19,6 °C 1,6 km/h (1 Bft)
12.10.2019 15:46 19,4 °C 53 % 1016,6 hPa 0,0 mm 0,0 km/h (0 Bft) W-SW 244 ° 0 min 0,000 mm 1,9 UV-I 364 W/m² 9,6 °C 19,4 °C 0,0 km/h (0 Bft)
12.10.2019 15:47 19,4 °C 51 % 1016,6 hPa 0,0 mm 0,0 km/h (0 Bft) W-SW 244 ° 0 min 0,000 mm 1,9 UV-I 369 W/m² 9,0 °C 19,4 °C 0,0 km/h (0 Bft)
12.10.2019 15:48 19,4 °C 53 % 1016,6 hPa 0,0 mm 0,0 km/h (0 Bft) W-SW 244 ° 0 min 0,000 mm 1,9 UV-I 369 W/m² 9,6 °C 19,4 °C 0,0 km/h (0 Bft)
12.10.2019 15:49 19,5 °C 51 % 1016,6 hPa 0,0 mm 0,0 km/h (0 Bft) W-SW 244 ° 0 min 0,000 mm 1,9 UV-I 366 W/m² 9,1 °C 19,5 °C 0,0 km/h (0 Bft)
12.10.2019 15:50 19,5 °C 53 % 1016,6 hPa 0,0 mm 0,0 km/h (0 Bft) W-SW 244 ° 0 min 0,000 mm 1,8 UV-I 336 W/m² 9,7 °C 19,5 °C 0,0 km/h (0 Bft)
12.10.2019 15:51 19,6 °C 56 % 1016,5 hPa 0,0 mm 0,0 km/h (0 Bft) W-SW 244 ° 0 min 0,000 mm 1,8 UV-I 343 W/m² 10,6 °C 19,6 °C 0,0 km/h (0 Bft)
12.10.2019 15:52 19,8 °C 50 % 1016,5 hPa 0,0 mm 0,1 km/h (0 Bft) W-SW 244 ° 0 min 0,000 mm 1,7 UV-I 327 W/m² 9,1 °C 19,8 °C 1,6 km/h (1 Bft)
12.10.2019 15:53 19,8 °C 53 % 1016,5 hPa 0,0 mm 0,2 km/h (0 Bft) W-SW 244 ° 0 min 0,000 mm 1,7 UV-I 313 W/m² 9,9 °C 19,8 °C 1,6 km/h (1 Bft)
12.10.2019 15:54 19,8 °C 53 % 1016,5 hPa 0,0 mm 0,1 km/h (0 Bft) W-SW 244 ° 0 min 0,000 mm 1,7 UV-I 315 W/m² 9,9 °C 19,8 °C 1,6 km/h (1 Bft)
12.10.2019 15:55 19,7 °C 55 % 1016,5 hPa 0,0 mm 0,0 km/h (0 Bft) W-SW 244 ° 0 min 0,000 mm 1,7 UV-I 306 W/m² 10,4 °C 19,7 °C 0,0 km/h (0 Bft)
12.10.2019 15:56 19,4 °C 58 % 1016,5 hPa 0,0 mm 0,0 km/h (0 Bft) W-SW 244 ° 0 min 0,000 mm 1,7 UV-I 308 W/m² 10,9 °C 19,4 °C 0,0 km/h (0 Bft)
12.10.2019 15:57 19,3 °C 58 % 1016,5 hPa 0,0 mm 0,0 km/h (0 Bft) W-SW 244 ° 0 min 0,000 mm 1,6 UV-I 299 W/m² 10,8 °C 19,3 °C 0,0 km/h (0 Bft)
12.10.2019 15:58 19,2 °C 57 % 1016,5 hPa 0,0 mm 0,0 km/h (0 Bft) W-SW 244 ° 0 min 0,000 mm 1,6 UV-I 283 W/m² 10,5 °C 19,2 °C 0,0 km/h (0 Bft)
12.10.2019 15:59 19,0 °C 56 % 1016,5 hPa 0,0 mm 0,0 km/h (0 Bft) W-SW 244 ° 0 min 0,000 mm 1,6 UV-I 294 W/m² 10,0 °C 19,0 °C 0,0 km/h (0 Bft)
12.10.2019 16:00 18,8 °C 58 % 1016,6 hPa 0,0 mm 0,0 km/h (0 Bft) W-SW 244 ° 0 min 0,000 mm 1,5 UV-I 262 W/m² 10,4 °C 18,8 °C 0,0 km/h (0 Bft)
12.10.2019 16:01 18,8 °C 56 % 1016,6 hPa 0,0 mm 0,0 km/h (0 Bft) W-SW 244 ° 0 min 0,229 mm 1,5 UV-I 260 W/m² 9,8 °C 18,8 °C 0,0 km/h (0 Bft)
12.10.2019 16:02 18,8 °C 56 % 1016,6 hPa 0,0 mm 0,0 km/h (0 Bft) W-SW 244 ° 0 min 0,000 mm 1,5 UV-I 281 W/m² 9,8 °C 18,8 °C 0,0 km/h (0 Bft)
12.10.2019 16:03 18,9 °C 54 % 1016,5 hPa 0,0 mm 0,0 km/h (0 Bft) W-SW 244 ° 0 min 0,000 mm 1,5 UV-I 301 W/m² 9,4 °C 18,9 °C 0,0 km/h (0 Bft)
12.10.2019 16:04 19,0 °C 56 % 1016,6 hPa 0,0 mm 0,0 km/h (0 Bft) W-SW 244 ° 0 min 0,000 mm 1,6 UV-I 316 W/m² 10,0 °C 19,0 °C 0,0 km/h (0 Bft)
12.10.2019 16:05 19,1 °C 55 % 1016,6 hPa 0,0 mm 0,0 km/h (0 Bft) W-SW 244 ° 0 min 0,000 mm 1,6 UV-I 309 W/m² 9,8 °C 19,1 °C 0,0 km/h (0 Bft)
12.10.2019 16:06 19,2 °C 54 % 1016,5 hPa 0,0 mm 0,1 km/h (0 Bft) W-SW 244 ° 0 min 0,000 mm 1,5 UV-I 297 W/m² 9,7 °C 19,2 °C 1,6 km/h (1 Bft)
12.10.2019 16:07 19,3 °C 53 % 1016,6 hPa 0,0 mm 1,3 km/h (1 Bft) W-SW 244 ° 0 min 0,000 mm 1,5 UV-I 294 W/m² 9,5 °C 19,3 °C 1,6 km/h (1 Bft)
12.10.2019 16:08 19,3 °C 57 % 1016,6 hPa 0,0 mm 0,3 km/h (0 Bft) W-SW 244 ° 0 min 0,000 mm 1,5 UV-I 320 W/m² 10,6 °C 19,3 °C 1,6 km/h (1 Bft)
12.10.2019 16:09 19,3 °C 60 % 1016,6 hPa 0,0 mm 0,0 km/h (0 Bft) W-SW 244 ° 0 min 0,000 mm 1,5 UV-I 283 W/m² 11,3 °C 19,3 °C 0,0 km/h (0 Bft)
12.10.2019 16:10 19,3 °C 58 % 1016,5 hPa 0,0 mm 0,0 km/h (0 Bft) W-SW 244 ° 0 min 0,000 mm 1,5 UV-I 295 W/m² 10,8 °C 19,3 °C 0,0 km/h (0 Bft)
12.10.2019 16:11 19,2 °C 60 % 1016,6 hPa 0,0 mm 0,0 km/h (0 Bft) W-SW 244 ° 0 min 0,000 mm 1,5 UV-I 292 W/m² 11,2 °C 19,2 °C 0,0 km/h (0 Bft)
12.10.2019 16:12 19,2 °C 59 % 1016,6 hPa 0,0 mm 0,0 km/h (0 Bft) W-SW 244 ° 0 min 0,000 mm 1,4 UV-I 311 W/m² 11,0 °C 19,2 °C 0,0 km/h (0 Bft)
12.10.2019 16:13 19,2 °C 61 % 1016,5 hPa 0,0 mm 0,0 km/h (0 Bft) W-SW 244 ° 0 min 0,000 mm 1,4 UV-I 322 W/m² 11,5 °C 19,2 °C 0,0 km/h (0 Bft)
12.10.2019 16:14 19,2 °C 60 % 1016,5 hPa 0,0 mm 0,0 km/h (0 Bft) W-SW 244 ° 0 min 0,000 mm 1,4 UV-I 311 W/m² 11,2 °C 19,2 °C 0,0 km/h (0 Bft)
12.10.2019 16:15 19,2 °C 56 % 1016,6 hPa 0,0 mm 0,2 km/h (0 Bft) W-SW 244 ° 0 min 0,000 mm 1,4 UV-I 299 W/m² 10,2 °C 19,2 °C 1,6 km/h (1 Bft)
12.10.2019 16:16 19,3 °C 58 % 1016,5 hPa 0,0 mm 0,9 km/h (0 Bft) W-SW 244 ° 0 min 0,000 mm 1,2 UV-I 211 W/m² 10,8 °C 19,3 °C 3,2 km/h (1 Bft)
12.10.2019 16:17 19,3 °C 55 % 1016,5 hPa 0,0 mm 0,0 km/h (0 Bft) W-SW 244 ° 0 min 0,000 mm 1,0 UV-I 84 W/m² 10,0 °C 19,3 °C 0,0 km/h (0 Bft)
12.10.2019 16:18 19,2 °C 60 % 1016,5 hPa 0,0 mm 0,0 km/h (0 Bft) W-SW 244 ° 0 min 0,000 mm 1,0 UV-I 74 W/m² 11,2 °C 19,2 °C 0,0 km/h (0 Bft)
12.10.2019 16:19 19,1 °C 57 % 1016,5 hPa 0,0 mm 0,0 km/h (0 Bft) W-SW 244 ° 0 min 0,000 mm 1,0 UV-I 84 W/m² 10,4 °C 19,1 °C 0,0 km/h (0 Bft)
12.10.2019 16:20 19,0 °C 61 % 1016,5 hPa 0,0 mm 0,0 km/h (0 Bft) W-SW 244 ° 0 min 0,000 mm 1,0 UV-I 95 W/m² 11,3 °C 19,0 °C 0,0 km/h (0 Bft)
12.10.2019 16:21 18,8 °C 60 % 1016,5 hPa 0,0 mm 1,3 km/h (1 Bft) W-SW 244 ° 0 min 0,000 mm 1,0 UV-I 88 W/m² 10,9 °C 18,8 °C 3,2 km/h (1 Bft)
12.10.2019 16:22 18,8 °C 59 % 1016,5 hPa 0,0 mm 0,0 km/h (0 Bft) W-SW 244 ° 0 min 0,000 mm 1,0 UV-I 70 W/m² 10,6 °C 18,8 °C 0,0 km/h (0 Bft)
12.10.2019 16:23 18,8 °C 59 % 1016,5 hPa 0,0 mm 0,0 km/h (0 Bft) W-SW 244 ° 0 min 0,000 mm 1,0 UV-I 65 W/m² 10,6 °C 18,8 °C 0,0 km/h (0 Bft)
12.10.2019 16:24 18,7 °C 60 % 1016,5 hPa 0,0 mm 0,0 km/h (0 Bft) W-SW 244 ° 0 min 0,000 mm 0,9 UV-I 63 W/m² 10,8 °C 18,7 °C 0,0 km/h (0 Bft)
12.10.2019 16:25 18,7 °C 60 % 1016,4 hPa 0,0 mm 0,0 km/h (0 Bft) W-SW 244 ° 0 min 0,000 mm 0,9 UV-I 63 W/m² 10,8 °C 18,7 °C 0,0 km/h (0 Bft)
12.10.2019 16:26 18,6 °C 58 % 1016,5 hPa 0,0 mm 0,0 km/h (0 Bft) W-SW 244 ° 0 min 0,000 mm 0,9 UV-I 62 W/m² 10,2 °C 18,6 °C 0,0 km/h (0 Bft)
12.10.2019 16:27 18,7 °C 59 % 1016,5 hPa 0,0 mm 0,0 km/h (0 Bft) W-SW 244 ° 0 min 0,000 mm 0,9 UV-I 62 W/m² 10,5 °C 18,7 °C 0,0 km/h (0 Bft)
12.10.2019 16:28 18,6 °C 59 % 1016,5 hPa 0,0 mm 1,7 km/h (1 Bft) W-SW 244 ° 0 min 0,000 mm 0,9 UV-I 62 W/m² 10,4 °C 18,6 °C 3,2 km/h (1 Bft)
12.10.2019 16:29 18,6 °C 58 % 1016,4 hPa 0,0 mm 2,6 km/h (1 Bft) W-SW 244 ° 0 min 0,000 mm 0,9 UV-I 60 W/m² 10,2 °C 18,6 °C 3,2 km/h (1 Bft)
12.10.2019 16:30 18,6 °C 58 % 1016,5 hPa 0,0 mm 3,2 km/h (1 Bft) W-SW 244 ° 0 min 0,000 mm 0,9 UV-I 60 W/m² 10,2 °C 18,6 °C 4,8 km/h (1 Bft)
12.10.2019 16:31 18,4 °C 60 % 1016,4 hPa 0,0 mm 0,7 km/h (0 Bft) W-SW 244 ° 0 min 0,000 mm 0,9 UV-I 62 W/m² 10,5 °C 18,4 °C 1,6 km/h (1 Bft)
12.10.2019 16:32 18,4 °C 60 % 1016,4 hPa 0,0 mm 0,0 km/h (0 Bft) W-SW 244 ° 0 min 0,000 mm 0,9 UV-I 63 W/m² 10,5 °C 18,4 °C 0,0 km/h (0 Bft)
12.10.2019 16:33 18,4 °C 60 % 1016,4 hPa 0,0 mm 0,0 km/h (0 Bft) W-SW 244 ° 0 min 0,000 mm 0,8 UV-I 62 W/m² 10,5 °C 18,4 °C 0,0 km/h (0 Bft)
12.10.2019 16:34 18,4 °C 62 % 1016,5 hPa 0,0 mm 0,0 km/h (0 Bft) W-SW 244 ° 0 min 0,000 mm 0,8 UV-I 60 W/m² 11,0 °C 18,4 °C 0,0 km/h (0 Bft)
12.10.2019 16:35 18,3 °C 63 % 1016,5 hPa 0,0 mm 0,0 km/h (0 Bft) W-SW 244 ° 0 min 0,000 mm 0,8 UV-I 63 W/m² 11,1 °C 18,3 °C 0,0 km/h (0 Bft)
12.10.2019 16:36 18,2 °C 63 % 1016,5 hPa 0,0 mm 0,0 km/h (0 Bft) W-SW 244 ° 0 min 0,000 mm 0,8 UV-I 60 W/m² 11,0 °C 18,2 °C 0,0 km/h (0 Bft)
12.10.2019 16:37 18,3 °C 62 % 1016,5 hPa 0,0 mm 0,0 km/h (0 Bft) W-SW 244 ° 0 min 0,000 mm 0,8 UV-I 58 W/m² 10,9 °C 18,3 °C 0,0 km/h (0 Bft)
12.10.2019 16:38 18,3 °C 64 % 1016,5 hPa 0,0 mm 0,0 km/h (0 Bft) W-SW 244 ° 0 min 0,000 mm 0,8 UV-I 56 W/m² 11,4 °C 18,3 °C 0,0 km/h (0 Bft)
12.10.2019 16:39 18,3 °C 63 % 1016,5 hPa 0,0 mm 0,0 km/h (0 Bft) W-SW 244 ° 0 min 0,000 mm 0,8 UV-I 58 W/m² 11,1 °C 18,3 °C 0,0 km/h (0 Bft)
12.10.2019 16:40 18,2 °C 66 % 1016,4 hPa 0,0 mm 0,0 km/h (0 Bft) W-SW 244 ° 0 min 0,000 mm 0,0 UV-I 53 W/m² 11,7 °C 18,2 °C 0,0 km/h (0 Bft)
12.10.2019 16:41 18,2 °C 66 % 1016,4 hPa 0,0 mm 0,0 km/h (0 Bft) W-SW 244 ° 0 min 0,000 mm 0,0 UV-I 53 W/m² 11,7 °C 18,2 °C 0,0 km/h (0 Bft)
12.10.2019 16:42 18,2 °C 65 % 1016,4 hPa 0,0 mm 0,0 km/h (0 Bft) W-SW 244 ° 0 min 0,000 mm 0,0 UV-I 51 W/m² 11,5 °C 18,2 °C 0,0 km/h (0 Bft)
12.10.2019 16:43 18,1 °C 65 % 1016,4 hPa 0,0 mm 0,0 km/h (0 Bft) W-SW 244 ° 0 min 0,000 mm 0,0 UV-I 51 W/m² 11,4 °C 18,1 °C 0,0 km/h (0 Bft)
12.10.2019 16:44 18,1 °C 66 % 1016,4 hPa 0,0 mm 0,0 km/h (0 Bft) W-SW 244 ° 0 min 0,000 mm 0,0 UV-I 51 W/m² 11,6 °C 18,1 °C 0,0 km/h (0 Bft)
12.10.2019 16:45 18,1 °C 64 % 1016,4 hPa 0,0 mm 0,0 km/h (0 Bft) W-SW 244 ° 0 min 0,000 mm 0,0 UV-I 49 W/m² 11,2 °C 18,1 °C 0,0 km/h (0 Bft)
12.10.2019 16:46 18,0 °C 64 % 1016,4 hPa 0,0 mm 0,0 km/h (0 Bft) W-SW 244 ° 0 min 0,000 mm 0,0 UV-I 49 W/m² 11,1 °C 18,0 °C 0,0 km/h (0 Bft)
12.10.2019 16:47 18,0 °C 66 % 1016,4 hPa 0,0 mm 0,0 km/h (0 Bft) W-SW 244 ° 0 min 0,000 mm 0,0 UV-I 49 W/m² 11,6 °C 18,0 °C 0,0 km/h (0 Bft)
12.10.2019 16:48 18,0 °C 64 % 1016,4 hPa 0,0 mm 0,0 km/h (0 Bft) W-SW 244 ° 0 min 0,000 mm 0,0 UV-I 49 W/m² 11,1 °C 18,0 °C 0,0 km/h (0 Bft)
12.10.2019 16:49 18,1 °C 65 % 1016,4 hPa 0,0 mm 0,8 km/h (0 Bft) W-SW 244 ° 0 min 0,000 mm 0,0 UV-I 49 W/m² 11,4 °C 18,1 °C 3,2 km/h (1 Bft)
12.10.2019 16:50 18,1 °C 66 % 1016,5 hPa 0,0 mm 0,8 km/h (0 Bft) W-SW 244 ° 0 min 0,000 mm 0,0 UV-I 49 W/m² 11,6 °C 18,1 °C 3,2 km/h (1 Bft)
12.10.2019 16:51 18,1 °C 67 % 1016,4 hPa 0,0 mm 0,1 km/h (0 Bft) W-SW 244 ° 0 min 0,000 mm 0,0 UV-I 49 W/m² 11,9 °C 18,1 °C 1,6 km/h (1 Bft)
12.10.2019 16:52 18,0 °C 67 % 1016,5 hPa 0,0 mm 0,0 km/h (0 Bft) W-SW 244 ° 0 min 0,000 mm 0,0 UV-I 49 W/m² 11,8 °C 18,0 °C 0,0 km/h (0 Bft)
12.10.2019 16:53 18,0 °C 68 % 1016,4 hPa 0,0 mm 0,0 km/h (0 Bft) W-SW 244 ° 0 min 0,000 mm 0,0 UV-I 51 W/m² 12,0 °C 18,0 °C 0,0 km/h (0 Bft)
12.10.2019 16:54 17,9 °C 69 % 1016,5 hPa 0,0 mm 0,1 km/h (0 Bft) W-SW 244 ° 0 min 0,000 mm 0,0 UV-I 51 W/m² 12,1 °C 17,9 °C 1,6 km/h (1 Bft)
12.10.2019 16:55 17,8 °C 68 % 1016,4 hPa 0,0 mm 2,3 km/h (1 Bft) W-SW 244 ° 0 min 0,000 mm 0,0 UV-I 51 W/m² 11,8 °C 17,8 °C 3,2 km/h (1 Bft)
12.10.2019 16:56 17,7 °C 68 % 1016,4 hPa 0,0 mm 1,0 km/h (0 Bft) W-SW 244 ° 0 min 0,000 mm 0,0 UV-I 51 W/m² 11,7 °C 17,7 °C 3,2 km/h (1 Bft)
12.10.2019 16:57 17,6 °C 69 % 1016,5 hPa 0,0 mm 3,0 km/h (1 Bft) W-SW 244 ° 0 min 0,000 mm 0,0 UV-I 51 W/m² 11,8 °C 17,6 °C 3,2 km/h (1 Bft)
12.10.2019 16:58 17,6 °C 69 % 1016,5 hPa 0,0 mm 2,6 km/h (1 Bft) W-SW 244 ° 0 min 0,000 mm 0,0 UV-I 53 W/m² 11,8 °C 17,6 °C 3,2 km/h (1 Bft)
12.10.2019 16:59 17,5 °C 69 % 1016,4 hPa 0,0 mm 3,2 km/h (1 Bft) W-SW 244 ° 0 min 0,000 mm 0,0 UV-I 53 W/m² 11,7 °C 17,5 °C 3,2 km/h (1 Bft)
12.10.2019 17:00 17,4 °C 70 % 1016,4 hPa 0,0 mm 3,2 km/h (1 Bft) W-SW 244 ° 0 min 0,000 mm 0,0 UV-I 53 W/m² 11,9 °C 17,4 °C 4,8 km/h (1 Bft)
12.10.2019 17:01 17,3 °C 71 % 1016,4 hPa 0,0 mm 1,9 km/h (1 Bft) W-SW 244 ° 0 min 0,076 mm 0,0 UV-I 53 W/m² 12,0 °C 17,3 °C 4,8 km/h (1 Bft)
12.10.2019 17:02 17,3 °C 72 % 1016,4 hPa 0,0 mm 0,0 km/h (0 Bft) W-SW 244 ° 0 min 0,000 mm 0,0 UV-I 54 W/m² 12,2 °C 17,3 °C 0,0 km/h (0 Bft)
12.10.2019 17:03 17,2 °C 72 % 1016,4 hPa 0,0 mm 0,0 km/h (0 Bft) W-SW 244 ° 0 min 0,000 mm 0,0 UV-I 54 W/m² 12,1 °C 17,2 °C 0,0 km/h (0 Bft)
12.10.2019 17:04 17,2 °C 72 % 1016,4 hPa 0,0 mm 0,0 km/h (0 Bft) W-SW 244 ° 0 min 0,000 mm 0,0 UV-I 56 W/m² 12,1 °C 17,2 °C 0,0 km/h (0 Bft)
12.10.2019 17:05 17,2 °C 72 % 1016,4 hPa 0,0 mm 0,0 km/h (0 Bft) W-SW 244 ° 0 min 0,000 mm 0,6 UV-I 56 W/m² 12,1 °C 17,2 °C 0,0 km/h (0 Bft)
12.10.2019 17:06 17,1 °C 71 % 1016,3 hPa 0,0 mm 0,0 km/h (0 Bft) W-SW 244 ° 0 min 0,000 mm 0,5 UV-I 58 W/m² 11,8 °C 17,1 °C 0,0 km/h (0 Bft)
12.10.2019 17:07 17,0 °C 71 % 1016,4 hPa 0,0 mm 0,0 km/h (0 Bft) W-SW 244 ° 0 min 0,000 mm 0,5 UV-I 58 W/m² 11,7 °C 17,0 °C 0,0 km/h (0 Bft)
12.10.2019 17:08 16,9 °C 72 % 1016,4 hPa 0,0 mm 0,0 km/h (0 Bft) W-SW 244 ° 0 min 0,000 mm 0,5 UV-I 58 W/m² 11,8 °C 16,9 °C 0,0 km/h (0 Bft)
12.10.2019 17:09 16,8 °C 72 % 1016,3 hPa 0,0 mm 0,0 km/h (0 Bft) W-SW 244 ° 0 min 0,000 mm 0,5 UV-I 58 W/m² 11,7 °C 16,8 °C 0,0 km/h (0 Bft)
12.10.2019 17:10 16,8 °C 72 % 1016,4 hPa 0,0 mm 1,7 km/h (1 Bft) W-SW 244 ° 0 min 0,000 mm 0,5 UV-I 56 W/m² 11,7 °C 16,8 °C 4,8 km/h (1 Bft)
12.10.2019 17:11 16,7 °C 72 % 1016,3 hPa 0,0 mm 4,4 km/h (1 Bft) W-SW 244 ° 0 min 0,000 mm 0,5 UV-I 56 W/m² 11,6 °C 16,7 °C 4,8 km/h (1 Bft)
12.10.2019 17:12 16,7 °C 72 % 1016,3 hPa 0,0 mm 3,2 km/h (1 Bft) W-SW 244 ° 0 min 0,000 mm 0,0 UV-I 54 W/m² 11,6 °C 16,7 °C 4,8 km/h (1 Bft)
12.10.2019 17:13 16,6 °C 73 % 1016,3 hPa 0,0 mm 5,1 km/h (1 Bft) W-SW 244 ° 0 min 0,000 mm 0,0 UV-I 54 W/m² 11,7 °C 16,6 °C 6,4 km/h (2 Bft)
12.10.2019 17:14 16,5 °C 74 % 1016,4 hPa 0,0 mm 6,3 km/h (2 Bft) W-SW 244 ° 0 min 0,000 mm 0,0 UV-I 54 W/m² 11,8 °C 16,5 °C 6,4 km/h (2 Bft)
12.10.2019 17:15 16,4 °C 74 % 1016,4 hPa 0,0 mm 5,2 km/h (1 Bft) W-SW 244 ° 0 min 0,000 mm 0,0 UV-I 53 W/m² 11,8 °C 16,4 °C 6,4 km/h (2 Bft)
12.10.2019 17:16 16,3 °C 75 % 1016,4 hPa 0,0 mm 4,2 km/h (1 Bft) W-SW 244 ° 0 min 0,000 mm 0,0 UV-I 53 W/m² 11,9 °C 16,3 °C 6,4 km/h (2 Bft)
12.10.2019 17:17 16,2 °C 75 % 1016,5 hPa 0,0 mm 4,6 km/h (1 Bft) W-SW 244 ° 0 min 0,000 mm 0,0 UV-I 53 W/m² 11,8 °C 16,2 °C 6,4 km/h (2 Bft)
12.10.2019 17:18 16,1 °C 75 % 1016,5 hPa 0,0 mm 4,3 km/h (1 Bft) W-SW 244 ° 0 min 0,000 mm 0,0 UV-I 53 W/m² 11,7 °C 16,1 °C 6,4 km/h (2 Bft)
12.10.2019 17:19 16,1 °C 75 % 1016,5 hPa 0,0 mm 0,9 km/h (0 Bft) W-SW 244 ° 0 min 0,000 mm 0,0 UV-I 51 W/m² 11,7 °C 16,1 °C 3,2 km/h (1 Bft)
12.10.2019 17:20 15,9 °C 74 % 1016,5 hPa 0,0 mm 2,6 km/h (1 Bft) W-SW 244 ° 0 min 0,000 mm 0,0 UV-I 51 W/m² 11,3 °C 15,9 °C 3,2 km/h (1 Bft)
12.10.2019 17:21 16,0 °C 74 % 1016,5 hPa 0,0 mm 2,2 km/h (1 Bft) W-SW 244 ° 0 min 0,000 mm 0,0 UV-I 51 W/m² 11,4 °C 16,0 °C 3,2 km/h (1 Bft)
12.10.2019 17:22 15,9 °C 74 % 1016,5 hPa 0,0 mm 2,8 km/h (1 Bft) W-SW 244 ° 0 min 0,000 mm 0,0 UV-I 51 W/m² 11,3 °C 15,9 °C 3,2 km/h (1 Bft)
12.10.2019 17:23 15,9 °C 74 % 1016,5 hPa 0,0 mm 3,4 km/h (1 Bft) W-SW 244 ° 0 min 0,000 mm 0,0 UV-I 51 W/m² 11,3 °C 15,9 °C 4,8 km/h (1 Bft)
12.10.2019 17:24 15,8 °C 75 % 1016,5 hPa 0,0 mm 4,1 km/h (1 Bft) W-SW 244 ° 0 min 0,000 mm 0,0 UV-I 51 W/m² 11,4 °C 15,8 °C 4,8 km/h (1 Bft)
12.10.2019 17:25 15,7 °C 76 % 1016,5 hPa 0,0 mm 2,9 km/h (1 Bft) W-SW 244 ° 0 min 0,000 mm 0,0 UV-I 51 W/m² 11,5 °C 15,7 °C 4,8 km/h (1 Bft)
12.10.2019 17:26 15,6 °C 76 % 1016,5 hPa 0,0 mm 3,5 km/h (1 Bft) W-SW 244 ° 0 min 0,000 mm 0,0 UV-I 51 W/m² 11,4 °C 15,6 °C 4,8 km/h (1 Bft)
12.10.2019 17:27 15,6 °C 76 % 1016,6 hPa 0,0 mm 3,5 km/h (1 Bft) W-SW 244 ° 0 min 0,000 mm 0,0 UV-I 49 W/m² 11,4 °C 15,6 °C 4,8 km/h (1 Bft)
12.10.2019 17:28 15,6 °C 76 % 1016,6 hPa 0,0 mm 2,6 km/h (1 Bft) W-SW 244 ° 0 min 0,000 mm 0,0 UV-I 49 W/m² 11,4 °C 15,6 °C 3,2 km/h (1 Bft)
12.10.2019 17:29 15,6 °C 75 % 1016,6 hPa 0,0 mm 2,9 km/h (1 Bft) W-SW 244 ° 0 min 0,000 mm 0,0 UV-I 47 W/m² 11,2 °C 15,6 °C 4,8 km/h (1 Bft)
12.10.2019 17:30 15,6 °C 76 % 1016,6 hPa 0,0 mm 0,5 km/h (0 Bft) W-SW 244 ° 0 min 0,000 mm 0,0 UV-I 47 W/m² 11,4 °C 15,6 °C 1,6 km/h (1 Bft)
12.10.2019 17:31 15,7 °C 75 % 1016,5 hPa 0,0 mm 0,0 km/h (0 Bft) W-SW 244 ° 0 min 0,000 mm 0,0 UV-I 47 W/m² 11,3 °C 15,7 °C 0,0 km/h (0 Bft)
12.10.2019 17:32 15,7 °C 75 % 1016,5 hPa 0,0 mm 0,0 km/h (0 Bft) W-SW 244 ° 0 min 0,000 mm 0,0 UV-I 46 W/m² 11,3 °C 15,7 °C 0,0 km/h (0 Bft)
12.10.2019 17:33 15,7 °C 75 % 1016,5 hPa 0,0 mm 0,0 km/h (0 Bft) W-SW 244 ° 0 min 0,000 mm 0,0 UV-I 46 W/m² 11,3 °C 15,7 °C 0,0 km/h (0 Bft)
12.10.2019 17:34 15,7 °C 75 % 1016,5 hPa 0,0 mm 0,0 km/h (0 Bft) W-SW 244 ° 0 min 0,000 mm 0,0 UV-I 44 W/m² 11,3 °C 15,7 °C 0,0 km/h (0 Bft)
12.10.2019 17:35 15,6 °C 75 % 1016,5 hPa 0,0 mm 3,1 km/h (1 Bft) W-SW 244 ° 0 min 0,000 mm 0,0 UV-I 44 W/m² 11,2 °C 15,6 °C 4,8 km/h (1 Bft)
12.10.2019 17:36 15,4 °C 76 % 1016,5 hPa 0,0 mm 3,8 km/h (1 Bft) W-SW 244 ° 0 min 0,000 mm 0,0 UV-I 44 W/m² 11,2 °C 15,4 °C 4,8 km/h (1 Bft)
12.10.2019 17:37 15,3 °C 77 % 1016,5 hPa 0,0 mm 4,6 km/h (1 Bft) W-SW 244 ° 0 min 0,000 mm 0,0 UV-I 44 W/m² 11,3 °C 15,3 °C 6,4 km/h (2 Bft)
12.10.2019 17:38 15,2 °C 77 % 1016,5 hPa 0,0 mm 3,9 km/h (1 Bft) W-SW 244 ° 0 min 0,000 mm 0,0 UV-I 46 W/m² 11,2 °C 15,2 °C 6,4 km/h (2 Bft)
12.10.2019 17:39 15,1 °C 77 % 1016,5 hPa 0,0 mm 3,8 km/h (1 Bft) W-SW 244 ° 0 min 0,000 mm 0,0 UV-I 46 W/m² 11,1 °C 15,1 °C 4,8 km/h (1 Bft)
12.10.2019 17:40 15,1 °C 76 % 1016,5 hPa 0,0 mm 2,5 km/h (1 Bft) W-SW 244 ° 0 min 0,000 mm 0,0 UV-I 44 W/m² 10,9 °C 15,1 °C 4,8 km/h (1 Bft)
12.10.2019 17:41 15,1 °C 76 % 1016,5 hPa 0,0 mm 3,1 km/h (1 Bft) W-SW 244 ° 0 min 0,000 mm 0,0 UV-I 44 W/m² 10,9 °C 15,1 °C 4,8 km/h (1 Bft)
12.10.2019 17:42 15,1 °C 76 % 1016,4 hPa 0,0 mm 1,7 km/h (1 Bft) W-SW 244 ° 0 min 0,000 mm 0,0 UV-I 44 W/m² 10,9 °C 15,1 °C 3,2 km/h (1 Bft)
12.10.2019 17:43 15,2 °C 76 % 1016,4 hPa 0,0 mm 2,2 km/h (1 Bft) W-SW 244 ° 0 min 0,000 mm 0,0 UV-I 42 W/m² 11,0 °C 15,2 °C 3,2 km/h (1 Bft)
12.10.2019 17:44 15,2 °C 76 % 1016,4 hPa 0,0 mm 3,1 km/h (1 Bft) W-SW 244 ° 0 min 0,000 mm 0,0 UV-I 40 W/m² 11,0 °C 15,2 °C 4,8 km/h (1 Bft)
12.10.2019 17:45 15,2 °C 76 % 1016,4 hPa 0,0 mm 2,4 km/h (1 Bft) W-SW 244 ° 0 min 0,000 mm 0,0 UV-I 40 W/m² 11,0 °C 15,2 °C 3,2 km/h (1 Bft)
12.10.2019 17:46 15,2 °C 76 % 1016,4 hPa 0,0 mm 2,6 km/h (1 Bft) W-SW 244 ° 0 min 0,000 mm 0,0 UV-I 39 W/m² 11,0 °C 15,2 °C 4,8 km/h (1 Bft)
12.10.2019 17:47 15,1 °C 77 % 1016,4 hPa 0,0 mm 2,3 km/h (1 Bft) W-SW 244 ° 0 min 0,000 mm 0,0 UV-I 39 W/m² 11,1 °C 15,1 °C 3,2 km/h (1 Bft)
12.10.2019 17:48 15,1 °C 76 % 1016,3 hPa 0,0 mm 1,8 km/h (1 Bft) W-SW 244 ° 0 min 0,000 mm 0,0 UV-I 37 W/m² 10,9 °C 15,1 °C 3,2 km/h (1 Bft)
12.10.2019 17:49 15,1 °C 76 % 1016,3 hPa 0,0 mm 2,2 km/h (1 Bft) W-SW 244 ° 0 min 0,000 mm 0,0 UV-I 37 W/m² 10,9 °C 15,1 °C 3,2 km/h (1 Bft)
12.10.2019 17:50 15,1 °C 75 % 1016,3 hPa 0,0 mm 1,9 km/h (1 Bft) W-SW 244 ° 0 min 0,000 mm 0,0 UV-I 33 W/m² 10,7 °C 15,1 °C 3,2 km/h (1 Bft)
12.10.2019 17:51 15,2 °C 75 % 1016,4 hPa 0,0 mm 2,5 km/h (1 Bft) W-SW 244 ° 0 min 0,000 mm 0,0 UV-I 33 W/m² 10,8 °C 15,2 °C 3,2 km/h (1 Bft)
12.10.2019 17:52 15,2 °C 75 % 1016,4 hPa 0,0 mm 2,9 km/h (1 Bft) W-SW 244 ° 0 min 0,000 mm 0,0 UV-I 33 W/m² 10,8 °C 15,2 °C 4,8 km/h (1 Bft)
12.10.2019 17:53 15,3 °C 75 % 1016,3 hPa 0,0 mm 2,6 km/h (1 Bft) W-SW 244 ° 0 min 0,000 mm 0,0 UV-I 32 W/m² 10,9 °C 15,3 °C 3,2 km/h (1 Bft)
12.10.2019 17:54 15,3 °C 74 % 1016,4 hPa 0,0 mm 2,6 km/h (1 Bft) W-SW 244 ° 0 min 0,000 mm 0,0 UV-I 32 W/m² 10,7 °C 15,3 °C 3,2 km/h (1 Bft)
12.10.2019 17:55 15,3 °C 74 % 1016,4 hPa 0,0 mm 1,6 km/h (1 Bft) W-SW 244 ° 0 min 0,000 mm 0,0 UV-I 30 W/m² 10,7 °C 15,3 °C 3,2 km/h (1 Bft)
12.10.2019 17:56 15,4 °C 74 % 1016,4 hPa 0,0 mm 0,0 km/h (0 Bft) W-SW 244 ° 0 min 0,000 mm 0,0 UV-I 28 W/m² 10,8 °C 15,4 °C 0,0 km/h (0 Bft)
12.10.2019 17:57 15,4 °C 74 % 1016,4 hPa 0,0 mm 0,0 km/h (0 Bft) W-SW 244 ° 0 min 0,000 mm 0,0 UV-I 28 W/m² 10,8 °C 15,4 °C 0,0 km/h (0 Bft)
12.10.2019 17:58 15,3 °C 74 % 1016,4 hPa 0,0 mm 0,0 km/h (0 Bft) W-SW 244 ° 0 min 0,000 mm 0,0 UV-I 26 W/m² 10,7 °C 15,3 °C 0,0 km/h (0 Bft)
12.10.2019 17:59 15,3 °C 74 % 1016,3 hPa 0,0 mm 0,0 km/h (0 Bft) W-SW 244 ° 0 min 0,000 mm 0,0 UV-I 26 W/m² 10,7 °C 15,3 °C 0,0 km/h (0 Bft)
12.10.2019 18:00 15,3 °C 74 % 1016,4 hPa 0,0 mm 0,0 km/h (0 Bft) W-SW 244 ° 0 min 0,000 mm 0,0 UV-I 26 W/m² 10,7 °C 15,3 °C 0,0 km/h (0 Bft)
12.10.2019 18:01 15,3 °C 74 % 1016,3 hPa 0,0 mm 0,0 km/h (0 Bft) W-SW 244 ° 0 min 0,025 mm 0,0 UV-I 26 W/m² 10,7 °C 15,3 °C 0,0 km/h (0 Bft)
12.10.2019 18:02 15,2 °C 74 % 1016,4 hPa 0,0 mm 0,0 km/h (0 Bft) W-SW 244 ° 0 min 0,000 mm 0,0 UV-I 25 W/m² 10,6 °C 15,2 °C 0,0 km/h (0 Bft)
12.10.2019 18:03 15,1 °C 74 % 1016,3 hPa 0,0 mm 0,0 km/h (0 Bft) W-SW 244 ° 0 min 0,000 mm 0,0 UV-I 25 W/m² 10,5 °C 15,1 °C 0,0 km/h (0 Bft)
12.10.2019 18:04 15,0 °C 75 % 1016,3 hPa 0,0 mm 0,0 km/h (0 Bft) W-SW 244 ° 0 min 0,000 mm 0,0 UV-I 25 W/m² 10,6 °C 15,0 °C 0,0 km/h (0 Bft)
12.10.2019 18:05 14,9 °C 74 % 1016,3 hPa 0,0 mm 0,0 km/h (0 Bft) W-SW 244 ° 0 min 0,000 mm 0,0 UV-I 25 W/m² 10,3 °C 14,9 °C 0,0 km/h (0 Bft)
12.10.2019 18:06 14,8 °C 74 % 1016,3 hPa 0,0 mm 0,0 km/h (0 Bft) W-SW 244 ° 0 min 0,000 mm 0,0 UV-I 25 W/m² 10,2 °C 14,8 °C 0,0 km/h (0 Bft)
12.10.2019 18:07 14,7 °C 74 % 1016,4 hPa 0,0 mm 0,0 km/h (0 Bft) W-SW 244 ° 0 min 0,000 mm 0,0 UV-I 23 W/m² 10,1 °C 14,7 °C 0,0 km/h (0 Bft)
12.10.2019 18:08 14,7 °C 75 % 1016,4 hPa 0,0 mm 0,0 km/h (0 Bft) W-SW 244 ° 0 min 0,000 mm 0,0 UV-I 23 W/m² 10,3 °C 14,7 °C 0,0 km/h (0 Bft)
12.10.2019 18:09 14,6 °C 75 % 1016,4 hPa 0,0 mm 0,0 km/h (0 Bft) W-SW 244 ° 0 min 0,000 mm 0,0 UV-I 21 W/m² 10,2 °C 14,6 °C 0,0 km/h (0 Bft)
12.10.2019 18:10 14,5 °C 75 % 1016,4 hPa 0,0 mm 0,0 km/h (0 Bft) W-SW 244 ° 0 min 0,000 mm 0,0 UV-I 21 W/m² 10,1 °C 14,5 °C 0,0 km/h (0 Bft)
12.10.2019 18:11 14,4 °C 76 % 1016,4 hPa 0,0 mm 0,0 km/h (0 Bft) W-SW 244 ° 0 min 0,000 mm 0,0 UV-I 21 W/m² 10,2 °C 14,4 °C 0,0 km/h (0 Bft)
12.10.2019 18:12 14,4 °C 75 % 1016,4 hPa 0,0 mm 0,0 km/h (0 Bft) W-SW 244 ° 0 min 0,000 mm 0,0 UV-I 21 W/m² 10,0 °C 14,4 °C 0,0 km/h (0 Bft)
12.10.2019 18:13 14,3 °C 75 % 1016,4 hPa 0,0 mm 0,0 km/h (0 Bft) W-SW 244 ° 0 min 0,000 mm 0,0 UV-I 19 W/m² 9,9 °C 14,3 °C 0,0 km/h (0 Bft)
12.10.2019 18:14 14,3 °C 75 % 1016,4 hPa 0,0 mm 0,0 km/h (0 Bft) W-SW 244 ° 0 min 0,000 mm 0,0 UV-I 18 W/m² 9,9 °C 14,3 °C 0,0 km/h (0 Bft)
12.10.2019 18:15 14,3 °C 75 % 1016,4 hPa 0,0 mm 0,0 km/h (0 Bft) W-SW 244 ° 0 min 0,000 mm 0,0 UV-I 16 W/m² 9,9 °C 14,3 °C 0,0 km/h (0 Bft)
12.10.2019 18:16 14,2 °C 75 % 1016,4 hPa 0,0 mm 0,0 km/h (0 Bft) W-SW 244 ° 0 min 0,000 mm 0,0 UV-I 16 W/m² 9,8 °C 14,2 °C 0,0 km/h (0 Bft)
12.10.2019 18:17 14,1 °C 75 % 1016,4 hPa 0,0 mm 0,0 km/h (0 Bft) W-SW 244 ° 0 min 0,000 mm 0,0 UV-I 14 W/m² 9,7 °C 14,1 °C 0,0 km/h (0 Bft)
12.10.2019 18:18 14,1 °C 75 % 1016,4 hPa 0,0 mm 0,0 km/h (0 Bft) W-SW 244 ° 0 min 0,000 mm 0,0 UV-I 14 W/m² 9,7 °C 14,1 °C 0,0 km/h (0 Bft)
12.10.2019 18:19 14,1 °C 76 % 1016,4 hPa 0,0 mm 0,0 km/h (0 Bft) W-SW 244 ° 0 min 0,000 mm 0,0 UV-I 12 W/m² 9,9 °C 14,1 °C 0,0 km/h (0 Bft)
12.10.2019 18:20 14,0 °C 76 % 1016,4 hPa 0,0 mm 0,0 km/h (0 Bft) W-SW 244 ° 0 min 0,000 mm 0,0 UV-I 12 W/m² 9,8 °C 14,0 °C 0,0 km/h (0 Bft)
12.10.2019 18:21 14,0 °C 76 % 1016,4 hPa 0,0 mm 0,0 km/h (0 Bft) W-SW 244 ° 0 min 0,000 mm 0,0 UV-I 12 W/m² 9,8 °C 14,0 °C 0,0 km/h (0 Bft)
12.10.2019 18:22 13,9 °C 76 % 1016,4 hPa 0,0 mm 0,0 km/h (0 Bft) W-SW 244 ° 0 min 0,000 mm 0,0 UV-I 11 W/m² 9,7 °C 13,9 °C 0,0 km/h (0 Bft)
12.10.2019 18:23 13,9 °C 76 % 1016,4 hPa 0,0 mm 0,0 km/h (0 Bft) W-SW 244 ° 0 min 0,000 mm 0,0 UV-I 11 W/m² 9,7 °C 13,9 °C 0,0 km/h (0 Bft)
12.10.2019 18:24 13,9 °C 76 % 1016,4 hPa 0,0 mm 0,0 km/h (0 Bft) W-SW 244 ° 0 min 0,000 mm 0,0 UV-I 11 W/m² 9,7 °C 13,9 °C 0,0 km/h (0 Bft)
12.10.2019 18:25 13,8 °C 76 % 1016,4 hPa 0,0 mm 0,0 km/h (0 Bft) W-SW 244 ° 0 min 0,000 mm 0,0 UV-I 9 W/m² 9,6 °C 13,8 °C 0,0 km/h (0 Bft)
12.10.2019 18:26 13,8 °C 77 % 1016,4 hPa 0,0 mm 0,0 km/h (0 Bft) W-SW 244 ° 0 min 0,000 mm 0,0 UV-I 9 W/m² 9,8 °C 13,8 °C 0,0 km/h (0 Bft)
12.10.2019 18:27 13,8 °C 76 % 1016,5 hPa 0,0 mm 0,0 km/h (0 Bft) W-SW 244 ° 0 min 0,000 mm 0,0 UV-I 7 W/m² 9,6 °C 13,8 °C 0,0 km/h (0 Bft)
12.10.2019 18:28 13,7 °C 77 % 1016,5 hPa 0,0 mm 0,0 km/h (0 Bft) W-SW 244 ° 0 min 0,000 mm 0,0 UV-I 7 W/m² 9,7 °C 13,7 °C 0,0 km/h (0 Bft)
12.10.2019 18:29 13,7 °C 77 % 1016,5 hPa 0,0 mm 0,0 km/h (0 Bft) W-SW 244 ° 0 min 0,000 mm 0,0 UV-I 7 W/m² 9,7 °C 13,7 °C 0,0 km/h (0 Bft)
12.10.2019 18:30 13,7 °C 77 % 1016,5 hPa 0,0 mm 0,0 km/h (0 Bft) W-SW 244 ° 0 min 0,000 mm 0,0 UV-I 7 W/m² 9,7 °C 13,7 °C 0,0 km/h (0 Bft)
12.10.2019 18:31 13,7 °C 77 % 1016,5 hPa 0,0 mm 0,0 km/h (0 Bft) W-SW 244 ° 0 min 0,000 mm 0,0 UV-I 5 W/m² 9,7 °C 13,7 °C 0,0 km/h (0 Bft)
12.10.2019 18:32 13,6 °C 77 % 1016,5 hPa 0,0 mm 0,0 km/h (0 Bft) W-SW 244 ° 0 min 0,000 mm 0,0 UV-I 5 W/m² 9,6 °C 13,6 °C 0,0 km/h (0 Bft)
12.10.2019 18:33 13,6 °C 77 % 1016,5 hPa 0,0 mm 0,0 km/h (0 Bft) W-SW 244 ° 0 min 0,000 mm 0,0 UV-I 5 W/m² 9,6 °C 13,6 °C 0,0 km/h (0 Bft)
12.10.2019 18:34 13,6 °C 77 % 1016,5 hPa 0,0 mm 0,0 km/h (0 Bft) W-SW 244 ° 0 min 0,000 mm 0,0 UV-I 0 W/m² 9,6 °C 13,6 °C 0,0 km/h (0 Bft)
12.10.2019 18:35 13,6 °C 77 % 1016,5 hPa 0,0 mm 0,0 km/h (0 Bft) W-SW 244 ° 0 min 0,000 mm 0,0 UV-I 0 W/m² 9,6 °C 13,6 °C 0,0 km/h (0 Bft)
12.10.2019 18:36 13,4 °C 77 % 1016,5 hPa 0,0 mm 0,0 km/h (0 Bft) W-SW 244 ° 0 min 0,000 mm 0,0 UV-I 0 W/m² 9,5 °C 13,4 °C 0,0 km/h (0 Bft)
12.10.2019 18:37 13,4 °C 77 % 1016,6 hPa 0,0 mm 0,0 km/h (0 Bft) W-SW 244 ° 0 min 0,000 mm 0,0 UV-I 0 W/m² 9,5 °C 13,4 °C 0,0 km/h (0 Bft)
12.10.2019 18:38 13,4 °C 77 % 1016,6 hPa 0,0 mm 0,0 km/h (0 Bft) W-SW 244 ° 0 min 0,000 mm 0,0 UV-I 0 W/m² 9,5 °C 13,4 °C 0,0 km/h (0 Bft)
12.10.2019 18:39 13,4 °C 77 % 1016,6 hPa 0,0 mm 0,0 km/h (0 Bft) W-SW 244 ° 0 min 0,000 mm 0,0 UV-I 0 W/m² 9,5 °C 13,4 °C 0,0 km/h (0 Bft)
12.10.2019 18:40 13,4 °C 77 % 1016,6 hPa 0,0 mm 0,0 km/h (0 Bft) W-SW 244 ° 0 min 0,000 mm 0,0 UV-I 0 W/m² 9,5 °C 13,4 °C 0,0 km/h (0 Bft)
12.10.2019 18:41 13,3 °C 77 % 1016,6 hPa 0,0 mm 0,0 km/h (0 Bft) W-SW 244 ° 0 min 0,000 mm 0,0 UV-I 0 W/m² 9,4 °C 13,3 °C 0,0 km/h (0 Bft)
12.10.2019 18:42 13,3 °C 77 % 1016,6 hPa 0,0 mm 0,0 km/h (0 Bft) W-SW 244 ° 0 min 0,000 mm 0,0 UV-I 0 W/m² 9,4 °C 13,3 °C 0,0 km/h (0 Bft)
12.10.2019 18:43 13,2 °C 77 % 1016,6 hPa 0,0 mm 0,0 km/h (0 Bft) W-SW 244 ° 0 min 0,000 mm 0,0 UV-I 0 W/m² 9,3 °C 13,2 °C 0,0 km/h (0 Bft)
12.10.2019 18:44 13,2 °C 77 % 1016,6 hPa 0,0 mm 0,0 km/h (0 Bft) W-SW 244 ° 0 min 0,000 mm 0,0 UV-I 0 W/m² 9,3 °C 13,2 °C 0,0 km/h (0 Bft)
12.10.2019 18:45 13,2 °C 78 % 1016,6 hPa 0,0 mm 0,0 km/h (0 Bft) W-SW 244 ° 0 min 0,000 mm 0,0 UV-I 0 W/m² 9,4 °C 13,2 °C 0,0 km/h (0 Bft)
12.10.2019 18:46 13,2 °C 78 % 1016,6 hPa 0,0 mm 0,0 km/h (0 Bft) W-SW 244 ° 0 min 0,000 mm 0,0 UV-I 0 W/m² 9,4 °C 13,2 °C 0,0 km/h (0 Bft)
12.10.2019 18:47 13,1 °C 78 % 1016,6 hPa 0,0 mm 0,0 km/h (0 Bft) W-SW 244 ° 0 min 0,000 mm 0,0 UV-I 0 W/m² 9,4 °C 13,1 °C 0,0 km/h (0 Bft)
12.10.2019 18:48 13,1 °C 78 % 1016,6 hPa 0,0 mm 0,0 km/h (0 Bft) W-SW 244 ° 0 min 0,000 mm 0,0 UV-I 0 W/m² 9,4 °C 13,1 °C 0,0 km/h (0 Bft)
12.10.2019 18:49 13,1 °C 78 % 1016,6 hPa 0,0 mm 0,0 km/h (0 Bft) W-SW 244 ° 0 min 0,000 mm 0,0 UV-I 0 W/m² 9,4 °C 13,1 °C 0,0 km/h (0 Bft)
12.10.2019 18:50 13,1 °C 78 % 1016,6 hPa 0,0 mm 0,0 km/h (0 Bft) W-SW 244 ° 0 min 0,000 mm 0,0 UV-I 0 W/m² 9,4 °C 13,1 °C 0,0 km/h (0 Bft)
12.10.2019 18:51 13,1 °C 78 % 1016,6 hPa 0,0 mm 0,0 km/h (0 Bft) W-SW 244 ° 0 min 0,000 mm 0,0 UV-I 0 W/m² 9,4 °C 13,1 °C 0,0 km/h (0 Bft)
12.10.2019 18:52 13,1 °C 77 % 1016,7 hPa 0,0 mm 0,0 km/h (0 Bft) W-SW 244 ° 0 min 0,000 mm 0,0 UV-I 0 W/m² 9,2 °C 13,1 °C 0,0 km/h (0 Bft)
12.10.2019 18:53 13,1 °C 78 % 1016,7 hPa 0,0 mm 0,0 km/h (0 Bft) W-SW 244 ° 0 min 0,000 mm 0,0 UV-I 0 W/m² 9,4 °C 13,1 °C 0,0 km/h (0 Bft)
12.10.2019 18:54 13,1 °C 78 % 1016,7 hPa 0,0 mm 0,0 km/h (0 Bft) W-SW 244 ° 0 min 0,000 mm 0,0 UV-I 0 W/m² 9,4 °C 13,1 °C 0,0 km/h (0 Bft)
12.10.2019 18:55 13,1 °C 77 % 1016,8 hPa 0,0 mm 0,0 km/h (0 Bft) W-SW 244 ° 0 min 0,000 mm 0,0 UV-I 0 W/m² 9,2 °C 13,1 °C 0,0 km/h (0 Bft)
12.10.2019 18:56 13,1 °C 77 % 1016,8 hPa 0,0 mm 0,0 km/h (0 Bft) W-SW 244 ° 0 min 0,000 mm 0,0 UV-I 0 W/m² 9,2 °C 13,1 °C 0,0 km/h (0 Bft)
12.10.2019 18:57 13,1 °C 77 % 1016,9 hPa 0,0 mm 0,0 km/h (0 Bft) W-SW 244 ° 0 min 0,000 mm 0,0 UV-I 0 W/m² 9,2 °C 13,1 °C 0,0 km/h (0 Bft)
12.10.2019 18:58 13,1 °C 77 % 1017,0 hPa 0,0 mm 0,2 km/h (0 Bft) W-SW 244 ° 0 min 0,000 mm 0,0 UV-I 0 W/m² 9,2 °C 13,1 °C 1,6 km/h (1 Bft)
12.10.2019 18:59 12,9 °C 78 % 1017,0 hPa 0,0 mm 1,2 km/h (1 Bft) W-SW 244 ° 0 min 0,000 mm 0,0 UV-I 0 W/m² 9,2 °C 12,9 °C 3,2 km/h (1 Bft)
12.10.2019 19:00 12,8 °C 78 % 1017,0 hPa 0,0 mm 0,7 km/h (0 Bft) W-SW 244 ° 0 min 0,000 mm 0,0 UV-I 0 W/m² 9,1 °C 12,8 °C 1,6 km/h (1 Bft)
12.10.2019 19:01 12,6 °C 78 % 1017,1 hPa 0,0 mm 1,2 km/h (1 Bft) W-SW 244 ° 0 min 0,000 mm 0,0 UV-I 0 W/m² 8,9 °C 12,6 °C 3,2 km/h (1 Bft)
12.10.2019 19:02 12,4 °C 79 % 1017,1 hPa 0,0 mm 3,4 km/h (1 Bft) W-SW 244 ° 0 min 0,000 mm 0,0 UV-I 0 W/m² 8,9 °C 12,4 °C 4,8 km/h (1 Bft)
12.10.2019 19:03 12,4 °C 79 % 1017,1 hPa 0,0 mm 0,1 km/h (0 Bft) W-SW 244 ° 0 min 0,000 mm 0,0 UV-I 0 W/m² 8,9 °C 12,4 °C 1,6 km/h (1 Bft)
12.10.2019 19:04 12,3 °C 80 % 1017,1 hPa 0,0 mm 0,0 km/h (0 Bft) W-SW 244 ° 0 min 0,000 mm 0,0 UV-I 0 W/m² 8,9 °C 12,3 °C 0,0 km/h (0 Bft)
12.10.2019 19:05 12,3 °C 80 % 1017,1 hPa 0,0 mm 0,0 km/h (0 Bft) W-SW 244 ° 0 min 0,000 mm 0,0 UV-I 0 W/m² 8,9 °C 12,3 °C 0,0 km/h (0 Bft)
12.10.2019 19:06 12,4 °C 81 % 1017,1 hPa 0,0 mm 0,0 km/h (0 Bft) W-SW 244 ° 0 min 0,000 mm 0,0 UV-I 0 W/m² 9,2 °C 12,4 °C 0,0 km/h (0 Bft)
12.10.2019 19:07 12,4 °C 81 % 1017,2 hPa 0,0 mm 0,0 km/h (0 Bft) W-SW 244 ° 0 min 0,000 mm 0,0 UV-I 0 W/m² 9,2 °C 12,4 °C 0,0 km/h (0 Bft)
12.10.2019 19:08 12,5 °C 81 % 1017,1 hPa 0,0 mm 0,0 km/h (0 Bft) W-SW 244 ° 0 min 0,000 mm 0,0 UV-I 0 W/m² 9,3 °C 12,5 °C 0,0 km/h (0 Bft)
12.10.2019 19:09 12,4 °C 81 % 1017,1 hPa 0,0 mm 0,0 km/h (0 Bft) W-SW 244 ° 0 min 0,000 mm 0,0 UV-I 0 W/m² 9,2 °C 12,4 °C 0,0 km/h (0 Bft)
12.10.2019 19:10 12,4 °C 81 % 1017,1 hPa 0,0 mm 0,2 km/h (0 Bft) W-SW 244 ° 0 min 0,000 mm 0,0 UV-I 0 W/m² 9,2 °C 12,4 °C 4,8 km/h (1 Bft)
12.10.2019 19:11 12,2 °C 80 % 1017,2 hPa 0,0 mm 3,5 km/h (1 Bft) W-SW 244 ° 0 min 0,000 mm 0,0 UV-I 0 W/m² 8,9 °C 12,2 °C 4,8 km/h (1 Bft)
12.10.2019 19:12 12,1 °C 80 % 1017,1 hPa 0,0 mm 2,3 km/h (1 Bft) W-SW 244 ° 0 min 0,000 mm 0,0 UV-I 0 W/m² 8,8 °C 12,1 °C 3,2 km/h (1 Bft)
12.10.2019 19:13 12,1 °C 81 % 1017,1 hPa 0,0 mm 0,8 km/h (0 Bft) W-SW 244 ° 0 min 0,000 mm 0,0 UV-I 0 W/m² 8,9 °C 12,1 °C 3,2 km/h (1 Bft)
12.10.2019 19:14 12,0 °C 82 % 1017,2 hPa 0,0 mm 3,2 km/h (1 Bft) W-SW 244 ° 0 min 0,000 mm 0,0 UV-I 0 W/m² 9,0 °C 12,0 °C 4,8 km/h (1 Bft)
12.10.2019 19:15 11,9 °C 82 % 1017,2 hPa 0,0 mm 3,6 km/h (1 Bft) W-SW 244 ° 0 min 0,000 mm 0,0 UV-I 0 W/m² 8,9 °C 11,9 °C 4,8 km/h (1 Bft)
12.10.2019 19:16 11,8 °C 82 % 1017,1 hPa 0,0 mm 3,4 km/h (1 Bft) W-SW 244 ° 0 min 0,000 mm 0,0 UV-I 0 W/m² 8,8 °C 11,8 °C 4,8 km/h (1 Bft)
12.10.2019 19:17 11,8 °C 83 % 1017,1 hPa 0,0 mm 3,1 km/h (1 Bft) W-SW 244 ° 0 min 0,000 mm 0,0 UV-I 0 W/m² 9,0 °C 11,8 °C 4,8 km/h (1 Bft)
12.10.2019 19:18 11,9 °C 83 % 1017,2 hPa 0,0 mm 2,3 km/h (1 Bft) W-SW 244 ° 0 min 0,000 mm 0,0 UV-I 0 W/m² 9,1 °C 11,9 °C 3,2 km/h (1 Bft)
12.10.2019 19:19 11,9 °C 83 % 1017,2 hPa 0,0 mm 1,1 km/h (1 Bft) W-SW 244 ° 0 min 0,000 mm 0,0 UV-I 0 W/m² 9,1 °C 11,9 °C 3,2 km/h (1 Bft)
12.10.2019 19:20 12,0 °C 82 % 1017,2 hPa 0,0 mm 3,6 km/h (1 Bft) W-SW 244 ° 0 min 0,000 mm 0,0 UV-I 0 W/m² 9,0 °C 12,0 °C 6,4 km/h (2 Bft)
12.10.2019 19:21 12,1 °C 81 % 1017,2 hPa 0,0 mm 2,2 km/h (1 Bft) W-SW 244 ° 0 min 0,000 mm 0,0 UV-I 0 W/m² 8,9 °C 12,1 °C 4,8 km/h (1 Bft)
12.10.2019 19:22 12,0 °C 82 % 1017,2 hPa 0,0 mm 0,0 km/h (0 Bft) W-SW 244 ° 0 min 0,000 mm 0,0 UV-I 0 W/m² 9,0 °C 12,0 °C 0,0 km/h (0 Bft)
12.10.2019 19:23 11,9 °C 82 % 1017,2 hPa 0,0 mm 1,7 km/h (1 Bft) W-SW 244 ° 0 min 0,000 mm 0,0 UV-I 0 W/m² 8,9 °C 11,9 °C 3,2 km/h (1 Bft)
12.10.2019 19:24 11,9 °C 82 % 1017,3 hPa 0,0 mm 1,1 km/h (1 Bft) W-SW 244 ° 0 min 0,000 mm 0,0 UV-I 0 W/m² 8,9 °C 11,9 °C 3,2 km/h (1 Bft)
12.10.2019 19:25 11,9 °C 82 % 1017,3 hPa 0,0 mm 0,0 km/h (0 Bft) W-SW 244 ° 0 min 0,000 mm 0,0 UV-I 0 W/m² 8,9 °C 11,9 °C 0,0 km/h (0 Bft)
12.10.2019 19:26 11,9 °C 82 % 1017,3 hPa 0,0 mm 1,7 km/h (1 Bft) SW 222 ° 0 min 0,000 mm 0,0 UV-I 0 W/m² 8,9 °C 11,9 °C 4,8 km/h (1 Bft)
12.10.2019 19:27 12,1 °C 82 % 1017,3 hPa 0,0 mm 2,5 km/h (1 Bft) SW 221 ° 0 min 0,000 mm 0,0 UV-I 0 W/m² 9,1 °C 12,1 °C 4,8 km/h (1 Bft)
12.10.2019 19:28 12,1 °C 81 % 1017,3 hPa 0,0 mm 3,0 km/h (1 Bft) S-SW 209 ° 0 min 0,000 mm 0,0 UV-I 0 W/m² 8,9 °C 12,1 °C 4,8 km/h (1 Bft)
12.10.2019 19:29 12,2 °C 81 % 1017,3 hPa 0,0 mm 6,7 km/h (2 Bft) S 188 ° 0 min 0,000 mm 0,0 UV-I 0 W/m² 9,0 °C 12,2 °C 9,7 km/h (2 Bft)
12.10.2019 19:30 12,2 °C 81 % 1017,3 hPa 0,0 mm 4,0 km/h (1 Bft) S 176 ° 0 min 0,000 mm 0,0 UV-I 0 W/m² 9,0 °C 12,2 °C 4,8 km/h (1 Bft)
12.10.2019 19:31 12,3 °C 80 % 1017,3 hPa 0,0 mm 1,4 km/h (1 Bft) S 176 ° 0 min 0,000 mm 0,0 UV-I 0 W/m² 8,9 °C 12,3 °C 3,2 km/h (1 Bft)
12.10.2019 19:32 12,4 °C 80 % 1017,3 hPa 0,0 mm 1,5 km/h (1 Bft) S 176 ° 0 min 0,000 mm 0,0 UV-I 0 W/m² 9,0 °C 12,4 °C 4,8 km/h (1 Bft)
12.10.2019 19:33 12,4 °C 79 % 1017,4 hPa 0,0 mm 0,0 km/h (0 Bft) S 176 ° 0 min 0,000 mm 0,0 UV-I 0 W/m² 8,9 °C 12,4 °C 0,0 km/h (0 Bft)
12.10.2019 19:34 12,4 °C 79 % 1017,4 hPa 0,0 mm 0,0 km/h (0 Bft) S 176 ° 0 min 0,000 mm 0,0 UV-I 0 W/m² 8,9 °C 12,4 °C 0,0 km/h (0 Bft)
12.10.2019 19:35 12,4 °C 79 % 1017,4 hPa 0,0 mm 2,0 km/h (1 Bft) S 176 ° 0 min 0,000 mm 0,0 UV-I 0 W/m² 8,9 °C 12,4 °C 4,8 km/h (1 Bft)
12.10.2019 19:36 12,3 °C 79 % 1017,3 hPa 0,0 mm 3,9 km/h (1 Bft) S 176 ° 0 min 0,000 mm 0,0 UV-I 0 W/m² 8,8 °C 12,3 °C 6,4 km/h (2 Bft)
12.10.2019 19:37 12,2 °C 79 % 1017,4 hPa 0,0 mm 4,7 km/h (1 Bft) S 178 ° 0 min 0,000 mm 0,0 UV-I 0 W/m² 8,7 °C 12,2 °C 6,4 km/h (2 Bft)
12.10.2019 19:38 12,1 °C 79 % 1017,4 hPa 0,0 mm 5,0 km/h (1 Bft) S 178 ° 0 min 0,000 mm 0,0 UV-I 0 W/m² 8,6 °C 12,1 °C 6,4 km/h (2 Bft)
12.10.2019 19:39 11,9 °C 80 % 1017,4 hPa 0,0 mm 4,9 km/h (1 Bft) S 178 ° 0 min 0,000 mm 0,0 UV-I 0 W/m² 8,6 °C 11,9 °C 6,4 km/h (2 Bft)
12.10.2019 19:40 11,8 °C 80 % 1017,4 hPa 0,0 mm 5,9 km/h (2 Bft) S 178 ° 0 min 0,000 mm 0,0 UV-I 0 W/m² 8,5 °C 11,8 °C 6,4 km/h (2 Bft)
12.10.2019 19:41 11,7 °C 80 % 1017,4 hPa 0,0 mm 6,1 km/h (2 Bft) S 178 ° 0 min 0,000 mm 0,0 UV-I 0 W/m² 8,4 °C 11,7 °C 8,0 km/h (2 Bft)
12.10.2019 19:42 11,6 °C 81 % 1017,4 hPa 0,0 mm 5,8 km/h (2 Bft) S 182 ° 0 min 0,000 mm 0,0 UV-I 0 W/m² 8,5 °C 11,6 °C 8,0 km/h (2 Bft)
12.10.2019 19:43 11,4 °C 81 % 1017,4 hPa 0,0 mm 5,0 km/h (1 Bft) S 182 ° 0 min 0,000 mm 0,0 UV-I 0 W/m² 8,3 °C 11,4 °C 6,4 km/h (2 Bft)
12.10.2019 19:44 11,4 °C 82 % 1017,4 hPa 0,0 mm 4,7 km/h (1 Bft) S 182 ° 0 min 0,000 mm 0,0 UV-I 0 W/m² 8,4 °C 11,4 °C 6,4 km/h (2 Bft)
12.10.2019 19:45 11,3 °C 82 % 1017,5 hPa 0,0 mm 3,2 km/h (1 Bft) S 182 ° 0 min 0,000 mm 0,0 UV-I 0 W/m² 8,3 °C 11,3 °C 4,8 km/h (1 Bft)
12.10.2019 19:46 11,3 °C 83 % 1017,5 hPa 0,0 mm 2,7 km/h (1 Bft) S 182 ° 0 min 0,000 mm 0,0 UV-I 0 W/m² 8,5 °C 11,3 °C 4,8 km/h (1 Bft)
12.10.2019 19:47 11,3 °C 82 % 1017,5 hPa 0,0 mm 0,0 km/h (0 Bft) S 182 ° 0 min 0,000 mm 0,0 UV-I 0 W/m² 8,3 °C 11,3 °C 0,0 km/h (0 Bft)
12.10.2019 19:48 11,3 °C 82 % 1017,5 hPa 0,0 mm 0,5 km/h (0 Bft) S 182 ° 0 min 0,000 mm 0,0 UV-I 0 W/m² 8,3 °C 11,3 °C 1,6 km/h (1 Bft)
12.10.2019 19:49 11,2 °C 83 % 1017,6 hPa 0,0 mm 0,1 km/h (0 Bft) S 182 ° 0 min 0,000 mm 0,0 UV-I 0 W/m² 8,4 °C 11,2 °C 1,6 km/h (1 Bft)
12.10.2019 19:50 11,1 °C 83 % 1017,6 hPa 0,0 mm 0,1 km/h (0 Bft) S 182 ° 0 min 0,000 mm 0,0 UV-I 0 W/m² 8,3 °C 11,1 °C 1,6 km/h (1 Bft)
12.10.2019 19:51 10,9 °C 85 % 1017,5 hPa 0,0 mm 4,2 km/h (1 Bft) S 181 ° 0 min 0,000 mm 0,0 UV-I 0 W/m² 8,5 °C 10,9 °C 4,8 km/h (1 Bft)
12.10.2019 19:52 10,9 °C 85 % 1017,5 hPa 0,0 mm 3,8 km/h (1 Bft) S 181 ° 0 min 0,000 mm 0,0 UV-I 0 W/m² 8,5 °C 10,9 °C 6,4 km/h (2 Bft)
12.10.2019 19:53 11,0 °C 85 % 1017,5 hPa 0,0 mm 4,8 km/h (1 Bft) S 177 ° 0 min 0,000 mm 0,0 UV-I 0 W/m² 8,6 °C 11,0 °C 6,4 km/h (2 Bft)
12.10.2019 19:54 11,1 °C 85 % 1017,6 hPa 0,0 mm 4,1 km/h (1 Bft) S 182 ° 0 min 0,000 mm 0,0 UV-I 0 W/m² 8,7 °C 11,1 °C 6,4 km/h (2 Bft)
12.10.2019 19:55 11,2 °C 84 % 1017,5 hPa 0,0 mm 0,2 km/h (0 Bft) S 182 ° 0 min 0,000 mm 0,0 UV-I 0 W/m² 8,6 °C 11,2 °C 1,6 km/h (1 Bft)
12.10.2019 19:56 11,3 °C 84 % 1017,5 hPa 0,0 mm 0,0 km/h (0 Bft) S 182 ° 0 min 0,000 mm 0,0 UV-I 0 W/m² 8,7 °C 11,3 °C 0,0 km/h (0 Bft)
12.10.2019 19:57 11,4 °C 84 % 1017,6 hPa 0,0 mm 0,0 km/h (0 Bft) S 182 ° 0 min 0,000 mm 0,0 UV-I 0 W/m² 8,8 °C 11,4 °C 0,0 km/h (0 Bft)
12.10.2019 19:58 11,5 °C 83 % 1017,5 hPa 0,0 mm 1,8 km/h (1 Bft) S 182 ° 0 min 0,000 mm 0,0 UV-I 0 W/m² 8,7 °C 11,5 °C 8,0 km/h (2 Bft)
12.10.2019 19:59 11,6 °C 83 % 1017,6 hPa 0,0 mm 7,4 km/h (2 Bft) S 182 ° 0 min 0,000 mm 0,0 UV-I 0 W/m² 8,8 °C 11,6 °C 9,7 km/h (2 Bft)
12.10.2019 20:00 11,5 °C 83 % 1017,6 hPa 0,0 mm 5,2 km/h (1 Bft) S 180 ° 0 min 0,000 mm 0,0 UV-I 0 W/m² 8,7 °C 11,5 °C 8,0 km/h (2 Bft)
12.10.2019 20:01 11,4 °C 82 % 1017,5 hPa 0,0 mm 4,7 km/h (1 Bft) S 180 ° 0 min 0,026 mm 0,0 UV-I 0 W/m² 8,4 °C 11,4 °C 8,0 km/h (2 Bft)
12.10.2019 20:02 11,4 °C 83 % 1017,5 hPa 0,0 mm 3,9 km/h (1 Bft) S 180 ° 0 min 0,000 mm 0,0 UV-I 0 W/m² 8,6 °C 11,4 °C 6,4 km/h (2 Bft)
12.10.2019 20:03 11,3 °C 82 % 1017,5 hPa 0,0 mm 5,6 km/h (1 Bft) S 180 ° 0 min 0,000 mm 0,0 UV-I 0 W/m² 8,3 °C 11,3 °C 6,4 km/h (2 Bft)
12.10.2019 20:04 11,3 °C 82 % 1017,5 hPa 0,0 mm 5,7 km/h (1 Bft) S 180 ° 0 min 0,000 mm 0,0 UV-I 0 W/m² 8,3 °C 11,3 °C 6,4 km/h (2 Bft)
12.10.2019 20:05 11,1 °C 83 % 1017,6 hPa 0,0 mm 3,9 km/h (1 Bft) S 180 ° 0 min 0,000 mm 0,0 UV-I 0 W/m² 8,3 °C 11,1 °C 6,4 km/h (2 Bft)
12.10.2019 20:06 11,1 °C 83 % 1017,5 hPa 0,0 mm 0,0 km/h (0 Bft) S 180 ° 0 min 0,000 mm 0,0 UV-I 0 W/m² 8,3 °C 11,1 °C 0,0 km/h (0 Bft)
12.10.2019 20:07 11,1 °C 83 % 1017,6 hPa 0,0 mm 0,0 km/h (0 Bft) S 180 ° 0 min 0,000 mm 0,0 UV-I 0 W/m² 8,3 °C 11,1 °C 0,0 km/h (0 Bft)
12.10.2019 20:08 11,1 °C 83 % 1017,6 hPa 0,0 mm 0,0 km/h (0 Bft) S 180 ° 0 min 0,000 mm 0,0 UV-I 0 W/m² 8,3 °C 11,1 °C 0,0 km/h (0 Bft)
12.10.2019 20:09 11,2 °C 84 % 1017,5 hPa 0,0 mm 0,0 km/h (0 Bft) S 180 ° 0 min 0,000 mm 0,0 UV-I 0 W/m² 8,6 °C 11,2 °C 0,0 km/h (0 Bft)
12.10.2019 20:10 11,3 °C 83 % 1017,5 hPa 0,0 mm 0,0 km/h (0 Bft) S 180 ° 0 min 0,000 mm 0,0 UV-I 0 W/m² 8,5 °C 11,3 °C 0,0 km/h (0 Bft)
12.10.2019 20:11 11,4 °C 82 % 1017,5 hPa 0,0 mm 0,0 km/h (0 Bft) S 180 ° 0 min 0,000 mm 0,0 UV-I 0 W/m² 8,4 °C 11,4 °C 0,0 km/h (0 Bft)
12.10.2019 20:12 11,4 °C 83 % 1017,4 hPa 0,0 mm 0,0 km/h (0 Bft) S 180 ° 0 min 0,000 mm 0,0 UV-I 0 W/m² 8,6 °C 11,4 °C 0,0 km/h (0 Bft)
12.10.2019 20:13 11,4 °C 82 % 1017,5 hPa 0,0 mm 0,0 km/h (0 Bft) S 180 ° 0 min 0,000 mm 0,0 UV-I 0 W/m² 8,4 °C 11,4 °C 0,0 km/h (0 Bft)
12.10.2019 20:14 11,5 °C 83 % 1017,4 hPa 0,0 mm 0,0 km/h (0 Bft) S 180 ° 0 min 0,000 mm 0,0 UV-I 0 W/m² 8,7 °C 11,5 °C 0,0 km/h (0 Bft)
12.10.2019 20:15 11,5 °C 82 % 1017,4 hPa 0,0 mm 0,0 km/h (0 Bft) S 180 ° 0 min 0,000 mm 0,0 UV-I 0 W/m² 8,5 °C 11,5 °C 0,0 km/h (0 Bft)
12.10.2019 20:16 11,4 °C 82 % 1017,4 hPa 0,0 mm 0,0 km/h (0 Bft) S 180 ° 0 min 0,000 mm 0,0 UV-I 0 W/m² 8,4 °C 11,4 °C 0,0 km/h (0 Bft)
12.10.2019 20:17 11,4 °C 82 % 1017,4 hPa 0,0 mm 0,0 km/h (0 Bft) S 180 ° 0 min 0,000 mm 0,0 UV-I 0 W/m² 8,4 °C 11,4 °C 0,0 km/h (0 Bft)
12.10.2019 20:18 11,4 °C 82 % 1017,4 hPa 0,0 mm 0,0 km/h (0 Bft) S 180 ° 0 min 0,000 mm 0,0 UV-I 0 W/m² 8,4 °C 11,4 °C 0,0 km/h (0 Bft)
12.10.2019 20:19 11,4 °C 82 % 1017,4 hPa 0,0 mm 0,0 km/h (0 Bft) S 180 ° 0 min 0,000 mm 0,0 UV-I 0 W/m² 8,4 °C 11,4 °C 0,0 km/h (0 Bft)
12.10.2019 20:20 11,5 °C 83 % 1017,4 hPa 0,0 mm 0,0 km/h (0 Bft) S 180 ° 0 min 0,000 mm 0,0 UV-I 0 W/m² 8,7 °C 11,5 °C 0,0 km/h (0 Bft)
12.10.2019 20:21 11,6 °C 82 % 1017,4 hPa 0,0 mm 0,0 km/h (0 Bft) S 180 ° 0 min 0,000 mm 0,0 UV-I 0 W/m² 8,6 °C 11,6 °C 0,0 km/h (0 Bft)
12.10.2019 20:22 11,5 °C 82 % 1017,4 hPa 0,0 mm 0,0 km/h (0 Bft) S 180 ° 0 min 0,000 mm 0,0 UV-I 0 W/m² 8,5 °C 11,5 °C 0,0 km/h (0 Bft)
12.10.2019 20:23 11,4 °C 82 % 1017,3 hPa 0,0 mm 0,0 km/h (0 Bft) S 180 ° 0 min 0,000 mm 0,0 UV-I 0 W/m² 8,4 °C 11,4 °C 0,0 km/h (0 Bft)
12.10.2019 20:24 11,4 °C 82 % 1017,4 hPa 0,0 mm 0,0 km/h (0 Bft) S 180 ° 0 min 0,000 mm 0,0 UV-I 0 W/m² 8,4 °C 11,4 °C 0,0 km/h (0 Bft)
12.10.2019 20:25 11,4 °C 82 % 1017,3 hPa 0,0 mm 0,0 km/h (0 Bft) S 180 ° 0 min 0,000 mm 0,0 UV-I 0 W/m² 8,4 °C 11,4 °C 0,0 km/h (0 Bft)
12.10.2019 20:26 11,3 °C 83 % 1017,4 hPa 0,0 mm 0,0 km/h (0 Bft) S 180 ° 0 min 0,000 mm 0,0 UV-I 0 W/m² 8,5 °C 11,3 °C 0,0 km/h (0 Bft)
12.10.2019 20:27 11,3 °C 82 % 1017,3 hPa 0,0 mm 0,0 km/h (0 Bft) S 180 ° 0 min 0,000 mm 0,0 UV-I 0 W/m² 8,3 °C 11,3 °C 0,0 km/h (0 Bft)
12.10.2019 20:28 11,3 °C 83 % 1017,3 hPa 0,0 mm 0,0 km/h (0 Bft) S 180 ° 0 min 0,000 mm 0,0 UV-I 0 W/m² 8,5 °C 11,3 °C 0,0 km/h (0 Bft)
12.10.2019 20:29 11,3 °C 82 % 1017,3 hPa 0,0 mm 0,0 km/h (0 Bft) S 180 ° 0 min 0,000 mm 0,0 UV-I 0 W/m² 8,3 °C 11,3 °C 0,0 km/h (0 Bft)
12.10.2019 20:30 11,3 °C 82 % 1017,3 hPa 0,0 mm 0,0 km/h (0 Bft) S 180 ° 0 min 0,000 mm 0,0 UV-I 0 W/m² 8,3 °C 11,3 °C 0,0 km/h (0 Bft)
12.10.2019 20:31 11,3 °C 82 % 1017,3 hPa 0,0 mm 0,0 km/h (0 Bft) S 180 ° 0 min 0,000 mm 0,0 UV-I 0 W/m² 8,3 °C 11,3 °C 0,0 km/h (0 Bft)
12.10.2019 20:32 11,2 °C 82 % 1017,3 hPa 0,0 mm 0,0 km/h (0 Bft) S 180 ° 0 min 0,000 mm 0,0 UV-I 0 W/m² 8,2 °C 11,2 °C 0,0 km/h (0 Bft)
12.10.2019 20:33 11,2 °C 82 % 1017,3 hPa 0,0 mm 0,0 km/h (0 Bft) S 180 ° 0 min 0,000 mm 0,0 UV-I 0 W/m² 8,2 °C 11,2 °C 0,0 km/h (0 Bft)
12.10.2019 20:34 11,2 °C 83 % 1017,3 hPa 0,0 mm 0,0 km/h (0 Bft) S 180 ° 0 min 0,000 mm 0,0 UV-I 0 W/m² 8,4 °C 11,2 °C 0,0 km/h (0 Bft)
12.10.2019 20:35 11,3 °C 83 % 1017,2 hPa 0,0 mm 0,0 km/h (0 Bft) S 180 ° 0 min 0,000 mm 0,0 UV-I 0 W/m² 8,5 °C 11,3 °C 0,0 km/h (0 Bft)
12.10.2019 20:36 11,2 °C 83 % 1017,2 hPa 0,0 mm 0,0 km/h (0 Bft) S 180 ° 0 min 0,000 mm 0,0 UV-I 0 W/m² 8,4 °C 11,2 °C 0,0 km/h (0 Bft)
12.10.2019 20:37 11,2 °C 83 % 1017,3 hPa 0,0 mm 0,0 km/h (0 Bft) S 180 ° 0 min 0,000 mm 0,0 UV-I 0 W/m² 8,4 °C 11,2 °C 0,0 km/h (0 Bft)
12.10.2019 20:38 11,1 °C 83 % 1017,3 hPa 0,0 mm 0,0 km/h (0 Bft) S 180 ° 0 min 0,000 mm 0,0 UV-I 0 W/m² 8,3 °C 11,1 °C 0,0 km/h (0 Bft)
12.10.2019 20:39 11,1 °C 83 % 1017,3 hPa 0,0 mm 0,0 km/h (0 Bft) S 180 ° 0 min 0,000 mm 0,0 UV-I 0 W/m² 8,3 °C 11,1 °C 0,0 km/h (0 Bft)
12.10.2019 20:40 11,1 °C 83 % 1017,3 hPa 0,0 mm 0,0 km/h (0 Bft) S 180 ° 0 min 0,000 mm 0,0 UV-I 0 W/m² 8,3 °C 11,1 °C 0,0 km/h (0 Bft)
12.10.2019 20:41 11,1 °C 84 % 1017,3 hPa 0,0 mm 0,0 km/h (0 Bft) S 180 ° 0 min 0,000 mm 0,0 UV-I 0 W/m² 8,5 °C 11,1 °C 0,0 km/h (0 Bft)
12.10.2019 20:42 11,2 °C 83 % 1017,3 hPa 0,0 mm 0,0 km/h (0 Bft) S 180 ° 0 min 0,000 mm 0,0 UV-I 0 W/m² 8,4 °C 11,2 °C 0,0 km/h (0 Bft)
12.10.2019 20:43 11,2 °C 84 % 1017,3 hPa 0,0 mm 0,0 km/h (0 Bft) S 180 ° 0 min 0,000 mm 0,0 UV-I 0 W/m² 8,6 °C 11,2 °C 0,0 km/h (0 Bft)
12.10.2019 20:44 11,2 °C 84 % 1017,3 hPa 0,0 mm 0,0 km/h (0 Bft) S 180 ° 0 min 0,000 mm 0,0 UV-I 0 W/m² 8,6 °C 11,2 °C 0,0 km/h (0 Bft)
12.10.2019 20:45 11,1 °C 84 % 1017,2 hPa 0,0 mm 0,0 km/h (0 Bft) S 180 ° 0 min 0,000 mm 0,0 UV-I 0 W/m² 8,5 °C 11,1 °C 0,0 km/h (0 Bft)
12.10.2019 20:46 11,1 °C 84 % 1017,2 hPa 0,0 mm 0,0 km/h (0 Bft) S 180 ° 0 min 0,000 mm 0,0 UV-I 0 W/m² 8,5 °C 11,1 °C 0,0 km/h (0 Bft)
12.10.2019 20:47 10,9 °C 84 % 1017,3 hPa 0,0 mm 0,0 km/h (0 Bft) S 180 ° 0 min 0,000 mm 0,0 UV-I 0 W/m² 8,3 °C 10,9 °C 0,0 km/h (0 Bft)
12.10.2019 20:48 10,9 °C 84 % 1017,3 hPa 0,0 mm 0,0 km/h (0 Bft) S 180 ° 0 min 0,000 mm 0,0 UV-I 0 W/m² 8,3 °C 10,9 °C 0,0 km/h (0 Bft)
12.10.2019 20:49 10,8 °C 84 % 1017,3 hPa 0,0 mm 0,0 km/h (0 Bft) S 180 ° 0 min 0,000 mm 0,0 UV-I 0 W/m² 8,2 °C 10,8 °C 0,0 km/h (0 Bft)
12.10.2019 20:50 10,8 °C 84 % 1017,3 hPa 0,0 mm 0,0 km/h (0 Bft) S 180 ° 0 min 0,000 mm 0,0 UV-I 0 W/m² 8,2 °C 10,8 °C 0,0 km/h (0 Bft)
12.10.2019 20:51 10,7 °C 84 % 1017,3 hPa 0,0 mm 0,0 km/h (0 Bft) S 180 ° 0 min 0,000 mm 0,0 UV-I 0 W/m² 8,1 °C 10,7 °C 0,0 km/h (0 Bft)
12.10.2019 20:52 10,6 °C 84 % 1017,3 hPa 0,0 mm 0,0 km/h (0 Bft) S 180 ° 0 min 0,000 mm 0,0 UV-I 0 W/m² 8,0 °C 10,6 °C 0,0 km/h (0 Bft)
12.10.2019 20:53 10,4 °C 84 % 1017,3 hPa 0,0 mm 0,0 km/h (0 Bft) S 180 ° 0 min 0,000 mm 0,0 UV-I 0 W/m² 7,8 °C 10,4 °C 0,0 km/h (0 Bft)
12.10.2019 20:54 10,3 °C 84 % 1017,3 hPa 0,0 mm 0,0 km/h (0 Bft) S 180 ° 0 min 0,000 mm 0,0 UV-I 0 W/m² 7,7 °C 10,3 °C 0,0 km/h (0 Bft)
12.10.2019 20:55 10,3 °C 85 % 1017,3 hPa 0,0 mm 0,0 km/h (0 Bft) S 180 ° 0 min 0,000 mm 0,0 UV-I 0 W/m² 7,9 °C 10,3 °C 0,0 km/h (0 Bft)
12.10.2019 20:56 10,3 °C 85 % 1017,4 hPa 0,0 mm 0,0 km/h (0 Bft) S 180 ° 0 min 0,000 mm 0,0 UV-I 0 W/m² 7,9 °C 10,3 °C 0,0 km/h (0 Bft)
12.10.2019 20:57 10,2 °C 85 % 1017,3 hPa 0,0 mm 0,0 km/h (0 Bft) S 180 ° 0 min 0,000 mm 0,0 UV-I 0 W/m² 7,8 °C 10,2 °C 0,0 km/h (0 Bft)
12.10.2019 20:58 10,2 °C 85 % 1017,3 hPa 0,0 mm 0,0 km/h (0 Bft) S 180 ° 0 min 0,000 mm 0,0 UV-I 0 W/m² 7,8 °C 10,2 °C 0,0 km/h (0 Bft)
12.10.2019 20:59 10,1 °C 86 % 1017,3 hPa 0,0 mm 0,0 km/h (0 Bft) S 180 ° 0 min 0,000 mm 0,0 UV-I 0 W/m² 7,9 °C 10,1 °C 0,0 km/h (0 Bft)
12.10.2019 21:00 10,1 °C 86 % 1017,4 hPa 0,0 mm 0,0 km/h (0 Bft) S 180 ° 0 min 0,000 mm 0,0 UV-I 0 W/m² 7,9 °C 10,1 °C 0,0 km/h (0 Bft)
12.10.2019 21:01 10,1 °C 86 % 1017,3 hPa 0,0 mm 0,0 km/h (0 Bft) S 180 ° 0 min 0,000 mm 0,0 UV-I 0 W/m² 7,9 °C 10,1 °C 0,0 km/h (0 Bft)
12.10.2019 21:02 10,1 °C 86 % 1017,4 hPa 0,0 mm 0,0 km/h (0 Bft) S 180 ° 0 min 0,000 mm 0,0 UV-I 0 W/m² 7,9 °C 10,1 °C 0,0 km/h (0 Bft)
12.10.2019 21:03 10,1 °C 86 % 1017,4 hPa 0,0 mm 0,0 km/h (0 Bft) S 180 ° 0 min 0,000 mm 0,0 UV-I 0 W/m² 7,9 °C 10,1 °C 0,0 km/h (0 Bft)
12.10.2019 21:04 10,1 °C 86 % 1017,4 hPa 0,0 mm 0,0 km/h (0 Bft) S 180 ° 0 min 0,000 mm 0,0 UV-I 0 W/m² 7,9 °C 10,1 °C 0,0 km/h (0 Bft)
12.10.2019 21:05 10,1 °C 86 % 1017,4 hPa 0,0 mm 0,0 km/h (0 Bft) S 180 ° 0 min 0,000 mm 0,0 UV-I 0 W/m² 7,9 °C 10,1 °C 0,0 km/h (0 Bft)
12.10.2019 21:06 10,1 °C 86 % 1017,4 hPa 0,0 mm 0,0 km/h (0 Bft) S 180 ° 0 min 0,000 mm 0,0 UV-I 0 W/m² 7,9 °C 10,1 °C 0,0 km/h (0 Bft)
12.10.2019 21:07 10,1 °C 86 % 1017,4 hPa 0,0 mm 0,0 km/h (0 Bft) S 180 ° 0 min 0,000 mm 0,0 UV-I 0 W/m² 7,9 °C 10,1 °C 0,0 km/h (0 Bft)
12.10.2019 21:08 10,0 °C 86 % 1017,4 hPa 0,0 mm 0,0 km/h (0 Bft) S 180 ° 0 min 0,000 mm 0,0 UV-I 0 W/m² 7,8 °C 10,0 °C 0,0 km/h (0 Bft)
12.10.2019 21:09 9,9 °C 86 % 1017,4 hPa 0,0 mm 0,0 km/h (0 Bft) S 180 ° 0 min 0,000 mm 0,0 UV-I 0 W/m² 7,7 °C 9,9 °C 0,0 km/h (0 Bft)
12.10.2019 21:10 9,9 °C 87 % 1017,4 hPa 0,0 mm 0,0 km/h (0 Bft) S 180 ° 0 min 0,000 mm 0,0 UV-I 0 W/m² 7,8 °C 9,9 °C 0,0 km/h (0 Bft)
12.10.2019 21:11 9,9 °C 87 % 1017,4 hPa 0,0 mm 0,0 km/h (0 Bft) S 180 ° 0 min 0,000 mm 0,0 UV-I 0 W/m² 7,8 °C 9,9 °C 0,0 km/h (0 Bft)
12.10.2019 21:12 9,9 °C 87 % 1017,4 hPa 0,0 mm 0,0 km/h (0 Bft) S 180 ° 0 min 0,000 mm 0,0 UV-I 0 W/m² 7,8 °C 9,9 °C 0,0 km/h (0 Bft)
12.10.2019 21:13 9,9 °C 87 % 1017,4 hPa 0,0 mm 0,0 km/h (0 Bft) S 180 ° 0 min 0,000 mm 0,0 UV-I 0 W/m² 7,8 °C 9,9 °C 0,0 km/h (0 Bft)
12.10.2019 21:14 9,9 °C 87 % 1017,4 hPa 0,0 mm 0,0 km/h (0 Bft) S 180 ° 0 min 0,000 mm 0,0 UV-I 0 W/m² 7,8 °C 9,9 °C 0,0 km/h (0 Bft)
12.10.2019 21:15 9,9 °C 87 % 1017,4 hPa 0,0 mm 0,0 km/h (0 Bft) S 180 ° 0 min 0,000 mm 0,0 UV-I 0 W/m² 7,8 °C 9,9 °C 0,0 km/h (0 Bft)
12.10.2019 21:16 9,9 °C 87 % 1017,4 hPa 0,0 mm 0,0 km/h (0 Bft) S 180 ° 0 min 0,000 mm 0,0 UV-I 0 W/m² 7,8 °C 9,9 °C 0,0 km/h (0 Bft)
12.10.2019 21:17 10,0 °C 86 % 1017,4 hPa 0,0 mm 0,0 km/h (0 Bft) S 180 ° 0 min 0,000 mm 0,0 UV-I 0 W/m² 7,8 °C 10,0 °C 0,0 km/h (0 Bft)
12.10.2019 21:18 10,1 °C 85 % 1017,4 hPa 0,0 mm 0,0 km/h (0 Bft) S 180 ° 0 min 0,000 mm 0,0 UV-I 0 W/m² 7,7 °C 10,1 °C 0,0 km/h (0 Bft)
12.10.2019 21:19 10,0 °C 85 % 1017,5 hPa 0,0 mm 0,0 km/h (0 Bft) S 180 ° 0 min 0,000 mm 0,0 UV-I 0 W/m² 7,6 °C 10,0 °C 0,0 km/h (0 Bft)
12.10.2019 21:20 9,9 °C 85 % 1017,5 hPa 0,0 mm 0,0 km/h (0 Bft) S 180 ° 0 min 0,000 mm 0,0 UV-I 0 W/m² 7,5 °C 9,9 °C 0,0 km/h (0 Bft)
12.10.2019 21:21 9,8 °C 86 % 1017,5 hPa 0,0 mm 0,0 km/h (0 Bft) S 180 ° 0 min 0,000 mm 0,0 UV-I 0 W/m² 7,6 °C 9,8 °C 0,0 km/h (0 Bft)
12.10.2019 21:22 9,8 °C 86 % 1017,5 hPa 0,0 mm 0,0 km/h (0 Bft) S 180 ° 0 min 0,000 mm 0,0 UV-I 0 W/m² 7,6 °C 9,8 °C 0,0 km/h (0 Bft)
12.10.2019 21:23 9,9 °C 87 % 1017,5 hPa 0,0 mm 0,0 km/h (0 Bft) S 180 ° 0 min 0,000 mm 0,0 UV-I 0 W/m² 7,8 °C 9,9 °C 0,0 km/h (0 Bft)
12.10.2019 21:24 9,9 °C 87 % 1017,4 hPa 0,0 mm 0,0 km/h (0 Bft) S 180 ° 0 min 0,000 mm 0,0 UV-I 0 W/m² 7,8 °C 9,9 °C 0,0 km/h (0 Bft)
12.10.2019 21:25 9,9 °C 87 % 1017,3 hPa 0,0 mm 0,0 km/h (0 Bft) S 180 ° 0 min 0,000 mm 0,0 UV-I 0 W/m² 7,8 °C 9,9 °C 0,0 km/h (0 Bft)
12.10.2019 21:26 10,0 °C 87 % 1017,3 hPa 0,0 mm 0,0 km/h (0 Bft) S 180 ° 0 min 0,000 mm 0,0 UV-I 0 W/m² 7,9 °C 10,0 °C 0,0 km/h (0 Bft)
12.10.2019 21:27 10,0 °C 86 % 1017,3 hPa 0,0 mm 0,0 km/h (0 Bft) S 180 ° 0 min 0,000 mm 0,0 UV-I 0 W/m² 7,8 °C 10,0 °C 0,0 km/h (0 Bft)
12.10.2019 21:28 10,1 °C 86 % 1017,3 hPa 0,0 mm 0,0 km/h (0 Bft) S 180 ° 0 min 0,000 mm 0,0 UV-I 0 W/m² 7,9 °C 10,1 °C 0,0 km/h (0 Bft)
12.10.2019 21:29 10,2 °C 86 % 1017,3 hPa 0,0 mm 0,0 km/h (0 Bft) S 180 ° 0 min 0,000 mm 0,0 UV-I 0 W/m² 8,0 °C 10,2 °C 0,0 km/h (0 Bft)
12.10.2019 21:30 10,3 °C 85 % 1017,3 hPa 0,0 mm 0,0 km/h (0 Bft) S 180 ° 0 min 0,000 mm 0,0 UV-I 0 W/m² 7,9 °C 10,3 °C 0,0 km/h (0 Bft)
12.10.2019 21:31 10,3 °C 85 % 1017,3 hPa 0,0 mm 0,0 km/h (0 Bft) S 180 ° 0 min 0,000 mm 0,0 UV-I 0 W/m² 7,9 °C 10,3 °C 0,0 km/h (0 Bft)
12.10.2019 21:32 10,3 °C 85 % 1017,4 hPa 0,0 mm 0,0 km/h (0 Bft) S 180 ° 0 min 0,000 mm 0,0 UV-I 0 W/m² 7,9 °C 10,3 °C 0,0 km/h (0 Bft)
12.10.2019 21:33 10,2 °C 84 % 1017,4 hPa 0,0 mm 0,0 km/h (0 Bft) S 180 ° 0 min 0,000 mm 0,0 UV-I 0 W/m² 7,6 °C 10,2 °C 0,0 km/h (0 Bft)
12.10.2019 21:34 10,1 °C 84 % 1017,5 hPa 0,0 mm 0,0 km/h (0 Bft) S 180 ° 0 min 0,000 mm 0,0 UV-I 0 W/m² 7,5 °C 10,1 °C 0,0 km/h (0 Bft)
12.10.2019 21:35 10,1 °C 84 % 1017,5 hPa 0,0 mm 0,0 km/h (0 Bft) S 180 ° 0 min 0,000 mm 0,0 UV-I 0 W/m² 7,5 °C 10,1 °C 0,0 km/h (0 Bft)
12.10.2019 21:36 10,1 °C 85 % 1017,5 hPa 0,0 mm 0,0 km/h (0 Bft) S 180 ° 0 min 0,000 mm 0,0 UV-I 0 W/m² 7,7 °C 10,1 °C 0,0 km/h (0 Bft)
12.10.2019 21:37 10,1 °C 86 % 1017,5 hPa 0,0 mm 0,0 km/h (0 Bft) S 180 ° 0 min 0,000 mm 0,0 UV-I 0 W/m² 7,9 °C 10,1 °C 0,0 km/h (0 Bft)
12.10.2019 21:38 10,1 °C 86 % 1017,6 hPa 0,0 mm 0,0 km/h (0 Bft) S 180 ° 0 min 0,000 mm 0,0 UV-I 0 W/m² 7,9 °C 10,1 °C 0,0 km/h (0 Bft)
12.10.2019 21:39 10,2 °C 85 % 1017,6 hPa 0,0 mm 0,0 km/h (0 Bft) S 180 ° 0 min 0,000 mm 0,0 UV-I 0 W/m² 7,8 °C 10,2 °C 0,0 km/h (0 Bft)
12.10.2019 21:40 10,3 °C 85 % 1017,6 hPa 0,0 mm 0,0 km/h (0 Bft) S 180 ° 0 min 0,000 mm 0,0 UV-I 0 W/m² 7,9 °C 10,3 °C 0,0 km/h (0 Bft)
12.10.2019 21:41 10,3 °C 85 % 1017,6 hPa 0,0 mm 0,0 km/h (0 Bft) S 180 ° 0 min 0,000 mm 0,0 UV-I 0 W/m² 7,9 °C 10,3 °C 0,0 km/h (0 Bft)
12.10.2019 21:42 10,3 °C 85 % 1017,5 hPa 0,0 mm 0,0 km/h (0 Bft) S 180 ° 0 min 0,000 mm 0,0 UV-I 0 W/m² 7,9 °C 10,3 °C 0,0 km/h (0 Bft)
12.10.2019 21:43 10,3 °C 85 % 1017,5 hPa 0,0 mm 0,0 km/h (0 Bft) S 180 ° 0 min 0,000 mm 0,0 UV-I 0 W/m² 7,9 °C 10,3 °C 0,0 km/h (0 Bft)
12.10.2019 21:44 10,3 °C 85 % 1017,6 hPa 0,0 mm 0,0 km/h (0 Bft) S 180 ° 0 min 0,000 mm 0,0 UV-I 0 W/m² 7,9 °C 10,3 °C 0,0 km/h (0 Bft)
12.10.2019 21:45 10,3 °C 85 % 1017,6 hPa 0,0 mm 0,0 km/h (0 Bft) S 180 ° 0 min 0,000 mm 0,0 UV-I 0 W/m² 7,9 °C 10,3 °C 0,0 km/h (0 Bft)
12.10.2019 21:46 10,2 °C 85 % 1017,6 hPa 0,0 mm 0,0 km/h (0 Bft) S 180 ° 0 min 0,000 mm 0,0 UV-I 0 W/m² 7,8 °C 10,2 °C 0,0 km/h (0 Bft)
12.10.2019 21:47 10,1 °C 84 % 1017,5 hPa 0,0 mm 0,0 km/h (0 Bft) S 180 ° 0 min 0,000 mm 0,0 UV-I 0 W/m² 7,5 °C 10,1 °C 0,0 km/h (0 Bft)
12.10.2019 21:48 10,1 °C 85 % 1017,5 hPa 0,0 mm 0,0 km/h (0 Bft) S 180 ° 0 min 0,000 mm 0,0 UV-I 0 W/m² 7,7 °C 10,1 °C 0,0 km/h (0 Bft)
12.10.2019 21:49 10,1 °C 85 % 1017,5 hPa 0,0 mm 0,0 km/h (0 Bft) S 180 ° 0 min 0,000 mm 0,0 UV-I 0 W/m² 7,7 °C 10,1 °C 0,0 km/h (0 Bft)
12.10.2019 21:50 10,0 °C 85 % 1017,5 hPa 0,0 mm 0,0 km/h (0 Bft) S 180 ° 0 min 0,000 mm 0,0 UV-I 0 W/m² 7,6 °C 10,0 °C 0,0 km/h (0 Bft)
12.10.2019 21:51 10,0 °C 85 % 1017,4 hPa 0,0 mm 0,0 km/h (0 Bft) S 180 ° 0 min 0,000 mm 0,0 UV-I 0 W/m² 7,6 °C 10,0 °C 0,0 km/h (0 Bft)
12.10.2019 21:52 9,9 °C 85 % 1017,4 hPa 0,0 mm 0,0 km/h (0 Bft) S 180 ° 0 min 0,000 mm 0,0 UV-I 0 W/m² 7,5 °C 9,9 °C 0,0 km/h (0 Bft)
12.10.2019 21:53 9,9 °C 86 % 1017,4 hPa 0,0 mm 0,0 km/h (0 Bft) S 180 ° 0 min 0,000 mm 0,0 UV-I 0 W/m² 7,7 °C 9,9 °C 0,0 km/h (0 Bft)
12.10.2019 21:54 9,9 °C 85 % 1017,4 hPa 0,0 mm 0,0 km/h (0 Bft) S 180 ° 0 min 0,000 mm 0,0 UV-I 0 W/m² 7,5 °C 9,9 °C 0,0 km/h (0 Bft)
12.10.2019 21:55 9,8 °C 85 % 1017,4 hPa 0,0 mm 0,0 km/h (0 Bft) S 180 ° 0 min 0,000 mm 0,0 UV-I 0 W/m² 7,4 °C 9,8 °C 0,0 km/h (0 Bft)
12.10.2019 21:56 9,8 °C 86 % 1017,5 hPa 0,0 mm 0,0 km/h (0 Bft) S 180 ° 0 min 0,000 mm 0,0 UV-I 0 W/m² 7,6 °C 9,8 °C 0,0 km/h (0 Bft)
12.10.2019 21:57 9,7 °C 86 % 1017,4 hPa 0,0 mm 0,0 km/h (0 Bft) S 180 ° 0 min 0,000 mm 0,0 UV-I 0 W/m² 7,5 °C 9,7 °C 0,0 km/h (0 Bft)
12.10.2019 21:58 9,7 °C 86 % 1017,5 hPa 0,0 mm 0,0 km/h (0 Bft) S 180 ° 0 min 0,000 mm 0,0 UV-I 0 W/m² 7,5 °C 9,7 °C 0,0 km/h (0 Bft)
12.10.2019 21:59 9,6 °C 86 % 1017,5 hPa 0,0 mm 0,0 km/h (0 Bft) S 180 ° 0 min 0,000 mm 0,0 UV-I 0 W/m² 7,4 °C 9,6 °C 0,0 km/h (0 Bft)
12.10.2019 22:00 9,5 °C 86 % 1017,5 hPa 0,0 mm 0,0 km/h (0 Bft) S 180 ° 0 min 0,000 mm 0,0 UV-I 0 W/m² 7,3 °C 9,5 °C 0,0 km/h (0 Bft)
12.10.2019 22:01 9,4 °C 87 % 1017,5 hPa 0,0 mm 0,0 km/h (0 Bft) S 180 ° 0 min 0,000 mm 0,0 UV-I 0 W/m² 7,3 °C 9,4 °C 0,0 km/h (0 Bft)
12.10.2019 22:02 9,4 °C 87 % 1017,5 hPa 0,0 mm 0,0 km/h (0 Bft) S 180 ° 0 min 0,000 mm 0,0 UV-I 0 W/m² 7,3 °C 9,4 °C 0,0 km/h (0 Bft)
12.10.2019 22:03 9,3 °C 87 % 1017,5 hPa 0,0 mm 0,0 km/h (0 Bft) S 180 ° 0 min 0,000 mm 0,0 UV-I 0 W/m² 7,2 °C 9,3 °C 0,0 km/h (0 Bft)
12.10.2019 22:04 9,3 °C 87 % 1017,5 hPa 0,0 mm 0,0 km/h (0 Bft) S 180 ° 0 min 0,000 mm 0,0 UV-I 0 W/m² 7,2 °C 9,3 °C 0,0 km/h (0 Bft)
12.10.2019 22:05 9,3 °C 88 % 1017,6 hPa 0,0 mm 0,0 km/h (0 Bft) S 180 ° 0 min 0,000 mm 0,0 UV-I 0 W/m² 7,4 °C 9,3 °C 0,0 km/h (0 Bft)
12.10.2019 22:06 9,3 °C 88 % 1017,6 hPa 0,0 mm 0,0 km/h (0 Bft) S 180 ° 0 min 0,000 mm 0,0 UV-I 0 W/m² 7,4 °C 9,3 °C 0,0 km/h (0 Bft)
12.10.2019 22:07 9,3 °C 88 % 1017,6 hPa 0,0 mm 0,0 km/h (0 Bft) S 180 ° 0 min 0,000 mm 0,0 UV-I 0 W/m² 7,4 °C 9,3 °C 0,0 km/h (0 Bft)
12.10.2019 22:08 9,3 °C 88 % 1017,6 hPa 0,0 mm 0,0 km/h (0 Bft) S 180 ° 0 min 0,000 mm 0,0 UV-I 0 W/m² 7,4 °C 9,3 °C 0,0 km/h (0 Bft)
12.10.2019 22:09 9,3 °C 88 % 1017,6 hPa 0,0 mm 0,0 km/h (0 Bft) S 180 ° 0 min 0,000 mm 0,0 UV-I 0 W/m² 7,4 °C 9,3 °C 0,0 km/h (0 Bft)
12.10.2019 22:10 9,3 °C 88 % 1017,7 hPa 0,0 mm 0,0 km/h (0 Bft) S 180 ° 0 min 0,000 mm 0,0 UV-I 0 W/m² 7,4 °C 9,3 °C 0,0 km/h (0 Bft)
12.10.2019 22:11 9,4 °C 88 % 1017,6 hPa 0,0 mm 0,0 km/h (0 Bft) S 180 ° 0 min 0,000 mm 0,0 UV-I 0 W/m² 7,5 °C 9,4 °C 0,0 km/h (0 Bft)
12.10.2019 22:12 9,4 °C 88 % 1017,6 hPa 0,0 mm 0,0 km/h (0 Bft) S 180 ° 0 min 0,000 mm 0,0 UV-I 0 W/m² 7,5 °C 9,4 °C 0,0 km/h (0 Bft)
12.10.2019 22:13 9,5 °C 88 % 1017,6 hPa 0,0 mm 0,0 km/h (0 Bft) S 180 ° 0 min 0,000 mm 0,0 UV-I 0 W/m² 7,6 °C 9,5 °C 0,0 km/h (0 Bft)
12.10.2019 22:14 9,6 °C 87 % 1017,6 hPa 0,0 mm 0,0 km/h (0 Bft) S 180 ° 0 min 0,000 mm 0,0 UV-I 0 W/m² 7,5 °C 9,6 °C 0,0 km/h (0 Bft)
12.10.2019 22:15 9,6 °C 87 % 1017,6 hPa 0,0 mm 0,0 km/h (0 Bft) S 180 ° 0 min 0,000 mm 0,0 UV-I 0 W/m² 7,5 °C 9,6 °C 0,0 km/h (0 Bft)
12.10.2019 22:16 9,6 °C 87 % 1017,6 hPa 0,0 mm 0,0 km/h (0 Bft) S 180 ° 0 min 0,000 mm 0,0 UV-I 0 W/m² 7,5 °C 9,6 °C 0,0 km/h (0 Bft)
12.10.2019 22:17 9,7 °C 87 % 1017,6 hPa 0,0 mm 0,0 km/h (0 Bft) S 180 ° 0 min 0,000 mm 0,0 UV-I 0 W/m² 7,6 °C 9,7 °C 0,0 km/h (0 Bft)
12.10.2019 22:18 9,7 °C 87 % 1017,6 hPa 0,0 mm 0,0 km/h (0 Bft) S 180 ° 0 min 0,000 mm 0,0 UV-I 0 W/m² 7,6 °C 9,7 °C 0,0 km/h (0 Bft)
12.10.2019 22:19 9,7 °C 87 % 1017,6 hPa 0,0 mm 0,0 km/h (0 Bft) S 180 ° 0 min 0,000 mm 0,0 UV-I 0 W/m² 7,6 °C 9,7 °C 0,0 km/h (0 Bft)
12.10.2019 22:20 9,8 °C 86 % 1017,6 hPa 0,2 mm 0,0 km/h (0 Bft) S 180 ° 0 min 0,000 mm 0,0 UV-I 0 W/m² 7,6 °C 9,8 °C 0,0 km/h (0 Bft)
12.10.2019 22:21 9,8 °C 86 % 1017,6 hPa 0,0 mm 0,0 km/h (0 Bft) S 180 ° 0 min 0,000 mm 0,0 UV-I 0 W/m² 7,6 °C 9,8 °C 0,0 km/h (0 Bft)
12.10.2019 22:22 9,7 °C 86 % 1017,7 hPa 0,0 mm 0,0 km/h (0 Bft) S 180 ° 0 min 0,000 mm 0,0 UV-I 0 W/m² 7,5 °C 9,7 °C 0,0 km/h (0 Bft)
12.10.2019 22:23 9,7 °C 86 % 1017,7 hPa 0,0 mm 0,0 km/h (0 Bft) S 180 ° 0 min 0,000 mm 0,0 UV-I 0 W/m² 7,5 °C 9,7 °C 0,0 km/h (0 Bft)
12.10.2019 22:24 9,6 °C 86 % 1017,7 hPa 0,0 mm 0,0 km/h (0 Bft) S 180 ° 0 min 0,000 mm 0,0 UV-I 0 W/m² 7,4 °C 9,6 °C 0,0 km/h (0 Bft)
12.10.2019 22:25 9,6 °C 86 % 1017,7 hPa 0,0 mm 0,0 km/h (0 Bft) S 180 ° 0 min 0,000 mm 0,0 UV-I 0 W/m² 7,4 °C 9,6 °C 0,0 km/h (0 Bft)
12.10.2019 22:26 9,6 °C 87 % 1017,8 hPa 0,0 mm 0,0 km/h (0 Bft) S 180 ° 0 min 0,000 mm 0,0 UV-I 0 W/m² 7,5 °C 9,6 °C 0,0 km/h (0 Bft)
12.10.2019 22:27 9,6 °C 87 % 1017,8 hPa 0,0 mm 0,0 km/h (0 Bft) S 180 ° 0 min 0,000 mm 0,0 UV-I 0 W/m² 7,5 °C 9,6 °C 0,0 km/h (0 Bft)
12.10.2019 22:28 9,5 °C 87 % 1017,7 hPa 0,0 mm 0,0 km/h (0 Bft) S 180 ° 0 min 0,000 mm 0,0 UV-I 0 W/m² 7,4 °C 9,5 °C 0,0 km/h (0 Bft)
12.10.2019 22:29 9,5 °C 87 % 1017,7 hPa 0,0 mm 0,0 km/h (0 Bft) S 180 ° 0 min 0,000 mm 0,0 UV-I 0 W/m² 7,4 °C 9,5 °C 0,0 km/h (0 Bft)
12.10.2019 22:30 9,5 °C 87 % 1017,7 hPa 0,0 mm 0,0 km/h (0 Bft) S 180 ° 0 min 0,000 mm 0,0 UV-I 0 W/m² 7,4 °C 9,5 °C 0,0 km/h (0 Bft)
12.10.2019 22:31 9,6 °C 87 % 1017,8 hPa 0,0 mm 0,0 km/h (0 Bft) S 180 ° 0 min 0,000 mm 0,0 UV-I 0 W/m² 7,5 °C 9,6 °C 0,0 km/h (0 Bft)
12.10.2019 22:32 9,6 °C 87 % 1017,8 hPa 0,0 mm 0,0 km/h (0 Bft) S 180 ° 0 min 0,000 mm 0,0 UV-I 0 W/m² 7,5 °C 9,6 °C 0,0 km/h (0 Bft)
12.10.2019 22:33 9,6 °C 87 % 1017,8 hPa 0,0 mm 0,0 km/h (0 Bft) S 180 ° 0 min 0,000 mm 0,0 UV-I 0 W/m² 7,5 °C 9,6 °C 0,0 km/h (0 Bft)
12.10.2019 22:34 9,6 °C 87 % 1017,8 hPa 0,0 mm 0,0 km/h (0 Bft) S 180 ° 0 min 0,000 mm 0,0 UV-I 0 W/m² 7,5 °C 9,6 °C 0,0 km/h (0 Bft)
12.10.2019 22:35 9,6 °C 86 % 1017,8 hPa 0,0 mm 0,0 km/h (0 Bft) S 180 ° 0 min 0,000 mm 0,0 UV-I 0 W/m² 7,4 °C 9,6 °C 0,0 km/h (0 Bft)
12.10.2019 22:36 9,6 °C 86 % 1017,8 hPa 0,0 mm 0,0 km/h (0 Bft) S 180 ° 0 min 0,000 mm 0,0 UV-I 0 W/m² 7,4 °C 9,6 °C 0,0 km/h (0 Bft)
12.10.2019 22:37 9,6 °C 86 % 1017,8 hPa 0,0 mm 0,0 km/h (0 Bft) S 180 ° 0 min 0,000 mm 0,0 UV-I 0 W/m² 7,4 °C 9,6 °C 0,0 km/h (0 Bft)
12.10.2019 22:38 9,6 °C 86 % 1017,7 hPa 0,0 mm 0,0 km/h (0 Bft) S 180 ° 0 min 0,000 mm 0,0 UV-I 0 W/m² 7,4 °C 9,6 °C 0,0 km/h (0 Bft)
12.10.2019 22:39 9,6 °C 86 % 1017,6 hPa 0,0 mm 0,0 km/h (0 Bft) S 180 ° 0 min 0,000 mm 0,0 UV-I 0 W/m² 7,4 °C 9,6 °C 0,0 km/h (0 Bft)
12.10.2019 22:40 9,7 °C 86 % 1017,7 hPa 0,0 mm 0,0 km/h (0 Bft) S 180 ° 0 min 0,000 mm 0,0 UV-I 0 W/m² 7,5 °C 9,7 °C 0,0 km/h (0 Bft)
12.10.2019 22:41 9,7 °C 86 % 1017,7 hPa 0,0 mm 0,0 km/h (0 Bft) S 180 ° 0 min 0,000 mm 0,0 UV-I 0 W/m² 7,5 °C 9,7 °C 0,0 km/h (0 Bft)
12.10.2019 22:42 9,7 °C 86 % 1017,6 hPa 0,0 mm 0,0 km/h (0 Bft) S 180 ° 0 min 0,000 mm 0,0 UV-I 0 W/m² 7,5 °C 9,7 °C 0,0 km/h (0 Bft)
12.10.2019 22:43 9,7 °C 86 % 1017,6 hPa 0,0 mm 0,0 km/h (0 Bft) S 180 ° 0 min 0,000 mm 0,0 UV-I 0 W/m² 7,5 °C 9,7 °C 0,0 km/h (0 Bft)
12.10.2019 22:44 9,8 °C 86 % 1017,7 hPa 0,0 mm 0,0 km/h (0 Bft) S 180 ° 0 min 0,000 mm 0,0 UV-I 0 W/m² 7,6 °C 9,8 °C 0,0 km/h (0 Bft)
12.10.2019 22:45 9,8 °C 86 % 1017,7 hPa 0,0 mm 0,0 km/h (0 Bft) S 180 ° 0 min 0,000 mm 0,0 UV-I 0 W/m² 7,6 °C 9,8 °C 0,0 km/h (0 Bft)
12.10.2019 22:46 9,7 °C 87 % 1017,7 hPa 0,0 mm 0,0 km/h (0 Bft) S 180 ° 0 min 0,000 mm 0,0 UV-I 0 W/m² 7,6 °C 9,7 °C 0,0 km/h (0 Bft)
12.10.2019 22:47 9,8 °C 87 % 1017,7 hPa 0,0 mm 0,0 km/h (0 Bft) S 180 ° 0 min 0,000 mm 0,0 UV-I 0 W/m² 7,7 °C 9,8 °C 0,0 km/h (0 Bft)
12.10.2019 22:48 9,8 °C 87 % 1017,6 hPa 0,0 mm 0,0 km/h (0 Bft) S 180 ° 0 min 0,000 mm 0,0 UV-I 0 W/m² 7,7 °C 9,8 °C 0,0 km/h (0 Bft)
12.10.2019 22:49 9,8 °C 87 % 1017,6 hPa 0,0 mm 0,0 km/h (0 Bft) S 180 ° 0 min 0,000 mm 0,0 UV-I 0 W/m² 7,7 °C 9,8 °C 0,0 km/h (0 Bft)
12.10.2019 22:50 9,8 °C 87 % 1017,6 hPa 0,0 mm 0,0 km/h (0 Bft) S 180 ° 0 min 0,000 mm 0,0 UV-I 0 W/m² 7,7 °C 9,8 °C 0,0 km/h (0 Bft)
12.10.2019 22:51 9,8 °C 87 % 1017,6 hPa 0,0 mm 0,0 km/h (0 Bft) S 180 ° 0 min 0,000 mm 0,0 UV-I 0 W/m² 7,7 °C 9,8 °C 0,0 km/h (0 Bft)
12.10.2019 22:52 9,8 °C 87 % 1017,6 hPa 0,0 mm 0,0 km/h (0 Bft) S 180 ° 0 min 0,000 mm 0,0 UV-I 0 W/m² 7,7 °C 9,8 °C 0,0 km/h (0 Bft)
12.10.2019 22:53 9,9 °C 87 % 1017,6 hPa 0,0 mm 2,2 km/h (1 Bft) SW 219 ° 0 min 0,000 mm 0,0 UV-I 0 W/m² 7,8 °C 9,9 °C 4,8 km/h (1 Bft)
12.10.2019 22:54 9,9 °C 87 % 1017,7 hPa 0,0 mm 0,7 km/h (0 Bft) SW 219 ° 0 min 0,000 mm 0,0 UV-I 0 W/m² 7,8 °C 9,9 °C 3,2 km/h (1 Bft)
12.10.2019 22:55 10,0 °C 87 % 1017,7 hPa 0,0 mm 0,0 km/h (0 Bft) SW 220 ° 0 min 0,000 mm 0,0 UV-I 0 W/m² 7,9 °C 10,0 °C 0,0 km/h (0 Bft)
12.10.2019 22:56 10,1 °C 87 % 1017,7 hPa 0,0 mm 0,9 km/h (0 Bft) SW 219 ° 0 min 0,000 mm 0,0 UV-I 0 W/m² 8,0 °C 10,1 °C 3,2 km/h (1 Bft)
12.10.2019 22:57 10,2 °C 86 % 1017,7 hPa 0,0 mm 1,4 km/h (1 Bft) SW 220 ° 0 min 0,000 mm 0,0 UV-I 0 W/m² 8,0 °C 10,2 °C 3,2 km/h (1 Bft)
12.10.2019 22:58 10,3 °C 85 % 1017,7 hPa 0,0 mm 0,0 km/h (0 Bft) SW 220 ° 0 min 0,000 mm 0,0 UV-I 0 W/m² 7,9 °C 10,3 °C 0,0 km/h (0 Bft)
12.10.2019 22:59 10,4 °C 85 % 1017,7 hPa 0,0 mm 0,0 km/h (0 Bft) SW 219 ° 0 min 0,000 mm 0,0 UV-I 0 W/m² 8,0 °C 10,4 °C 0,0 km/h (0 Bft)
12.10.2019 23:00 10,6 °C 84 % 1017,7 hPa 0,0 mm 0,0 km/h (0 Bft) SW 219 ° 0 min 0,000 mm 0,0 UV-I 0 W/m² 8,0 °C 10,6 °C 0,0 km/h (0 Bft)
12.10.2019 23:01 10,7 °C 84 % 1017,7 hPa 0,0 mm 0,0 km/h (0 Bft) SW 220 ° 0 min 0,000 mm 0,0 UV-I 0 W/m² 8,1 °C 10,7 °C 0,0 km/h (0 Bft)
12.10.2019 23:02 10,8 °C 83 % 1017,6 hPa 0,0 mm 0,1 km/h (0 Bft) SW 219 ° 0 min 0,000 mm 0,0 UV-I 0 W/m² 8,0 °C 10,8 °C 1,6 km/h (1 Bft)
12.10.2019 23:03 10,8 °C 83 % 1017,6 hPa 0,0 mm 0,0 km/h (0 Bft) SW 219 ° 0 min 0,000 mm 0,0 UV-I 0 W/m² 8,0 °C 10,8 °C 0,0 km/h (0 Bft)
12.10.2019 23:04 10,9 °C 82 % 1017,6 hPa 0,0 mm 0,0 km/h (0 Bft) SW 219 ° 0 min 0,000 mm 0,0 UV-I 0 W/m² 7,9 °C 10,9 °C 0,0 km/h (0 Bft)
12.10.2019 23:05 11,0 °C 82 % 1017,6 hPa 0,0 mm 0,1 km/h (0 Bft) SW 219 ° 0 min 0,000 mm 0,0 UV-I 0 W/m² 8,0 °C 11,0 °C 1,6 km/h (1 Bft)
12.10.2019 23:06 11,0 °C 82 % 1017,6 hPa 0,0 mm 0,0 km/h (0 Bft) SW 219 ° 0 min 0,000 mm 0,0 UV-I 0 W/m² 8,0 °C 11,0 °C 0,0 km/h (0 Bft)
12.10.2019 23:07 11,1 °C 82 % 1017,5 hPa 0,0 mm 0,0 km/h (0 Bft) SW 219 ° 0 min 0,000 mm 0,0 UV-I 0 W/m² 8,1 °C 11,1 °C 0,0 km/h (0 Bft)
12.10.2019 23:08 11,1 °C 82 % 1017,5 hPa 0,0 mm 0,0 km/h (0 Bft) SW 219 ° 0 min 0,000 mm 0,0 UV-I 0 W/m² 8,1 °C 11,1 °C 0,0 km/h (0 Bft)
12.10.2019 23:09 11,1 °C 82 % 1017,5 hPa 0,0 mm 0,3 km/h (0 Bft) SW 220 ° 0 min 0,000 mm 0,0 UV-I 0 W/m² 8,1 °C 11,1 °C 1,6 km/h (1 Bft)
12.10.2019 23:10 11,1 °C 83 % 1017,5 hPa 0,0 mm 0,0 km/h (0 Bft) SW 219 ° 0 min 0,000 mm 0,0 UV-I 0 W/m² 8,3 °C 11,1 °C 0,0 km/h (0 Bft)
12.10.2019 23:11 11,0 °C 83 % 1017,5 hPa 0,0 mm 0,0 km/h (0 Bft) SW 219 ° 0 min 0,000 mm 0,0 UV-I 0 W/m² 8,2 °C 11,0 °C 0,0 km/h (0 Bft)
12.10.2019 23:12 11,0 °C 83 % 1017,5 hPa 0,0 mm 1,9 km/h (1 Bft) SW 220 ° 0 min 0,000 mm 0,0 UV-I 0 W/m² 8,2 °C 11,0 °C 4,8 km/h (1 Bft)
12.10.2019 23:13 11,0 °C 82 % 1017,5 hPa 0,0 mm 3,2 km/h (1 Bft) SW 227 ° 0 min 0,000 mm 0,0 UV-I 0 W/m² 8,0 °C 11,0 °C 6,4 km/h (2 Bft)
12.10.2019 23:14 11,0 °C 82 % 1017,5 hPa 0,0 mm 1,1 km/h (1 Bft) SW 227 ° 0 min 0,000 mm 0,0 UV-I 0 W/m² 8,0 °C 11,0 °C 4,8 km/h (1 Bft)
12.10.2019 23:15 11,1 °C 82 % 1017,5 hPa 0,0 mm 0,8 km/h (0 Bft) SW 227 ° 0 min 0,000 mm 0,0 UV-I 0 W/m² 8,1 °C 11,1 °C 3,2 km/h (1 Bft)
12.10.2019 23:16 11,1 °C 82 % 1017,5 hPa 0,0 mm 0,1 km/h (0 Bft) SW 227 ° 0 min 0,000 mm 0,0 UV-I 0 W/m² 8,1 °C 11,1 °C 1,6 km/h (1 Bft)
12.10.2019 23:18 11,0 °C 82 % 1017,5 hPa 0,0 mm 0,0 km/h (0 Bft) SW 227 ° 0 min 0,000 mm 0,0 UV-I 0 W/m² 8,0 °C 11,0 °C 0,0 km/h (0 Bft)
12.10.2019 23:19 10,9 °C 82 % 1017,5 hPa 0,0 mm 0,0 km/h (0 Bft) SW 227 ° 0 min 0,000 mm 0,0 UV-I 0 W/m² 7,9 °C 10,9 °C 0,0 km/h (0 Bft)
12.10.2019 23:20 10,9 °C 82 % 1017,5 hPa 0,0 mm 0,0 km/h (0 Bft) SW 227 ° 0 min 0,000 mm 0,0 UV-I 0 W/m² 7,9 °C 10,9 °C 0,0 km/h (0 Bft)
12.10.2019 23:21 10,9 °C 82 % 1017,6 hPa 0,0 mm 0,0 km/h (0 Bft) SW 227 ° 0 min 0,000 mm 0,0 UV-I 0 W/m² 7,9 °C 10,9 °C 0,0 km/h (0 Bft)
12.10.2019 23:22 10,9 °C 83 % 1017,6 hPa 0,0 mm 0,0 km/h (0 Bft) SW 227 ° 0 min 0,000 mm 0,0 UV-I 0 W/m² 8,1 °C 10,9 °C 0,0 km/h (0 Bft)
12.10.2019 23:23 10,9 °C 83 % 1017,5 hPa 0,0 mm 0,0 km/h (0 Bft) SW 227 ° 0 min 0,000 mm 0,0 UV-I 0 W/m² 8,1 °C 10,9 °C 0,0 km/h (0 Bft)
12.10.2019 23:24 10,9 °C 83 % 1017,5 hPa 0,0 mm 0,0 km/h (0 Bft) SW 227 ° 0 min 0,000 mm 0,0 UV-I 0 W/m² 8,1 °C 10,9 °C 0,0 km/h (0 Bft)
12.10.2019 23:25 10,8 °C 83 % 1017,5 hPa 0,0 mm 0,0 km/h (0 Bft) SW 227 ° 0 min 0,000 mm 0,0 UV-I 0 W/m² 8,0 °C 10,8 °C 0,0 km/h (0 Bft)
12.10.2019 23:26 10,9 °C 83 % 1017,5 hPa 0,0 mm 0,0 km/h (0 Bft) SW 227 ° 0 min 0,000 mm 0,0 UV-I 0 W/m² 8,1 °C 10,9 °C 0,0 km/h (0 Bft)
12.10.2019 23:27 10,9 °C 83 % 1017,5 hPa 0,0 mm 0,0 km/h (0 Bft) SW 227 ° 0 min 0,000 mm 0,0 UV-I 0 W/m² 8,1 °C 10,9 °C 0,0 km/h (0 Bft)
12.10.2019 23:28 10,8 °C 83 % 1017,5 hPa 0,0 mm 0,0 km/h (0 Bft) SW 227 ° 0 min 0,000 mm 0,0 UV-I 0 W/m² 8,0 °C 10,8 °C 0,0 km/h (0 Bft)
12.10.2019 23:29 10,9 °C 82 % 1017,5 hPa 0,0 mm 1,4 km/h (1 Bft) SW 227 ° 0 min 0,000 mm 0,0 UV-I 0 W/m² 7,9 °C 10,9 °C 4,8 km/h (1 Bft)
12.10.2019 23:30 11,0 °C 82 % 1017,5 hPa 0,0 mm 2,6 km/h (1 Bft) SW 227 ° 0 min 0,000 mm 0,0 UV-I 0 W/m² 8,0 °C 11,0 °C 3,2 km/h (1 Bft)
12.10.2019 23:31 11,0 °C 82 % 1017,5 hPa 0,0 mm 0,6 km/h (0 Bft) SW 227 ° 0 min 0,000 mm 0,0 UV-I 0 W/m² 8,0 °C 11,0 °C 1,6 km/h (1 Bft)
12.10.2019 23:32 10,9 °C 82 % 1017,5 hPa 0,0 mm 0,0 km/h (0 Bft) SW 227 ° 0 min 0,000 mm 0,0 UV-I 0 W/m² 7,9 °C 10,9 °C 0,0 km/h (0 Bft)
12.10.2019 23:33 10,9 °C 82 % 1017,5 hPa 0,0 mm 0,0 km/h (0 Bft) SW 227 ° 0 min 0,000 mm 0,0 UV-I 0 W/m² 7,9 °C 10,9 °C 0,0 km/h (0 Bft)
12.10.2019 23:34 10,9 °C 82 % 1017,5 hPa 0,0 mm 0,0 km/h (0 Bft) SW 227 ° 0 min 0,000 mm 0,0 UV-I 0 W/m² 7,9 °C 10,9 °C 0,0 km/h (0 Bft)
12.10.2019 23:35 10,8 °C 82 % 1017,5 hPa 0,0 mm 0,0 km/h (0 Bft) SW 227 ° 0 min 0,000 mm 0,0 UV-I 0 W/m² 7,9 °C 10,8 °C 0,0 km/h (0 Bft)
12.10.2019 23:36 10,8 °C 82 % 1017,5 hPa 0,0 mm 0,0 km/h (0 Bft) SW 227 ° 0 min 0,000 mm 0,0 UV-I 0 W/m² 7,9 °C 10,8 °C 0,0 km/h (0 Bft)
12.10.2019 23:37 10,8 °C 82 % 1017,5 hPa 0,0 mm 0,0 km/h (0 Bft) SW 227 ° 0 min 0,000 mm 0,0 UV-I 0 W/m² 7,9 °C 10,8 °C 0,0 km/h (0 Bft)
12.10.2019 23:38 10,7 °C 83 % 1017,5 hPa 0,0 mm 0,0 km/h (0 Bft) SW 227 ° 0 min 0,000 mm 0,0 UV-I 0 W/m² 7,9 °C 10,7 °C 0,0 km/h (0 Bft)
12.10.2019 23:39 10,7 °C 83 % 1017,5 hPa 0,0 mm 0,0 km/h (0 Bft) SW 227 ° 0 min 0,000 mm 0,0 UV-I 0 W/m² 7,9 °C 10,7 °C 0,0 km/h (0 Bft)
12.10.2019 23:40 10,7 °C 83 % 1017,5 hPa 0,0 mm 0,0 km/h (0 Bft) SW 227 ° 0 min 0,000 mm 0,0 UV-I 0 W/m² 7,9 °C 10,7 °C 0,0 km/h (0 Bft)
12.10.2019 23:41 10,7 °C 83 % 1017,5 hPa 0,0 mm 0,0 km/h (0 Bft) SW 227 ° 0 min 0,000 mm 0,0 UV-I 0 W/m² 7,9 °C 10,7 °C 0,0 km/h (0 Bft)
12.10.2019 23:42 10,6 °C 83 % 1017,5 hPa 0,0 mm 0,0 km/h (0 Bft) SW 227 ° 0 min 0,000 mm 0,0 UV-I 0 W/m² 7,8 °C 10,6 °C 0,0 km/h (0 Bft)
12.10.2019 23:43 10,6 °C 83 % 1017,5 hPa 0,0 mm 0,0 km/h (0 Bft) SW 227 ° 0 min 0,000 mm 0,0 UV-I 0 W/m² 7,8 °C 10,6 °C 0,0 km/h (0 Bft)
12.10.2019 23:44 10,6 °C 83 % 1017,4 hPa 0,0 mm 0,0 km/h (0 Bft) SW 227 ° 0 min 0,000 mm 0,0 UV-I 0 W/m² 7,8 °C 10,6 °C 0,0 km/h (0 Bft)
12.10.2019 23:45 10,6 °C 83 % 1017,4 hPa 0,0 mm 0,0 km/h (0 Bft) SW 227 ° 0 min 0,000 mm 0,0 UV-I 0 W/m² 7,8 °C 10,6 °C 0,0 km/h (0 Bft)
12.10.2019 23:46 10,6 °C 83 % 1017,5 hPa 0,0 mm 0,0 km/h (0 Bft) SW 227 ° 0 min 0,000 mm 0,0 UV-I 0 W/m² 7,8 °C 10,6 °C 0,0 km/h (0 Bft)
12.10.2019 23:47 10,7 °C 83 % 1017,5 hPa 0,0 mm 0,0 km/h (0 Bft) SW 227 ° 0 min 0,000 mm 0,0 UV-I 0 W/m² 7,9 °C 10,7 °C 0,0 km/h (0 Bft)
12.10.2019 23:48 10,7 °C 83 % 1017,4 hPa 0,0 mm 0,0 km/h (0 Bft) SW 227 ° 0 min 0,000 mm 0,0 UV-I 0 W/m² 7,9 °C 10,7 °C 0,0 km/h (0 Bft)
12.10.2019 23:49 10,7 °C 82 % 1017,4 hPa 0,0 mm 0,0 km/h (0 Bft) SW 227 ° 0 min 0,000 mm 0,0 UV-I 0 W/m² 7,8 °C 10,7 °C 0,0 km/h (0 Bft)
12.10.2019 23:50 10,7 °C 82 % 1017,5 hPa 0,0 mm 0,0 km/h (0 Bft) SW 227 ° 0 min 0,000 mm 0,0 UV-I 0 W/m² 7,8 °C 10,7 °C 0,0 km/h (0 Bft)
12.10.2019 23:51 10,8 °C 82 % 1017,5 hPa 0,0 mm 0,0 km/h (0 Bft) SW 227 ° 0 min 0,000 mm 0,0 UV-I 0 W/m² 7,9 °C 10,8 °C 0,0 km/h (0 Bft)
12.10.2019 23:52 10,8 °C 82 % 1017,4 hPa 0,0 mm 0,0 km/h (0 Bft) SW 227 ° 0 min 0,000 mm 0,0 UV-I 0 W/m² 7,9 °C 10,8 °C 0,0 km/h (0 Bft)
12.10.2019 23:53 10,7 °C 82 % 1017,5 hPa 0,0 mm 0,0 km/h (0 Bft) SW 227 ° 0 min 0,000 mm 0,0 UV-I 0 W/m² 7,8 °C 10,7 °C 0,0 km/h (0 Bft)
12.10.2019 23:54 10,7 °C 83 % 1017,5 hPa 0,0 mm 0,0 km/h (0 Bft) SW 227 ° 0 min 0,000 mm 0,0 UV-I 0 W/m² 7,9 °C 10,7 °C 0,0 km/h (0 Bft)
12.10.2019 23:55 10,7 °C 83 % 1017,5 hPa 0,0 mm 0,0 km/h (0 Bft) SW 227 ° 0 min 0,000 mm 0,0 UV-I 0 W/m² 7,9 °C 10,7 °C 0,0 km/h (0 Bft)
12.10.2019 23:56 10,6 °C 83 % 1017,4 hPa 0,0 mm 0,0 km/h (0 Bft) SW 227 ° 0 min 0,000 mm 0,0 UV-I 0 W/m² 7,8 °C 10,6 °C 0,0 km/h (0 Bft)
12.10.2019 23:57 10,6 °C 83 % 1017,4 hPa 0,0 mm 0,0 km/h (0 Bft) SW 227 ° 0 min 0,000 mm 0,0 UV-I 0 W/m² 7,8 °C 10,6 °C 0,0 km/h (0 Bft)
12.10.2019 23:58 10,6 °C 83 % 1017,4 hPa 0,0 mm 0,0 km/h (0 Bft) SW 227 ° 0 min 0,000 mm 0,0 UV-I 0 W/m² 7,8 °C 10,6 °C 0,0 km/h (0 Bft)
12.10.2019 23:59 10,5 °C 83 % 1017,3 hPa 0,0 mm 0,0 km/h (0 Bft) SW 227 ° 0 min 0,000 mm 0,0 UV-I 0 W/m² 7,7 °C 10,5 °C 0,0 km/h (0 Bft)
_ Min-Zeit 06:40 13:27 18:06 - 23:59 - - - - - - 06:40 01:34 23:59
Minimum _ 4,1 °C 42 % 1016,3 hPa - 0,0 km/h (0 Bft) - - - - - - 2,5 °C 3,6 °C 0,0 km/h (0 Bft)
_ Max-Zeit 15:22 05:13 10:23 22:20 01:34 - - 13:27 13:01 12:49 12:46 17:02 15:22 12:54
Maximum _ 20,3 °C 92 % 1018,6 hPa 0,2 mm 12,0 km/h
W (2 Bft)
- - 1 min 0,356 mm 3,9 UV-I 657 W/m² 12,2 °C 20,3 °C 16,1 km/h
W (3 Bft)
Durchschnitt _ 11,2 °C 76 % 1017,5 hPa #0,6 mm 0,7 km/h (0 Bft) W-SW - #19 min. #1,575 mm 2,6 UV-I 108 W/m² 6,7 °C 11,2 °C 1,3 km/h (1 Bft)